<?xml version="1.0" encoding="UTF-8" standalone="no" ?>
<gpx xmlns="http://www.topografix.com/GPX/1/1" xmlns:xsi="http://www.w3.org/2001/XMLSchema-instance" xsi:schemaLocation="http://www.topografix.com/GPX/1/1 http://www.topografix.com/GPX/1/1/gpx.xsd" version="1.1" creator="VisuGPX - https://www.visugpx.com">
  <metadata>
    <name>RANDO RESTO ST ANDRE DEVESSET 29 KM</name>
    <desc><![CDATA[RANDO RESTO ST ANDRE EN VIVARAIS DEVESSET 29 KM. DEPART ARRIVEE ST ANDRE.PEYREGOURDE.BABEL DEVESSET(Resto).LAC DE DEVESSET.LAFONT.FOUGERE.GAUCHER.LA CHAVE]]></desc>
  </metadata>
  <trk>
    <name><![CDATA[04-AVR-24 18:03:03]]></name>
    <extensions>
      <line xmlns="http://www.topografix.com/GPX/gpx_style/0/2">
        <color>0000FF</color>
        <width>4</width>
      </line>
    </extensions>
    <trkseg>
      <trkpt lat="45.12072" lon="4.41257">
        <ele>1121.52</ele>
        <time>2024-04-04T07:30:59Z</time>
      </trkpt>
      <trkpt lat="45.12066" lon="4.41257">
        <ele>1112.86</ele>
        <time>2024-04-04T07:31:13Z</time>
      </trkpt>
      <trkpt lat="45.12063" lon="4.41258">
        <ele>1113.34</ele>
        <time>2024-04-04T07:31:23Z</time>
      </trkpt>
      <trkpt lat="45.12066" lon="4.41262">
        <ele>1112.86</ele>
        <time>2024-04-04T07:31:37Z</time>
      </trkpt>
      <trkpt lat="45.12065" lon="4.4126">
        <ele>1111.42</ele>
        <time>2024-04-04T07:31:53Z</time>
      </trkpt>
      <trkpt lat="45.12063" lon="4.41258">
        <ele>1110.46</ele>
        <time>2024-04-04T07:32:06Z</time>
      </trkpt>
      <trkpt lat="45.12066" lon="4.41263">
        <ele>1110.46</ele>
        <time>2024-04-04T07:32:23Z</time>
      </trkpt>
      <trkpt lat="45.12066" lon="4.41265">
        <ele>1109.98</ele>
        <time>2024-04-04T07:32:41Z</time>
      </trkpt>
      <trkpt lat="45.12065" lon="4.41268">
        <ele>1108.54</ele>
        <time>2024-04-04T07:33:03Z</time>
      </trkpt>
      <trkpt lat="45.12065" lon="4.4127">
        <ele>1108.06</ele>
        <time>2024-04-04T07:33:23Z</time>
      </trkpt>
      <trkpt lat="45.12065" lon="4.4127">
        <ele>1107.58</ele>
        <time>2024-04-04T07:33:45Z</time>
      </trkpt>
      <trkpt lat="45.12065" lon="4.4127">
        <ele>1107.58</ele>
        <time>2024-04-04T07:34:01Z</time>
      </trkpt>
      <trkpt lat="45.12064" lon="4.41266">
        <ele>1107.58</ele>
        <time>2024-04-04T07:34:19Z</time>
      </trkpt>
      <trkpt lat="45.12062" lon="4.41268">
        <ele>1108.06</ele>
        <time>2024-04-04T07:34:33Z</time>
      </trkpt>
      <trkpt lat="45.12062" lon="4.41268">
        <ele>1108.06</ele>
        <time>2024-04-04T07:34:38Z</time>
      </trkpt>
      <trkpt lat="45.12063" lon="4.41265">
        <ele>1107.58</ele>
        <time>2024-04-04T07:34:53Z</time>
      </trkpt>
      <trkpt lat="45.12063" lon="4.41265">
        <ele>1106.61</ele>
        <time>2024-04-04T07:35:13Z</time>
      </trkpt>
      <trkpt lat="45.12064" lon="4.41264">
        <ele>1106.13</ele>
        <time>2024-04-04T07:35:29Z</time>
      </trkpt>
      <trkpt lat="45.12064" lon="4.41266">
        <ele>1105.17</ele>
        <time>2024-04-04T07:35:43Z</time>
      </trkpt>
      <trkpt lat="45.12054" lon="4.41259">
        <ele>1105.65</ele>
        <time>2024-04-04T07:35:57Z</time>
      </trkpt>
      <trkpt lat="45.12051" lon="4.41258">
        <ele>1105.65</ele>
        <time>2024-04-04T07:36:01Z</time>
      </trkpt>
      <trkpt lat="45.12043" lon="4.41253">
        <ele>1105.17</ele>
        <time>2024-04-04T07:36:14Z</time>
      </trkpt>
      <trkpt lat="45.12033" lon="4.4125">
        <ele>1104.21</ele>
        <time>2024-04-04T07:36:28Z</time>
      </trkpt>
      <trkpt lat="45.12026" lon="4.41242">
        <ele>1103.73</ele>
        <time>2024-04-04T07:36:46Z</time>
      </trkpt>
      <trkpt lat="45.12027" lon="4.41236">
        <ele>1101.81</ele>
        <time>2024-04-04T07:36:53Z</time>
      </trkpt>
      <trkpt lat="45.12027" lon="4.41216">
        <ele>1098.92</ele>
        <time>2024-04-04T07:37:04Z</time>
      </trkpt>
      <trkpt lat="45.12027" lon="4.41209">
        <ele>1098.92</ele>
        <time>2024-04-04T07:37:08Z</time>
      </trkpt>
      <trkpt lat="45.12028" lon="4.412">
        <ele>1098.92</ele>
        <time>2024-04-04T07:37:14Z</time>
      </trkpt>
      <trkpt lat="45.12025" lon="4.41188">
        <ele>1098.44</ele>
        <time>2024-04-04T07:37:24Z</time>
      </trkpt>
      <trkpt lat="45.12018" lon="4.41188">
        <ele>1098.92</ele>
        <time>2024-04-04T07:37:29Z</time>
      </trkpt>
      <trkpt lat="45.11999" lon="4.41206">
        <ele>1098.44</ele>
        <time>2024-04-04T07:37:47Z</time>
      </trkpt>
      <trkpt lat="45.11994" lon="4.41213">
        <ele>1098.44</ele>
        <time>2024-04-04T07:37:53Z</time>
      </trkpt>
      <trkpt lat="45.11992" lon="4.41224">
        <ele>1098.92</ele>
        <time>2024-04-04T07:38:00Z</time>
      </trkpt>
      <trkpt lat="45.11978" lon="4.41253">
        <ele>1099.4</ele>
        <time>2024-04-04T07:38:20Z</time>
      </trkpt>
      <trkpt lat="45.1197" lon="4.41285">
        <ele>1101.81</ele>
        <time>2024-04-04T07:38:38Z</time>
      </trkpt>
      <trkpt lat="45.11969" lon="4.41296">
        <ele>1102.77</ele>
        <time>2024-04-04T07:38:44Z</time>
      </trkpt>
      <trkpt lat="45.11969" lon="4.41319">
        <ele>1100.85</ele>
        <time>2024-04-04T07:38:57Z</time>
      </trkpt>
      <trkpt lat="45.11968" lon="4.41321">
        <ele>1101.33</ele>
        <time>2024-04-04T07:38:59Z</time>
      </trkpt>
      <trkpt lat="45.11964" lon="4.41326">
        <ele>1101.81</ele>
        <time>2024-04-04T07:39:05Z</time>
      </trkpt>
      <trkpt lat="45.11942" lon="4.41332">
        <ele>1101.81</ele>
        <time>2024-04-04T07:39:22Z</time>
      </trkpt>
      <trkpt lat="45.1192" lon="4.41342">
        <ele>1101.33</ele>
        <time>2024-04-04T07:39:39Z</time>
      </trkpt>
      <trkpt lat="45.11907" lon="4.41349">
        <ele>1101.33</ele>
        <time>2024-04-04T07:39:50Z</time>
      </trkpt>
      <trkpt lat="45.11887" lon="4.41358">
        <ele>1104.21</ele>
        <time>2024-04-04T07:40:06Z</time>
      </trkpt>
      <trkpt lat="45.11866" lon="4.41359">
        <ele>1102.77</ele>
        <time>2024-04-04T07:40:21Z</time>
      </trkpt>
      <trkpt lat="45.11837" lon="4.4137">
        <ele>1100.37</ele>
        <time>2024-04-04T07:40:43Z</time>
      </trkpt>
      <trkpt lat="45.11834" lon="4.41372">
        <ele>1099.89</ele>
        <time>2024-04-04T07:40:47Z</time>
      </trkpt>
      <trkpt lat="45.11823" lon="4.41379">
        <ele>1097.96</ele>
        <time>2024-04-04T07:40:57Z</time>
      </trkpt>
      <trkpt lat="45.11803" lon="4.41388">
        <ele>1097</ele>
        <time>2024-04-04T07:41:13Z</time>
      </trkpt>
      <trkpt lat="45.11777" lon="4.41398">
        <ele>1096.52</ele>
        <time>2024-04-04T07:41:32Z</time>
      </trkpt>
      <trkpt lat="45.11756" lon="4.41407">
        <ele>1095.08</ele>
        <time>2024-04-04T07:41:49Z</time>
      </trkpt>
      <trkpt lat="45.11732" lon="4.41419">
        <ele>1093.64</ele>
        <time>2024-04-04T07:42:08Z</time>
      </trkpt>
      <trkpt lat="45.11717" lon="4.41424">
        <ele>1091.71</ele>
        <time>2024-04-04T07:42:19Z</time>
      </trkpt>
      <trkpt lat="45.11705" lon="4.41429">
        <ele>1090.75</ele>
        <time>2024-04-04T07:42:29Z</time>
      </trkpt>
      <trkpt lat="45.11692" lon="4.41435">
        <ele>1089.31</ele>
        <time>2024-04-04T07:42:44Z</time>
      </trkpt>
      <trkpt lat="45.11686" lon="4.4144">
        <ele>1088.35</ele>
        <time>2024-04-04T07:42:56Z</time>
      </trkpt>
      <trkpt lat="45.1166" lon="4.41449">
        <ele>1087.39</ele>
        <time>2024-04-04T07:43:15Z</time>
      </trkpt>
      <trkpt lat="45.11635" lon="4.41459">
        <ele>1085.95</ele>
        <time>2024-04-04T07:43:33Z</time>
      </trkpt>
      <trkpt lat="45.11616" lon="4.41463">
        <ele>1085.47</ele>
        <time>2024-04-04T07:43:46Z</time>
      </trkpt>
      <trkpt lat="45.1161" lon="4.41463">
        <ele>1085.47</ele>
        <time>2024-04-04T07:43:50Z</time>
      </trkpt>
      <trkpt lat="45.11605" lon="4.41466">
        <ele>1084.5</ele>
        <time>2024-04-04T07:43:54Z</time>
      </trkpt>
      <trkpt lat="45.11588" lon="4.41476">
        <ele>1082.1</ele>
        <time>2024-04-04T07:44:09Z</time>
      </trkpt>
      <trkpt lat="45.11575" lon="4.41485">
        <ele>1080.18</ele>
        <time>2024-04-04T07:44:22Z</time>
      </trkpt>
      <trkpt lat="45.11574" lon="4.41485">
        <ele>1080.18</ele>
        <time>2024-04-04T07:44:27Z</time>
      </trkpt>
      <trkpt lat="45.11571" lon="4.41484">
        <ele>1079.7</ele>
        <time>2024-04-04T07:44:33Z</time>
      </trkpt>
      <trkpt lat="45.11561" lon="4.41491">
        <ele>1077.29</ele>
        <time>2024-04-04T07:44:41Z</time>
      </trkpt>
      <trkpt lat="45.11551" lon="4.41495">
        <ele>1074.89</ele>
        <time>2024-04-04T07:44:56Z</time>
      </trkpt>
      <trkpt lat="45.11531" lon="4.41511">
        <ele>1073.93</ele>
        <time>2024-04-04T07:45:11Z</time>
      </trkpt>
      <trkpt lat="45.1153" lon="4.41512">
        <ele>1073.45</ele>
        <time>2024-04-04T07:45:12Z</time>
      </trkpt>
      <trkpt lat="45.11516" lon="4.4152">
        <ele>1072.97</ele>
        <time>2024-04-04T07:45:21Z</time>
      </trkpt>
      <trkpt lat="45.11513" lon="4.4152">
        <ele>1072.49</ele>
        <time>2024-04-04T07:45:30Z</time>
      </trkpt>
      <trkpt lat="45.11501" lon="4.41524">
        <ele>1071.05</ele>
        <time>2024-04-04T07:45:39Z</time>
      </trkpt>
      <trkpt lat="45.11493" lon="4.41522">
        <ele>1070.08</ele>
        <time>2024-04-04T07:45:44Z</time>
      </trkpt>
      <trkpt lat="45.11485" lon="4.41522">
        <ele>1068.16</ele>
        <time>2024-04-04T07:45:59Z</time>
      </trkpt>
      <trkpt lat="45.11481" lon="4.41523">
        <ele>1067.68</ele>
        <time>2024-04-04T07:46:04Z</time>
      </trkpt>
      <trkpt lat="45.11472" lon="4.41536">
        <ele>1070.08</ele>
        <time>2024-04-04T07:46:18Z</time>
      </trkpt>
      <trkpt lat="45.11467" lon="4.41544">
        <ele>1072.01</ele>
        <time>2024-04-04T07:46:35Z</time>
      </trkpt>
      <trkpt lat="45.11464" lon="4.41546">
        <ele>1072.01</ele>
        <time>2024-04-04T07:46:39Z</time>
      </trkpt>
      <trkpt lat="45.11442" lon="4.41548">
        <ele>1074.41</ele>
        <time>2024-04-04T07:46:56Z</time>
      </trkpt>
      <trkpt lat="45.1143" lon="4.41543">
        <ele>1076.33</ele>
        <time>2024-04-04T07:47:06Z</time>
      </trkpt>
      <trkpt lat="45.11418" lon="4.41544">
        <ele>1079.22</ele>
        <time>2024-04-04T07:47:20Z</time>
      </trkpt>
      <trkpt lat="45.11407" lon="4.41542">
        <ele>1081.62</ele>
        <time>2024-04-04T07:47:33Z</time>
      </trkpt>
      <trkpt lat="45.11397" lon="4.41536">
        <ele>1082.1</ele>
        <time>2024-04-04T07:47:46Z</time>
      </trkpt>
      <trkpt lat="45.11385" lon="4.4153">
        <ele>1084.02</ele>
        <time>2024-04-04T07:47:58Z</time>
      </trkpt>
      <trkpt lat="45.11379" lon="4.41527">
        <ele>1085.47</ele>
        <time>2024-04-04T07:48:17Z</time>
      </trkpt>
      <trkpt lat="45.11372" lon="4.41523">
        <ele>1086.43</ele>
        <time>2024-04-04T07:48:21Z</time>
      </trkpt>
      <trkpt lat="45.11352" lon="4.41531">
        <ele>1091.23</ele>
        <time>2024-04-04T07:48:38Z</time>
      </trkpt>
      <trkpt lat="45.11337" lon="4.41535">
        <ele>1093.64</ele>
        <time>2024-04-04T07:48:55Z</time>
      </trkpt>
      <trkpt lat="45.11323" lon="4.41533">
        <ele>1096.04</ele>
        <time>2024-04-04T07:49:11Z</time>
      </trkpt>
      <trkpt lat="45.11308" lon="4.41537">
        <ele>1097.48</ele>
        <time>2024-04-04T07:49:23Z</time>
      </trkpt>
      <trkpt lat="45.11299" lon="4.41535">
        <ele>1098.44</ele>
        <time>2024-04-04T07:49:31Z</time>
      </trkpt>
      <trkpt lat="45.11282" lon="4.41535">
        <ele>1097.48</ele>
        <time>2024-04-04T07:49:45Z</time>
      </trkpt>
      <trkpt lat="45.11276" lon="4.41531">
        <ele>1097.48</ele>
        <time>2024-04-04T07:49:50Z</time>
      </trkpt>
      <trkpt lat="45.1127" lon="4.4153">
        <ele>1097</ele>
        <time>2024-04-04T07:49:54Z</time>
      </trkpt>
      <trkpt lat="45.11255" lon="4.41518">
        <ele>1096.52</ele>
        <time>2024-04-04T07:50:06Z</time>
      </trkpt>
      <trkpt lat="45.11241" lon="4.41504">
        <ele>1097</ele>
        <time>2024-04-04T07:50:21Z</time>
      </trkpt>
      <trkpt lat="45.11236" lon="4.41505">
        <ele>1096.52</ele>
        <time>2024-04-04T07:50:25Z</time>
      </trkpt>
      <trkpt lat="45.11227" lon="4.41532">
        <ele>1093.64</ele>
        <time>2024-04-04T07:50:42Z</time>
      </trkpt>
      <trkpt lat="45.11219" lon="4.41563">
        <ele>1093.64</ele>
        <time>2024-04-04T07:51:01Z</time>
      </trkpt>
      <trkpt lat="45.11205" lon="4.41605">
        <ele>1093.64</ele>
        <time>2024-04-04T07:51:24Z</time>
      </trkpt>
      <trkpt lat="45.11194" lon="4.41631">
        <ele>1093.64</ele>
        <time>2024-04-04T07:51:39Z</time>
      </trkpt>
      <trkpt lat="45.1119" lon="4.41646">
        <ele>1093.64</ele>
        <time>2024-04-04T07:51:49Z</time>
      </trkpt>
      <trkpt lat="45.11181" lon="4.41666">
        <ele>1095.08</ele>
        <time>2024-04-04T07:51:59Z</time>
      </trkpt>
      <trkpt lat="45.11175" lon="4.41682">
        <ele>1095.08</ele>
        <time>2024-04-04T07:52:10Z</time>
      </trkpt>
      <trkpt lat="45.1117" lon="4.41687">
        <ele>1096.04</ele>
        <time>2024-04-04T07:52:20Z</time>
      </trkpt>
      <trkpt lat="45.11169" lon="4.41686">
        <ele>1096.52</ele>
        <time>2024-04-04T07:52:22Z</time>
      </trkpt>
      <trkpt lat="45.11166" lon="4.41666">
        <ele>1095.56</ele>
        <time>2024-04-04T07:52:36Z</time>
      </trkpt>
      <trkpt lat="45.11163" lon="4.41637">
        <ele>1094.6</ele>
        <time>2024-04-04T07:52:53Z</time>
      </trkpt>
      <trkpt lat="45.1116" lon="4.4162">
        <ele>1096.04</ele>
        <time>2024-04-04T07:53:04Z</time>
      </trkpt>
      <trkpt lat="45.11157" lon="4.41596">
        <ele>1097.48</ele>
        <time>2024-04-04T07:53:17Z</time>
      </trkpt>
      <trkpt lat="45.11153" lon="4.41572">
        <ele>1096.52</ele>
        <time>2024-04-04T07:53:33Z</time>
      </trkpt>
      <trkpt lat="45.1115" lon="4.41554">
        <ele>1097.48</ele>
        <time>2024-04-04T07:53:46Z</time>
      </trkpt>
      <trkpt lat="45.11148" lon="4.41536">
        <ele>1097.96</ele>
        <time>2024-04-04T07:54:00Z</time>
      </trkpt>
      <trkpt lat="45.11145" lon="4.41517">
        <ele>1097</ele>
        <time>2024-04-04T07:54:12Z</time>
      </trkpt>
      <trkpt lat="45.11141" lon="4.41495">
        <ele>1096.04</ele>
        <time>2024-04-04T07:54:27Z</time>
      </trkpt>
      <trkpt lat="45.11137" lon="4.41477">
        <ele>1095.08</ele>
        <time>2024-04-04T07:54:37Z</time>
      </trkpt>
      <trkpt lat="45.11132" lon="4.4145">
        <ele>1093.64</ele>
        <time>2024-04-04T07:54:54Z</time>
      </trkpt>
      <trkpt lat="45.1113" lon="4.4143">
        <ele>1093.64</ele>
        <time>2024-04-04T07:55:06Z</time>
      </trkpt>
      <trkpt lat="45.11126" lon="4.41413">
        <ele>1094.12</ele>
        <time>2024-04-04T07:55:22Z</time>
      </trkpt>
      <trkpt lat="45.1112" lon="4.41386">
        <ele>1093.16</ele>
        <time>2024-04-04T07:55:41Z</time>
      </trkpt>
      <trkpt lat="45.1112" lon="4.41368">
        <ele>1094.12</ele>
        <time>2024-04-04T07:55:55Z</time>
      </trkpt>
      <trkpt lat="45.11116" lon="4.41333">
        <ele>1095.56</ele>
        <time>2024-04-04T07:56:12Z</time>
      </trkpt>
      <trkpt lat="45.11105" lon="4.41303">
        <ele>1098.92</ele>
        <time>2024-04-04T07:56:26Z</time>
      </trkpt>
      <trkpt lat="45.11105" lon="4.41301">
        <ele>1098.92</ele>
        <time>2024-04-04T07:56:27Z</time>
      </trkpt>
      <trkpt lat="45.11102" lon="4.41284">
        <ele>1095.08</ele>
        <time>2024-04-04T07:56:41Z</time>
      </trkpt>
      <trkpt lat="45.11099" lon="4.41265">
        <ele>1093.16</ele>
        <time>2024-04-04T07:56:58Z</time>
      </trkpt>
      <trkpt lat="45.11096" lon="4.41252">
        <ele>1092.2</ele>
        <time>2024-04-04T07:57:12Z</time>
      </trkpt>
      <trkpt lat="45.11094" lon="4.41234">
        <ele>1092.68</ele>
        <time>2024-04-04T07:57:20Z</time>
      </trkpt>
      <trkpt lat="45.11091" lon="4.41219">
        <ele>1096.04</ele>
        <time>2024-04-04T07:57:26Z</time>
      </trkpt>
      <trkpt lat="45.11085" lon="4.412">
        <ele>1098.92</ele>
        <time>2024-04-04T07:57:40Z</time>
      </trkpt>
      <trkpt lat="45.11088" lon="4.41181">
        <ele>1099.4</ele>
        <time>2024-04-04T07:57:53Z</time>
      </trkpt>
      <trkpt lat="45.11083" lon="4.41166">
        <ele>1096.52</ele>
        <time>2024-04-04T07:58:08Z</time>
      </trkpt>
      <trkpt lat="45.11084" lon="4.4116">
        <ele>1094.6</ele>
        <time>2024-04-04T07:58:24Z</time>
      </trkpt>
      <trkpt lat="45.11083" lon="4.4115">
        <ele>1091.23</ele>
        <time>2024-04-04T07:58:32Z</time>
      </trkpt>
      <trkpt lat="45.11078" lon="4.41144">
        <ele>1092.2</ele>
        <time>2024-04-04T07:58:47Z</time>
      </trkpt>
      <trkpt lat="45.11075" lon="4.41142">
        <ele>1091.71</ele>
        <time>2024-04-04T07:59:07Z</time>
      </trkpt>
      <trkpt lat="45.1107" lon="4.41129">
        <ele>1088.83</ele>
        <time>2024-04-04T07:59:21Z</time>
      </trkpt>
      <trkpt lat="45.11057" lon="4.41113">
        <ele>1086.91</ele>
        <time>2024-04-04T07:59:37Z</time>
      </trkpt>
      <trkpt lat="45.11046" lon="4.41109">
        <ele>1082.1</ele>
        <time>2024-04-04T07:59:55Z</time>
      </trkpt>
      <trkpt lat="45.11027" lon="4.41094">
        <ele>1085.47</ele>
        <time>2024-04-04T08:00:12Z</time>
      </trkpt>
      <trkpt lat="45.11014" lon="4.41085">
        <ele>1092.68</ele>
        <time>2024-04-04T08:00:27Z</time>
      </trkpt>
      <trkpt lat="45.11" lon="4.41067">
        <ele>1096.04</ele>
        <time>2024-04-04T08:00:46Z</time>
      </trkpt>
      <trkpt lat="45.10988" lon="4.41055">
        <ele>1100.37</ele>
        <time>2024-04-04T08:00:59Z</time>
      </trkpt>
      <trkpt lat="45.10971" lon="4.41036">
        <ele>1105.65</ele>
        <time>2024-04-04T08:01:16Z</time>
      </trkpt>
      <trkpt lat="45.10951" lon="4.41025">
        <ele>1112.86</ele>
        <time>2024-04-04T08:01:31Z</time>
      </trkpt>
      <trkpt lat="45.10947" lon="4.41015">
        <ele>1115.27</ele>
        <time>2024-04-04T08:01:36Z</time>
      </trkpt>
      <trkpt lat="45.10932" lon="4.40991">
        <ele>1112.86</ele>
        <time>2024-04-04T08:01:53Z</time>
      </trkpt>
      <trkpt lat="45.10919" lon="4.40975">
        <ele>1110.46</ele>
        <time>2024-04-04T08:02:08Z</time>
      </trkpt>
      <trkpt lat="45.1091" lon="4.40958">
        <ele>1112.38</ele>
        <time>2024-04-04T08:02:23Z</time>
      </trkpt>
      <trkpt lat="45.10905" lon="4.40951">
        <ele>1112.38</ele>
        <time>2024-04-04T08:02:29Z</time>
      </trkpt>
      <trkpt lat="45.10894" lon="4.40935">
        <ele>1113.82</ele>
        <time>2024-04-04T08:02:43Z</time>
      </trkpt>
      <trkpt lat="45.10883" lon="4.40916">
        <ele>1114.79</ele>
        <time>2024-04-04T08:02:57Z</time>
      </trkpt>
      <trkpt lat="45.10868" lon="4.40893">
        <ele>1113.82</ele>
        <time>2024-04-04T08:03:15Z</time>
      </trkpt>
      <trkpt lat="45.10851" lon="4.40883">
        <ele>1115.27</ele>
        <time>2024-04-04T08:03:31Z</time>
      </trkpt>
      <trkpt lat="45.10831" lon="4.40866">
        <ele>1121.03</ele>
        <time>2024-04-04T08:03:46Z</time>
      </trkpt>
      <trkpt lat="45.10826" lon="4.40848">
        <ele>1124.4</ele>
        <time>2024-04-04T08:04:00Z</time>
      </trkpt>
      <trkpt lat="45.10815" lon="4.40832">
        <ele>1126.8</ele>
        <time>2024-04-04T08:04:13Z</time>
      </trkpt>
      <trkpt lat="45.10803" lon="4.40812">
        <ele>1127.76</ele>
        <time>2024-04-04T08:04:28Z</time>
      </trkpt>
      <trkpt lat="45.1079" lon="4.40798">
        <ele>1129.21</ele>
        <time>2024-04-04T08:04:44Z</time>
      </trkpt>
      <trkpt lat="45.10789" lon="4.40799">
        <ele>1130.65</ele>
        <time>2024-04-04T08:05:05Z</time>
      </trkpt>
      <trkpt lat="45.10782" lon="4.4079">
        <ele>1134.01</ele>
        <time>2024-04-04T08:05:19Z</time>
      </trkpt>
      <trkpt lat="45.10763" lon="4.40777">
        <ele>1133.53</ele>
        <time>2024-04-04T08:05:31Z</time>
      </trkpt>
      <trkpt lat="45.10748" lon="4.4076">
        <ele>1134.49</ele>
        <time>2024-04-04T08:05:48Z</time>
      </trkpt>
      <trkpt lat="45.10734" lon="4.40751">
        <ele>1133.05</ele>
        <time>2024-04-04T08:06:01Z</time>
      </trkpt>
      <trkpt lat="45.10717" lon="4.4074">
        <ele>1131.61</ele>
        <time>2024-04-04T08:06:13Z</time>
      </trkpt>
      <trkpt lat="45.10697" lon="4.40727">
        <ele>1134.97</ele>
        <time>2024-04-04T08:06:28Z</time>
      </trkpt>
      <trkpt lat="45.10685" lon="4.40714">
        <ele>1135.94</ele>
        <time>2024-04-04T08:06:42Z</time>
      </trkpt>
      <trkpt lat="45.10684" lon="4.40714">
        <ele>1136.9</ele>
        <time>2024-04-04T08:06:47Z</time>
      </trkpt>
      <trkpt lat="45.1068" lon="4.40711">
        <ele>1139.3</ele>
        <time>2024-04-04T08:07:01Z</time>
      </trkpt>
      <trkpt lat="45.10667" lon="4.40711">
        <ele>1142.18</ele>
        <time>2024-04-04T08:07:10Z</time>
      </trkpt>
      <trkpt lat="45.10649" lon="4.40714">
        <ele>1143.14</ele>
        <time>2024-04-04T08:07:27Z</time>
      </trkpt>
      <trkpt lat="45.10637" lon="4.40716">
        <ele>1141.7</ele>
        <time>2024-04-04T08:07:36Z</time>
      </trkpt>
      <trkpt lat="45.1062" lon="4.4071">
        <ele>1139.3</ele>
        <time>2024-04-04T08:07:52Z</time>
      </trkpt>
      <trkpt lat="45.10603" lon="4.407">
        <ele>1138.34</ele>
        <time>2024-04-04T08:08:10Z</time>
      </trkpt>
      <trkpt lat="45.10594" lon="4.40697">
        <ele>1137.86</ele>
        <time>2024-04-04T08:08:34Z</time>
      </trkpt>
      <trkpt lat="45.10562" lon="4.40687">
        <ele>1138.82</ele>
        <time>2024-04-04T08:08:56Z</time>
      </trkpt>
      <trkpt lat="45.1054" lon="4.40679">
        <ele>1140.26</ele>
        <time>2024-04-04T08:09:18Z</time>
      </trkpt>
      <trkpt lat="45.10524" lon="4.40665">
        <ele>1143.63</ele>
        <time>2024-04-04T08:09:42Z</time>
      </trkpt>
      <trkpt lat="45.10495" lon="4.40657">
        <ele>1143.63</ele>
        <time>2024-04-04T08:10:02Z</time>
      </trkpt>
      <trkpt lat="45.10475" lon="4.40645">
        <ele>1144.11</ele>
        <time>2024-04-04T08:10:25Z</time>
      </trkpt>
      <trkpt lat="45.10441" lon="4.40625">
        <ele>1144.11</ele>
        <time>2024-04-04T08:10:46Z</time>
      </trkpt>
      <trkpt lat="45.10417" lon="4.40615">
        <ele>1148.43</ele>
        <time>2024-04-04T08:11:06Z</time>
      </trkpt>
      <trkpt lat="45.10398" lon="4.40599">
        <ele>1152.76</ele>
        <time>2024-04-04T08:11:24Z</time>
      </trkpt>
      <trkpt lat="45.1038" lon="4.40597">
        <ele>1156.12</ele>
        <time>2024-04-04T08:11:37Z</time>
      </trkpt>
      <trkpt lat="45.10363" lon="4.40587">
        <ele>1155.16</ele>
        <time>2024-04-04T08:11:52Z</time>
      </trkpt>
      <trkpt lat="45.1035" lon="4.40575">
        <ele>1152.76</ele>
        <time>2024-04-04T08:12:05Z</time>
      </trkpt>
      <trkpt lat="45.10336" lon="4.40566">
        <ele>1153.72</ele>
        <time>2024-04-04T08:12:17Z</time>
      </trkpt>
      <trkpt lat="45.10323" lon="4.40559">
        <ele>1154.68</ele>
        <time>2024-04-04T08:12:27Z</time>
      </trkpt>
      <trkpt lat="45.103" lon="4.40549">
        <ele>1156.12</ele>
        <time>2024-04-04T08:12:44Z</time>
      </trkpt>
      <trkpt lat="45.10282" lon="4.40538">
        <ele>1158.53</ele>
        <time>2024-04-04T08:12:58Z</time>
      </trkpt>
      <trkpt lat="45.1026" lon="4.4053">
        <ele>1160.45</ele>
        <time>2024-04-04T08:13:16Z</time>
      </trkpt>
      <trkpt lat="45.10241" lon="4.40516">
        <ele>1164.29</ele>
        <time>2024-04-04T08:13:31Z</time>
      </trkpt>
      <trkpt lat="45.10223" lon="4.40506">
        <ele>1166.22</ele>
        <time>2024-04-04T08:13:46Z</time>
      </trkpt>
      <trkpt lat="45.10214" lon="4.40498">
        <ele>1164.77</ele>
        <time>2024-04-04T08:13:56Z</time>
      </trkpt>
      <trkpt lat="45.10201" lon="4.40491">
        <ele>1164.29</ele>
        <time>2024-04-04T08:14:06Z</time>
      </trkpt>
      <trkpt lat="45.10187" lon="4.4048">
        <ele>1167.18</ele>
        <time>2024-04-04T08:14:18Z</time>
      </trkpt>
      <trkpt lat="45.10182" lon="4.40474">
        <ele>1167.66</ele>
        <time>2024-04-04T08:14:23Z</time>
      </trkpt>
      <trkpt lat="45.10162" lon="4.40462">
        <ele>1167.66</ele>
        <time>2024-04-04T08:14:41Z</time>
      </trkpt>
      <trkpt lat="45.10134" lon="4.40442">
        <ele>1167.66</ele>
        <time>2024-04-04T08:15:01Z</time>
      </trkpt>
      <trkpt lat="45.10114" lon="4.40429">
        <ele>1167.18</ele>
        <time>2024-04-04T08:15:17Z</time>
      </trkpt>
      <trkpt lat="45.10108" lon="4.40426">
        <ele>1166.22</ele>
        <time>2024-04-04T08:15:22Z</time>
      </trkpt>
      <trkpt lat="45.10097" lon="4.40421">
        <ele>1162.37</ele>
        <time>2024-04-04T08:15:36Z</time>
      </trkpt>
      <trkpt lat="45.10069" lon="4.40409">
        <ele>1157.08</ele>
        <time>2024-04-04T08:15:54Z</time>
      </trkpt>
      <trkpt lat="45.10045" lon="4.40394">
        <ele>1155.16</ele>
        <time>2024-04-04T08:16:11Z</time>
      </trkpt>
      <trkpt lat="45.10039" lon="4.40389">
        <ele>1152.76</ele>
        <time>2024-04-04T08:16:21Z</time>
      </trkpt>
      <trkpt lat="45.10038" lon="4.40386">
        <ele>1150.35</ele>
        <time>2024-04-04T08:16:38Z</time>
      </trkpt>
      <trkpt lat="45.10035" lon="4.40389">
        <ele>1150.35</ele>
        <time>2024-04-04T08:16:53Z</time>
      </trkpt>
      <trkpt lat="45.10032" lon="4.40388">
        <ele>1150.35</ele>
        <time>2024-04-04T08:16:55Z</time>
      </trkpt>
      <trkpt lat="45.10026" lon="4.40391">
        <ele>1149.87</ele>
        <time>2024-04-04T08:17:09Z</time>
      </trkpt>
      <trkpt lat="45.10029" lon="4.40394">
        <ele>1149.87</ele>
        <time>2024-04-04T08:17:28Z</time>
      </trkpt>
      <trkpt lat="45.1003" lon="4.40394">
        <ele>1149.87</ele>
        <time>2024-04-04T08:17:52Z</time>
      </trkpt>
      <trkpt lat="45.10031" lon="4.40394">
        <ele>1149.87</ele>
        <time>2024-04-04T08:18:13Z</time>
      </trkpt>
      <trkpt lat="45.10031" lon="4.40393">
        <ele>1149.39</ele>
        <time>2024-04-04T08:18:35Z</time>
      </trkpt>
      <trkpt lat="45.10031" lon="4.40392">
        <ele>1148.43</ele>
        <time>2024-04-04T08:18:55Z</time>
      </trkpt>
      <trkpt lat="45.1003" lon="4.40388">
        <ele>1151.8</ele>
        <time>2024-04-04T08:19:12Z</time>
      </trkpt>
      <trkpt lat="45.1003" lon="4.40391">
        <ele>1152.76</ele>
        <time>2024-04-04T08:19:32Z</time>
      </trkpt>
      <trkpt lat="45.1003" lon="4.40392">
        <ele>1153.24</ele>
        <time>2024-04-04T08:19:53Z</time>
      </trkpt>
      <trkpt lat="45.1003" lon="4.40394">
        <ele>1153.72</ele>
        <time>2024-04-04T08:20:13Z</time>
      </trkpt>
      <trkpt lat="45.10029" lon="4.40393">
        <ele>1154.2</ele>
        <time>2024-04-04T08:20:35Z</time>
      </trkpt>
      <trkpt lat="45.10024" lon="4.40392">
        <ele>1157.56</ele>
        <time>2024-04-04T08:20:48Z</time>
      </trkpt>
      <trkpt lat="45.10014" lon="4.40387">
        <ele>1159.97</ele>
        <time>2024-04-04T08:20:59Z</time>
      </trkpt>
      <trkpt lat="45.10012" lon="4.40387">
        <ele>1160.45</ele>
        <time>2024-04-04T08:21:01Z</time>
      </trkpt>
      <trkpt lat="45.10005" lon="4.40387">
        <ele>1161.41</ele>
        <time>2024-04-04T08:21:05Z</time>
      </trkpt>
      <trkpt lat="45.09989" lon="4.40374">
        <ele>1160.93</ele>
        <time>2024-04-04T08:21:18Z</time>
      </trkpt>
      <trkpt lat="45.09971" lon="4.40358">
        <ele>1159.49</ele>
        <time>2024-04-04T08:21:34Z</time>
      </trkpt>
      <trkpt lat="45.09945" lon="4.40345">
        <ele>1160.45</ele>
        <time>2024-04-04T08:21:54Z</time>
      </trkpt>
      <trkpt lat="45.09924" lon="4.40335">
        <ele>1160.45</ele>
        <time>2024-04-04T08:22:11Z</time>
      </trkpt>
      <trkpt lat="45.099" lon="4.40325">
        <ele>1160.93</ele>
        <time>2024-04-04T08:22:29Z</time>
      </trkpt>
      <trkpt lat="45.09883" lon="4.40315">
        <ele>1160.45</ele>
        <time>2024-04-04T08:22:44Z</time>
      </trkpt>
      <trkpt lat="45.09866" lon="4.40311">
        <ele>1163.33</ele>
        <time>2024-04-04T08:22:57Z</time>
      </trkpt>
      <trkpt lat="45.09858" lon="4.40305">
        <ele>1164.29</ele>
        <time>2024-04-04T08:23:04Z</time>
      </trkpt>
      <trkpt lat="45.0984" lon="4.40295">
        <ele>1166.7</ele>
        <time>2024-04-04T08:23:20Z</time>
      </trkpt>
      <trkpt lat="45.09829" lon="4.40291">
        <ele>1169.1</ele>
        <time>2024-04-04T08:23:30Z</time>
      </trkpt>
      <trkpt lat="45.09812" lon="4.40288">
        <ele>1171.5</ele>
        <time>2024-04-04T08:23:44Z</time>
      </trkpt>
      <trkpt lat="45.09792" lon="4.40275">
        <ele>1172.47</ele>
        <time>2024-04-04T08:23:59Z</time>
      </trkpt>
      <trkpt lat="45.09787" lon="4.40267">
        <ele>1171.02</ele>
        <time>2024-04-04T08:24:05Z</time>
      </trkpt>
      <trkpt lat="45.0979" lon="4.40253">
        <ele>1169.58</ele>
        <time>2024-04-04T08:24:13Z</time>
      </trkpt>
      <trkpt lat="45.09799" lon="4.40221">
        <ele>1167.18</ele>
        <time>2024-04-04T08:24:31Z</time>
      </trkpt>
      <trkpt lat="45.098" lon="4.40206">
        <ele>1166.7</ele>
        <time>2024-04-04T08:24:38Z</time>
      </trkpt>
      <trkpt lat="45.09801" lon="4.40202">
        <ele>1167.18</ele>
        <time>2024-04-04T08:24:49Z</time>
      </trkpt>
      <trkpt lat="45.09802" lon="4.4019">
        <ele>1165.26</ele>
        <time>2024-04-04T08:24:58Z</time>
      </trkpt>
      <trkpt lat="45.09802" lon="4.40183">
        <ele>1164.77</ele>
        <time>2024-04-04T08:25:04Z</time>
      </trkpt>
      <trkpt lat="45.09803" lon="4.40157">
        <ele>1162.85</ele>
        <time>2024-04-04T08:25:17Z</time>
      </trkpt>
      <trkpt lat="45.09804" lon="4.40134">
        <ele>1159.49</ele>
        <time>2024-04-04T08:25:30Z</time>
      </trkpt>
      <trkpt lat="45.09806" lon="4.40107">
        <ele>1155.64</ele>
        <time>2024-04-04T08:25:45Z</time>
      </trkpt>
      <trkpt lat="45.09806" lon="4.40091">
        <ele>1152.76</ele>
        <time>2024-04-04T08:25:52Z</time>
      </trkpt>
      <trkpt lat="45.09809" lon="4.40066">
        <ele>1148.43</ele>
        <time>2024-04-04T08:26:06Z</time>
      </trkpt>
      <trkpt lat="45.0981" lon="4.40058">
        <ele>1146.51</ele>
        <time>2024-04-04T08:26:16Z</time>
      </trkpt>
      <trkpt lat="45.09805" lon="4.40047">
        <ele>1147.95</ele>
        <time>2024-04-04T08:26:23Z</time>
      </trkpt>
      <trkpt lat="45.09803" lon="4.4003">
        <ele>1148.43</ele>
        <time>2024-04-04T08:26:32Z</time>
      </trkpt>
      <trkpt lat="45.09799" lon="4.40002">
        <ele>1146.03</ele>
        <time>2024-04-04T08:26:47Z</time>
      </trkpt>
      <trkpt lat="45.09799" lon="4.39976">
        <ele>1143.63</ele>
        <time>2024-04-04T08:27:00Z</time>
      </trkpt>
      <trkpt lat="45.09796" lon="4.39948">
        <ele>1141.22</ele>
        <time>2024-04-04T08:27:14Z</time>
      </trkpt>
      <trkpt lat="45.09795" lon="4.39939">
        <ele>1140.74</ele>
        <time>2024-04-04T08:27:20Z</time>
      </trkpt>
      <trkpt lat="45.09794" lon="4.39928">
        <ele>1139.3</ele>
        <time>2024-04-04T08:27:25Z</time>
      </trkpt>
      <trkpt lat="45.09794" lon="4.39925">
        <ele>1138.82</ele>
        <time>2024-04-04T08:27:27Z</time>
      </trkpt>
      <trkpt lat="45.09788" lon="4.39908">
        <ele>1137.38</ele>
        <time>2024-04-04T08:27:38Z</time>
      </trkpt>
      <trkpt lat="45.09788" lon="4.39889">
        <ele>1135.45</ele>
        <time>2024-04-04T08:27:49Z</time>
      </trkpt>
      <trkpt lat="45.09789" lon="4.39885">
        <ele>1134.97</ele>
        <time>2024-04-04T08:27:52Z</time>
      </trkpt>
      <trkpt lat="45.09788" lon="4.39882">
        <ele>1134.49</ele>
        <time>2024-04-04T08:27:54Z</time>
      </trkpt>
      <trkpt lat="45.09785" lon="4.39867">
        <ele>1133.53</ele>
        <time>2024-04-04T08:28:04Z</time>
      </trkpt>
      <trkpt lat="45.09784" lon="4.39856">
        <ele>1133.05</ele>
        <time>2024-04-04T08:28:11Z</time>
      </trkpt>
      <trkpt lat="45.09785" lon="4.39839">
        <ele>1133.05</ele>
        <time>2024-04-04T08:28:20Z</time>
      </trkpt>
      <trkpt lat="45.09786" lon="4.39823">
        <ele>1133.53</ele>
        <time>2024-04-04T08:28:28Z</time>
      </trkpt>
      <trkpt lat="45.09785" lon="4.39811">
        <ele>1133.05</ele>
        <time>2024-04-04T08:28:34Z</time>
      </trkpt>
      <trkpt lat="45.09785" lon="4.39797">
        <ele>1132.09</ele>
        <time>2024-04-04T08:28:42Z</time>
      </trkpt>
      <trkpt lat="45.09787" lon="4.39779">
        <ele>1130.17</ele>
        <time>2024-04-04T08:28:52Z</time>
      </trkpt>
      <trkpt lat="45.09789" lon="4.39769">
        <ele>1130.65</ele>
        <time>2024-04-04T08:28:57Z</time>
      </trkpt>
      <trkpt lat="45.09795" lon="4.39754">
        <ele>1132.09</ele>
        <time>2024-04-04T08:29:08Z</time>
      </trkpt>
      <trkpt lat="45.09805" lon="4.39745">
        <ele>1135.45</ele>
        <time>2024-04-04T08:29:22Z</time>
      </trkpt>
      <trkpt lat="45.09822" lon="4.39736">
        <ele>1140.26</ele>
        <time>2024-04-04T08:29:38Z</time>
      </trkpt>
      <trkpt lat="45.09841" lon="4.3972">
        <ele>1146.99</ele>
        <time>2024-04-04T08:29:57Z</time>
      </trkpt>
      <trkpt lat="45.09861" lon="4.39711">
        <ele>1153.24</ele>
        <time>2024-04-04T08:30:14Z</time>
      </trkpt>
      <trkpt lat="45.09878" lon="4.39696">
        <ele>1154.2</ele>
        <time>2024-04-04T08:30:29Z</time>
      </trkpt>
      <trkpt lat="45.09891" lon="4.39687">
        <ele>1156.12</ele>
        <time>2024-04-04T08:30:43Z</time>
      </trkpt>
      <trkpt lat="45.09907" lon="4.39667">
        <ele>1157.08</ele>
        <time>2024-04-04T08:30:59Z</time>
      </trkpt>
      <trkpt lat="45.09921" lon="4.39651">
        <ele>1159.97</ele>
        <time>2024-04-04T08:31:16Z</time>
      </trkpt>
      <trkpt lat="45.09924" lon="4.39645">
        <ele>1160.93</ele>
        <time>2024-04-04T08:31:21Z</time>
      </trkpt>
      <trkpt lat="45.09942" lon="4.3962">
        <ele>1159.49</ele>
        <time>2024-04-04T08:31:37Z</time>
      </trkpt>
      <trkpt lat="45.09955" lon="4.39596">
        <ele>1155.16</ele>
        <time>2024-04-04T08:31:51Z</time>
      </trkpt>
      <trkpt lat="45.0996" lon="4.3958">
        <ele>1153.72</ele>
        <time>2024-04-04T08:32:06Z</time>
      </trkpt>
      <trkpt lat="45.09971" lon="4.39557">
        <ele>1151.8</ele>
        <time>2024-04-04T08:32:19Z</time>
      </trkpt>
      <trkpt lat="45.09978" lon="4.39531">
        <ele>1149.39</ele>
        <time>2024-04-04T08:32:33Z</time>
      </trkpt>
      <trkpt lat="45.09989" lon="4.39504">
        <ele>1146.51</ele>
        <time>2024-04-04T08:32:46Z</time>
      </trkpt>
      <trkpt lat="45.09996" lon="4.39486">
        <ele>1142.18</ele>
        <time>2024-04-04T08:32:57Z</time>
      </trkpt>
      <trkpt lat="45.09998" lon="4.39464">
        <ele>1139.78</ele>
        <time>2024-04-04T08:33:10Z</time>
      </trkpt>
      <trkpt lat="45.09995" lon="4.39463">
        <ele>1139.3</ele>
        <time>2024-04-04T08:33:27Z</time>
      </trkpt>
      <trkpt lat="45.10004" lon="4.39432">
        <ele>1137.86</ele>
        <time>2024-04-04T08:33:47Z</time>
      </trkpt>
      <trkpt lat="45.1001" lon="4.39385">
        <ele>1136.42</ele>
        <time>2024-04-04T08:34:07Z</time>
      </trkpt>
      <trkpt lat="45.10011" lon="4.39354">
        <ele>1139.3</ele>
        <time>2024-04-04T08:34:26Z</time>
      </trkpt>
      <trkpt lat="45.10012" lon="4.39312">
        <ele>1134.49</ele>
        <time>2024-04-04T08:34:48Z</time>
      </trkpt>
      <trkpt lat="45.10015" lon="4.39295">
        <ele>1132.57</ele>
        <time>2024-04-04T08:34:56Z</time>
      </trkpt>
      <trkpt lat="45.10019" lon="4.39259">
        <ele>1127.76</ele>
        <time>2024-04-04T08:35:14Z</time>
      </trkpt>
      <trkpt lat="45.10021" lon="4.39221">
        <ele>1123.44</ele>
        <time>2024-04-04T08:35:32Z</time>
      </trkpt>
      <trkpt lat="45.10017" lon="4.39192">
        <ele>1119.11</ele>
        <time>2024-04-04T08:35:49Z</time>
      </trkpt>
      <trkpt lat="45.10015" lon="4.39161">
        <ele>1114.31</ele>
        <time>2024-04-04T08:36:07Z</time>
      </trkpt>
      <trkpt lat="45.10021" lon="4.39119">
        <ele>1109.98</ele>
        <time>2024-04-04T08:36:25Z</time>
      </trkpt>
      <trkpt lat="45.10015" lon="4.3909">
        <ele>1107.1</ele>
        <time>2024-04-04T08:36:44Z</time>
      </trkpt>
      <trkpt lat="45.10009" lon="4.39051">
        <ele>1101.81</ele>
        <time>2024-04-04T08:37:05Z</time>
      </trkpt>
      <trkpt lat="45.10002" lon="4.3904">
        <ele>1102.29</ele>
        <time>2024-04-04T08:37:23Z</time>
      </trkpt>
      <trkpt lat="45.10001" lon="4.39037">
        <ele>1105.65</ele>
        <time>2024-04-04T08:37:25Z</time>
      </trkpt>
      <trkpt lat="45.09998" lon="4.39025">
        <ele>1109.5</ele>
        <time>2024-04-04T08:37:35Z</time>
      </trkpt>
      <trkpt lat="45.09992" lon="4.39003">
        <ele>1111.42</ele>
        <time>2024-04-04T08:37:44Z</time>
      </trkpt>
      <trkpt lat="45.09992" lon="4.39002">
        <ele>1111.9</ele>
        <time>2024-04-04T08:37:45Z</time>
      </trkpt>
      <trkpt lat="45.09993" lon="4.38993">
        <ele>1112.86</ele>
        <time>2024-04-04T08:37:51Z</time>
      </trkpt>
      <trkpt lat="45.09992" lon="4.38982">
        <ele>1111.9</ele>
        <time>2024-04-04T08:37:56Z</time>
      </trkpt>
      <trkpt lat="45.09991" lon="4.38961">
        <ele>1111.9</ele>
        <time>2024-04-04T08:38:07Z</time>
      </trkpt>
      <trkpt lat="45.09987" lon="4.38936">
        <ele>1113.82</ele>
        <time>2024-04-04T08:38:19Z</time>
      </trkpt>
      <trkpt lat="45.09981" lon="4.38913">
        <ele>1113.82</ele>
        <time>2024-04-04T08:38:32Z</time>
      </trkpt>
      <trkpt lat="45.09974" lon="4.38897">
        <ele>1113.82</ele>
        <time>2024-04-04T08:38:42Z</time>
      </trkpt>
      <trkpt lat="45.09974" lon="4.38895">
        <ele>1113.34</ele>
        <time>2024-04-04T08:38:43Z</time>
      </trkpt>
      <trkpt lat="45.09973" lon="4.38867">
        <ele>1108.54</ele>
        <time>2024-04-04T08:38:57Z</time>
      </trkpt>
      <trkpt lat="45.09973" lon="4.38849">
        <ele>1108.54</ele>
        <time>2024-04-04T08:39:10Z</time>
      </trkpt>
      <trkpt lat="45.09973" lon="4.38847">
        <ele>1108.54</ele>
        <time>2024-04-04T08:39:12Z</time>
      </trkpt>
      <trkpt lat="45.09979" lon="4.38835">
        <ele>1108.06</ele>
        <time>2024-04-04T08:39:18Z</time>
      </trkpt>
      <trkpt lat="45.09986" lon="4.38812">
        <ele>1103.25</ele>
        <time>2024-04-04T08:39:29Z</time>
      </trkpt>
      <trkpt lat="45.09978" lon="4.38807">
        <ele>1105.65</ele>
        <time>2024-04-04T08:39:42Z</time>
      </trkpt>
      <trkpt lat="45.09973" lon="4.3879">
        <ele>1104.21</ele>
        <time>2024-04-04T08:39:55Z</time>
      </trkpt>
      <trkpt lat="45.09965" lon="4.38777">
        <ele>1105.17</ele>
        <time>2024-04-04T08:40:05Z</time>
      </trkpt>
      <trkpt lat="45.09966" lon="4.38768">
        <ele>1104.21</ele>
        <time>2024-04-04T08:40:11Z</time>
      </trkpt>
      <trkpt lat="45.09969" lon="4.38746">
        <ele>1102.29</ele>
        <time>2024-04-04T08:40:24Z</time>
      </trkpt>
      <trkpt lat="45.09969" lon="4.38746">
        <ele>1102.29</ele>
        <time>2024-04-04T08:40:26Z</time>
      </trkpt>
      <trkpt lat="45.09965" lon="4.38744">
        <ele>1101.33</ele>
        <time>2024-04-04T08:40:30Z</time>
      </trkpt>
      <trkpt lat="45.09954" lon="4.38742">
        <ele>1100.85</ele>
        <time>2024-04-04T08:40:38Z</time>
      </trkpt>
      <trkpt lat="45.09945" lon="4.38733">
        <ele>1101.33</ele>
        <time>2024-04-04T08:40:51Z</time>
      </trkpt>
      <trkpt lat="45.09935" lon="4.38719">
        <ele>1099.4</ele>
        <time>2024-04-04T08:41:02Z</time>
      </trkpt>
      <trkpt lat="45.09936" lon="4.38715">
        <ele>1098.92</ele>
        <time>2024-04-04T08:41:15Z</time>
      </trkpt>
      <trkpt lat="45.09942" lon="4.38709">
        <ele>1098.44</ele>
        <time>2024-04-04T08:41:26Z</time>
      </trkpt>
      <trkpt lat="45.09946" lon="4.38702">
        <ele>1097</ele>
        <time>2024-04-04T08:41:35Z</time>
      </trkpt>
      <trkpt lat="45.09955" lon="4.38688">
        <ele>1095.08</ele>
        <time>2024-04-04T08:41:46Z</time>
      </trkpt>
      <trkpt lat="45.09966" lon="4.38676">
        <ele>1089.31</ele>
        <time>2024-04-04T08:41:58Z</time>
      </trkpt>
      <trkpt lat="45.09977" lon="4.38671">
        <ele>1086.91</ele>
        <time>2024-04-04T08:42:08Z</time>
      </trkpt>
      <trkpt lat="45.09995" lon="4.38668">
        <ele>1085.47</ele>
        <time>2024-04-04T08:42:20Z</time>
      </trkpt>
      <trkpt lat="45.09997" lon="4.38663">
        <ele>1084.99</ele>
        <time>2024-04-04T08:42:23Z</time>
      </trkpt>
      <trkpt lat="45.09983" lon="4.3865">
        <ele>1084.5</ele>
        <time>2024-04-04T08:42:35Z</time>
      </trkpt>
      <trkpt lat="45.09969" lon="4.38649">
        <ele>1083.54</ele>
        <time>2024-04-04T08:42:45Z</time>
      </trkpt>
      <trkpt lat="45.09954" lon="4.38652">
        <ele>1083.54</ele>
        <time>2024-04-04T08:42:56Z</time>
      </trkpt>
      <trkpt lat="45.09939" lon="4.38656">
        <ele>1083.06</ele>
        <time>2024-04-04T08:43:07Z</time>
      </trkpt>
      <trkpt lat="45.09927" lon="4.38661">
        <ele>1082.1</ele>
        <time>2024-04-04T08:43:18Z</time>
      </trkpt>
      <trkpt lat="45.09923" lon="4.38665">
        <ele>1080.66</ele>
        <time>2024-04-04T08:43:23Z</time>
      </trkpt>
      <trkpt lat="45.09919" lon="4.38671">
        <ele>1079.7</ele>
        <time>2024-04-04T08:43:28Z</time>
      </trkpt>
      <trkpt lat="45.09908" lon="4.3868">
        <ele>1076.33</ele>
        <time>2024-04-04T08:43:40Z</time>
      </trkpt>
      <trkpt lat="45.09905" lon="4.38683">
        <ele>1076.33</ele>
        <time>2024-04-04T08:43:43Z</time>
      </trkpt>
      <trkpt lat="45.09899" lon="4.38686">
        <ele>1074.89</ele>
        <time>2024-04-04T08:43:50Z</time>
      </trkpt>
      <trkpt lat="45.09892" lon="4.38691">
        <ele>1073.45</ele>
        <time>2024-04-04T08:43:56Z</time>
      </trkpt>
      <trkpt lat="45.0988" lon="4.38698">
        <ele>1072.01</ele>
        <time>2024-04-04T08:44:03Z</time>
      </trkpt>
      <trkpt lat="45.09864" lon="4.38709">
        <ele>1068.64</ele>
        <time>2024-04-04T08:44:16Z</time>
      </trkpt>
      <trkpt lat="45.09857" lon="4.3871">
        <ele>1067.2</ele>
        <time>2024-04-04T08:44:22Z</time>
      </trkpt>
      <trkpt lat="45.09851" lon="4.38708">
        <ele>1066.24</ele>
        <time>2024-04-04T08:44:27Z</time>
      </trkpt>
      <trkpt lat="45.09847" lon="4.38708">
        <ele>1066.72</ele>
        <time>2024-04-04T08:44:30Z</time>
      </trkpt>
      <trkpt lat="45.09836" lon="4.38704">
        <ele>1067.68</ele>
        <time>2024-04-04T08:44:38Z</time>
      </trkpt>
      <trkpt lat="45.09832" lon="4.38684">
        <ele>1070.57</ele>
        <time>2024-04-04T08:44:51Z</time>
      </trkpt>
      <trkpt lat="45.09834" lon="4.38678">
        <ele>1071.05</ele>
        <time>2024-04-04T08:44:56Z</time>
      </trkpt>
      <trkpt lat="45.09838" lon="4.38666">
        <ele>1070.57</ele>
        <time>2024-04-04T08:45:04Z</time>
      </trkpt>
      <trkpt lat="45.09843" lon="4.38648">
        <ele>1070.57</ele>
        <time>2024-04-04T08:45:13Z</time>
      </trkpt>
      <trkpt lat="45.09846" lon="4.38633">
        <ele>1070.57</ele>
        <time>2024-04-04T08:45:21Z</time>
      </trkpt>
      <trkpt lat="45.09853" lon="4.3862">
        <ele>1068.16</ele>
        <time>2024-04-04T08:45:35Z</time>
      </trkpt>
      <trkpt lat="45.09862" lon="4.38605">
        <ele>1067.68</ele>
        <time>2024-04-04T08:45:57Z</time>
      </trkpt>
      <trkpt lat="45.09862" lon="4.38604">
        <ele>1067.68</ele>
        <time>2024-04-04T08:46:13Z</time>
      </trkpt>
      <trkpt lat="45.09862" lon="4.38602">
        <ele>1067.2</ele>
        <time>2024-04-04T08:46:35Z</time>
      </trkpt>
      <trkpt lat="45.09872" lon="4.38587">
        <ele>1068.16</ele>
        <time>2024-04-04T08:46:45Z</time>
      </trkpt>
      <trkpt lat="45.09882" lon="4.3857">
        <ele>1069.12</ele>
        <time>2024-04-04T08:46:57Z</time>
      </trkpt>
      <trkpt lat="45.09886" lon="4.38558">
        <ele>1070.08</ele>
        <time>2024-04-04T08:47:06Z</time>
      </trkpt>
      <trkpt lat="45.09888" lon="4.38535">
        <ele>1070.57</ele>
        <time>2024-04-04T08:47:19Z</time>
      </trkpt>
      <trkpt lat="45.0989" lon="4.3852">
        <ele>1072.49</ele>
        <time>2024-04-04T08:47:29Z</time>
      </trkpt>
      <trkpt lat="45.09892" lon="4.38513">
        <ele>1073.45</ele>
        <time>2024-04-04T08:47:33Z</time>
      </trkpt>
      <trkpt lat="45.09892" lon="4.38506">
        <ele>1073.93</ele>
        <time>2024-04-04T08:47:37Z</time>
      </trkpt>
      <trkpt lat="45.09893" lon="4.38488">
        <ele>1075.85</ele>
        <time>2024-04-04T08:47:48Z</time>
      </trkpt>
      <trkpt lat="45.09893" lon="4.38486">
        <ele>1076.33</ele>
        <time>2024-04-04T08:47:49Z</time>
      </trkpt>
      <trkpt lat="45.09894" lon="4.38484">
        <ele>1076.81</ele>
        <time>2024-04-04T08:47:51Z</time>
      </trkpt>
      <trkpt lat="45.09897" lon="4.38464">
        <ele>1078.74</ele>
        <time>2024-04-04T08:48:02Z</time>
      </trkpt>
      <trkpt lat="45.09901" lon="4.38447">
        <ele>1079.22</ele>
        <time>2024-04-04T08:48:12Z</time>
      </trkpt>
      <trkpt lat="45.09906" lon="4.38425">
        <ele>1080.18</ele>
        <time>2024-04-04T08:48:24Z</time>
      </trkpt>
      <trkpt lat="45.09911" lon="4.38399">
        <ele>1082.1</ele>
        <time>2024-04-04T08:48:38Z</time>
      </trkpt>
      <trkpt lat="45.09912" lon="4.38384">
        <ele>1084.02</ele>
        <time>2024-04-04T08:48:47Z</time>
      </trkpt>
      <trkpt lat="45.09917" lon="4.38366">
        <ele>1084.5</ele>
        <time>2024-04-04T08:48:57Z</time>
      </trkpt>
      <trkpt lat="45.09919" lon="4.38361">
        <ele>1084.5</ele>
        <time>2024-04-04T08:49:00Z</time>
      </trkpt>
      <trkpt lat="45.09921" lon="4.38347">
        <ele>1084.02</ele>
        <time>2024-04-04T08:49:09Z</time>
      </trkpt>
      <trkpt lat="45.09928" lon="4.38326">
        <ele>1084.5</ele>
        <time>2024-04-04T08:49:19Z</time>
      </trkpt>
      <trkpt lat="45.09933" lon="4.3831">
        <ele>1083.54</ele>
        <time>2024-04-04T08:49:28Z</time>
      </trkpt>
      <trkpt lat="45.09937" lon="4.38293">
        <ele>1082.1</ele>
        <time>2024-04-04T08:49:38Z</time>
      </trkpt>
      <trkpt lat="45.09944" lon="4.38278">
        <ele>1081.14</ele>
        <time>2024-04-04T08:49:51Z</time>
      </trkpt>
      <trkpt lat="45.09949" lon="4.38259">
        <ele>1081.14</ele>
        <time>2024-04-04T08:50:00Z</time>
      </trkpt>
      <trkpt lat="45.09951" lon="4.38253">
        <ele>1081.14</ele>
        <time>2024-04-04T08:50:03Z</time>
      </trkpt>
      <trkpt lat="45.09949" lon="4.38245">
        <ele>1080.66</ele>
        <time>2024-04-04T08:50:07Z</time>
      </trkpt>
      <trkpt lat="45.09951" lon="4.38237">
        <ele>1079.22</ele>
        <time>2024-04-04T08:50:11Z</time>
      </trkpt>
      <trkpt lat="45.09953" lon="4.38223">
        <ele>1078.26</ele>
        <time>2024-04-04T08:50:17Z</time>
      </trkpt>
      <trkpt lat="45.09952" lon="4.38216">
        <ele>1078.26</ele>
        <time>2024-04-04T08:50:21Z</time>
      </trkpt>
      <trkpt lat="45.09949" lon="4.38212">
        <ele>1077.78</ele>
        <time>2024-04-04T08:50:26Z</time>
      </trkpt>
      <trkpt lat="45.09936" lon="4.38212">
        <ele>1077.78</ele>
        <time>2024-04-04T08:50:37Z</time>
      </trkpt>
      <trkpt lat="45.0992" lon="4.38223">
        <ele>1080.18</ele>
        <time>2024-04-04T08:50:53Z</time>
      </trkpt>
      <trkpt lat="45.099" lon="4.3824">
        <ele>1083.54</ele>
        <time>2024-04-04T08:51:09Z</time>
      </trkpt>
      <trkpt lat="45.09898" lon="4.38241">
        <ele>1083.06</ele>
        <time>2024-04-04T08:51:11Z</time>
      </trkpt>
      <trkpt lat="45.09883" lon="4.38253">
        <ele>1083.54</ele>
        <time>2024-04-04T08:51:23Z</time>
      </trkpt>
      <trkpt lat="45.09871" lon="4.3826">
        <ele>1084.02</ele>
        <time>2024-04-04T08:51:34Z</time>
      </trkpt>
      <trkpt lat="45.09859" lon="4.38262">
        <ele>1084.5</ele>
        <time>2024-04-04T08:51:45Z</time>
      </trkpt>
      <trkpt lat="45.09843" lon="4.3826">
        <ele>1089.79</ele>
        <time>2024-04-04T08:51:57Z</time>
      </trkpt>
      <trkpt lat="45.09843" lon="4.38259">
        <ele>1090.27</ele>
        <time>2024-04-04T08:51:58Z</time>
      </trkpt>
      <trkpt lat="45.09833" lon="4.3825">
        <ele>1093.16</ele>
        <time>2024-04-04T08:52:07Z</time>
      </trkpt>
      <trkpt lat="45.09819" lon="4.38242">
        <ele>1095.08</ele>
        <time>2024-04-04T08:52:18Z</time>
      </trkpt>
      <trkpt lat="45.09816" lon="4.38241">
        <ele>1095.56</ele>
        <time>2024-04-04T08:52:21Z</time>
      </trkpt>
      <trkpt lat="45.09801" lon="4.38241">
        <ele>1097.48</ele>
        <time>2024-04-04T08:52:36Z</time>
      </trkpt>
      <trkpt lat="45.0979" lon="4.38243">
        <ele>1098.44</ele>
        <time>2024-04-04T08:52:44Z</time>
      </trkpt>
      <trkpt lat="45.09767" lon="4.38254">
        <ele>1099.4</ele>
        <time>2024-04-04T08:52:58Z</time>
      </trkpt>
      <trkpt lat="45.09753" lon="4.38259">
        <ele>1100.37</ele>
        <time>2024-04-04T08:53:10Z</time>
      </trkpt>
      <trkpt lat="45.09741" lon="4.38259">
        <ele>1103.73</ele>
        <time>2024-04-04T08:53:20Z</time>
      </trkpt>
      <trkpt lat="45.0974" lon="4.38259">
        <ele>1104.21</ele>
        <time>2024-04-04T08:53:21Z</time>
      </trkpt>
      <trkpt lat="45.09721" lon="4.38266">
        <ele>1105.65</ele>
        <time>2024-04-04T08:53:35Z</time>
      </trkpt>
      <trkpt lat="45.09704" lon="4.3827">
        <ele>1107.1</ele>
        <time>2024-04-04T08:53:50Z</time>
      </trkpt>
      <trkpt lat="45.0969" lon="4.38277">
        <ele>1109.02</ele>
        <time>2024-04-04T08:54:03Z</time>
      </trkpt>
      <trkpt lat="45.09678" lon="4.38283">
        <ele>1109.02</ele>
        <time>2024-04-04T08:54:17Z</time>
      </trkpt>
      <trkpt lat="45.09675" lon="4.38283">
        <ele>1109.02</ele>
        <time>2024-04-04T08:54:19Z</time>
      </trkpt>
      <trkpt lat="45.09662" lon="4.38281">
        <ele>1111.9</ele>
        <time>2024-04-04T08:54:32Z</time>
      </trkpt>
      <trkpt lat="45.09653" lon="4.38281">
        <ele>1113.82</ele>
        <time>2024-04-04T08:54:36Z</time>
      </trkpt>
      <trkpt lat="45.09632" lon="4.38286">
        <ele>1120.55</ele>
        <time>2024-04-04T08:54:45Z</time>
      </trkpt>
      <trkpt lat="45.09622" lon="4.38281">
        <ele>1122.48</ele>
        <time>2024-04-04T08:54:52Z</time>
      </trkpt>
      <trkpt lat="45.0961" lon="4.38273">
        <ele>1122.48</ele>
        <time>2024-04-04T08:55:03Z</time>
      </trkpt>
      <trkpt lat="45.09599" lon="4.38267">
        <ele>1124.4</ele>
        <time>2024-04-04T08:55:14Z</time>
      </trkpt>
      <trkpt lat="45.09578" lon="4.38252">
        <ele>1123.44</ele>
        <time>2024-04-04T08:55:32Z</time>
      </trkpt>
      <trkpt lat="45.09572" lon="4.38232">
        <ele>1122</ele>
        <time>2024-04-04T08:55:44Z</time>
      </trkpt>
      <trkpt lat="45.0956" lon="4.38207">
        <ele>1119.59</ele>
        <time>2024-04-04T08:56:00Z</time>
      </trkpt>
      <trkpt lat="45.09549" lon="4.38201">
        <ele>1119.59</ele>
        <time>2024-04-04T08:56:16Z</time>
      </trkpt>
      <trkpt lat="45.09536" lon="4.38195">
        <ele>1121.03</ele>
        <time>2024-04-04T08:56:35Z</time>
      </trkpt>
      <trkpt lat="45.09535" lon="4.38194">
        <ele>1121.03</ele>
        <time>2024-04-04T08:56:37Z</time>
      </trkpt>
      <trkpt lat="45.09532" lon="4.38193">
        <ele>1120.55</ele>
        <time>2024-04-04T08:56:40Z</time>
      </trkpt>
      <trkpt lat="45.09513" lon="4.38178">
        <ele>1118.63</ele>
        <time>2024-04-04T08:56:58Z</time>
      </trkpt>
      <trkpt lat="45.09507" lon="4.38173">
        <ele>1119.59</ele>
        <time>2024-04-04T08:57:05Z</time>
      </trkpt>
      <trkpt lat="45.09477" lon="4.38146">
        <ele>1123.44</ele>
        <time>2024-04-04T08:57:26Z</time>
      </trkpt>
      <trkpt lat="45.09458" lon="4.3813">
        <ele>1125.84</ele>
        <time>2024-04-04T08:57:42Z</time>
      </trkpt>
      <trkpt lat="45.09443" lon="4.38115">
        <ele>1126.8</ele>
        <time>2024-04-04T08:57:56Z</time>
      </trkpt>
      <trkpt lat="45.09439" lon="4.38114">
        <ele>1126.8</ele>
        <time>2024-04-04T08:58:09Z</time>
      </trkpt>
      <trkpt lat="45.09439" lon="4.38113">
        <ele>1125.84</ele>
        <time>2024-04-04T08:58:29Z</time>
      </trkpt>
      <trkpt lat="45.09439" lon="4.38112">
        <ele>1125.84</ele>
        <time>2024-04-04T08:58:41Z</time>
      </trkpt>
      <trkpt lat="45.09438" lon="4.38114">
        <ele>1125.36</ele>
        <time>2024-04-04T08:58:49Z</time>
      </trkpt>
      <trkpt lat="45.09438" lon="4.38113">
        <ele>1125.84</ele>
        <time>2024-04-04T08:59:11Z</time>
      </trkpt>
      <trkpt lat="45.09438" lon="4.38113">
        <ele>1126.32</ele>
        <time>2024-04-04T08:59:35Z</time>
      </trkpt>
      <trkpt lat="45.09438" lon="4.38114">
        <ele>1125.84</ele>
        <time>2024-04-04T08:59:59Z</time>
      </trkpt>
      <trkpt lat="45.09438" lon="4.38115">
        <ele>1126.32</ele>
        <time>2024-04-04T09:00:19Z</time>
      </trkpt>
      <trkpt lat="45.09438" lon="4.38114">
        <ele>1126.32</ele>
        <time>2024-04-04T09:00:43Z</time>
      </trkpt>
      <trkpt lat="45.09438" lon="4.38114">
        <ele>1126.32</ele>
        <time>2024-04-04T09:01:09Z</time>
      </trkpt>
      <trkpt lat="45.09438" lon="4.38114">
        <ele>1126.32</ele>
        <time>2024-04-04T09:01:32Z</time>
      </trkpt>
      <trkpt lat="45.09438" lon="4.38114">
        <ele>1127.76</ele>
        <time>2024-04-04T09:01:50Z</time>
      </trkpt>
      <trkpt lat="45.09438" lon="4.38112">
        <ele>1128.24</ele>
        <time>2024-04-04T09:01:52Z</time>
      </trkpt>
      <trkpt lat="45.09429" lon="4.38102">
        <ele>1131.13</ele>
        <time>2024-04-04T09:02:04Z</time>
      </trkpt>
      <trkpt lat="45.09414" lon="4.38082">
        <ele>1134.01</ele>
        <time>2024-04-04T09:02:20Z</time>
      </trkpt>
      <trkpt lat="45.09406" lon="4.38077">
        <ele>1135.45</ele>
        <time>2024-04-04T09:02:27Z</time>
      </trkpt>
      <trkpt lat="45.09386" lon="4.3806">
        <ele>1139.3</ele>
        <time>2024-04-04T09:02:44Z</time>
      </trkpt>
      <trkpt lat="45.09364" lon="4.38042">
        <ele>1138.82</ele>
        <time>2024-04-04T09:03:02Z</time>
      </trkpt>
      <trkpt lat="45.09341" lon="4.38028">
        <ele>1135.94</ele>
        <time>2024-04-04T09:03:21Z</time>
      </trkpt>
      <trkpt lat="45.09321" lon="4.3802">
        <ele>1135.45</ele>
        <time>2024-04-04T09:03:37Z</time>
      </trkpt>
      <trkpt lat="45.09302" lon="4.38013">
        <ele>1135.45</ele>
        <time>2024-04-04T09:03:53Z</time>
      </trkpt>
      <trkpt lat="45.09297" lon="4.38013">
        <ele>1135.45</ele>
        <time>2024-04-04T09:03:57Z</time>
      </trkpt>
      <trkpt lat="45.09276" lon="4.38003">
        <ele>1128.73</ele>
        <time>2024-04-04T09:04:13Z</time>
      </trkpt>
      <trkpt lat="45.09261" lon="4.3799">
        <ele>1123.92</ele>
        <time>2024-04-04T09:04:26Z</time>
      </trkpt>
      <trkpt lat="45.09246" lon="4.37982">
        <ele>1118.63</ele>
        <time>2024-04-04T09:04:39Z</time>
      </trkpt>
      <trkpt lat="45.09233" lon="4.37957">
        <ele>1115.27</ele>
        <time>2024-04-04T09:04:55Z</time>
      </trkpt>
      <trkpt lat="45.09228" lon="4.37932">
        <ele>1110.94</ele>
        <time>2024-04-04T09:05:10Z</time>
      </trkpt>
      <trkpt lat="45.09226" lon="4.37926">
        <ele>1111.42</ele>
        <time>2024-04-04T09:05:14Z</time>
      </trkpt>
      <trkpt lat="45.09212" lon="4.37888">
        <ele>1109.98</ele>
        <time>2024-04-04T09:05:35Z</time>
      </trkpt>
      <trkpt lat="45.09198" lon="4.37859">
        <ele>1109.98</ele>
        <time>2024-04-04T09:05:54Z</time>
      </trkpt>
      <trkpt lat="45.09183" lon="4.37833">
        <ele>1108.06</ele>
        <time>2024-04-04T09:06:11Z</time>
      </trkpt>
      <trkpt lat="45.09166" lon="4.3781">
        <ele>1109.02</ele>
        <time>2024-04-04T09:06:27Z</time>
      </trkpt>
      <trkpt lat="45.09152" lon="4.37791">
        <ele>1108.54</ele>
        <time>2024-04-04T09:06:42Z</time>
      </trkpt>
      <trkpt lat="45.09131" lon="4.37765">
        <ele>1108.06</ele>
        <time>2024-04-04T09:07:02Z</time>
      </trkpt>
      <trkpt lat="45.09121" lon="4.3775">
        <ele>1111.9</ele>
        <time>2024-04-04T09:07:12Z</time>
      </trkpt>
      <trkpt lat="45.09116" lon="4.37741">
        <ele>1115.75</ele>
        <time>2024-04-04T09:07:19Z</time>
      </trkpt>
      <trkpt lat="45.09104" lon="4.3773">
        <ele>1119.59</ele>
        <time>2024-04-04T09:07:30Z</time>
      </trkpt>
      <trkpt lat="45.09091" lon="4.37722">
        <ele>1122.96</ele>
        <time>2024-04-04T09:07:40Z</time>
      </trkpt>
      <trkpt lat="45.09083" lon="4.37718">
        <ele>1123.44</ele>
        <time>2024-04-04T09:07:48Z</time>
      </trkpt>
      <trkpt lat="45.09068" lon="4.37711">
        <ele>1124.4</ele>
        <time>2024-04-04T09:07:58Z</time>
      </trkpt>
      <trkpt lat="45.09053" lon="4.37713">
        <ele>1124.88</ele>
        <time>2024-04-04T09:08:10Z</time>
      </trkpt>
      <trkpt lat="45.09048" lon="4.37717">
        <ele>1123.92</ele>
        <time>2024-04-04T09:08:15Z</time>
      </trkpt>
      <trkpt lat="45.09034" lon="4.37722">
        <ele>1121.03</ele>
        <time>2024-04-04T09:08:28Z</time>
      </trkpt>
      <trkpt lat="45.09017" lon="4.37724">
        <ele>1118.63</ele>
        <time>2024-04-04T09:08:40Z</time>
      </trkpt>
      <trkpt lat="45.09001" lon="4.37725">
        <ele>1119.11</ele>
        <time>2024-04-04T09:08:51Z</time>
      </trkpt>
      <trkpt lat="45.08987" lon="4.37728">
        <ele>1119.59</ele>
        <time>2024-04-04T09:09:02Z</time>
      </trkpt>
      <trkpt lat="45.08973" lon="4.37729">
        <ele>1122</ele>
        <time>2024-04-04T09:09:13Z</time>
      </trkpt>
      <trkpt lat="45.08965" lon="4.3773">
        <ele>1121.52</ele>
        <time>2024-04-04T09:09:22Z</time>
      </trkpt>
      <trkpt lat="45.0896" lon="4.37729">
        <ele>1121.03</ele>
        <time>2024-04-04T09:09:28Z</time>
      </trkpt>
      <trkpt lat="45.08957" lon="4.37721">
        <ele>1121.03</ele>
        <time>2024-04-04T09:09:37Z</time>
      </trkpt>
      <trkpt lat="45.08957" lon="4.37721">
        <ele>1121.03</ele>
        <time>2024-04-04T09:09:38Z</time>
      </trkpt>
      <trkpt lat="45.08956" lon="4.37716">
        <ele>1121.03</ele>
        <time>2024-04-04T09:09:43Z</time>
      </trkpt>
      <trkpt lat="45.08956" lon="4.37693">
        <ele>1121.03</ele>
        <time>2024-04-04T09:09:57Z</time>
      </trkpt>
      <trkpt lat="45.08946" lon="4.3767">
        <ele>1119.59</ele>
        <time>2024-04-04T09:10:09Z</time>
      </trkpt>
      <trkpt lat="45.08941" lon="4.37651">
        <ele>1120.07</ele>
        <time>2024-04-04T09:10:20Z</time>
      </trkpt>
      <trkpt lat="45.0894" lon="4.37628">
        <ele>1120.07</ele>
        <time>2024-04-04T09:10:32Z</time>
      </trkpt>
      <trkpt lat="45.08935" lon="4.37616">
        <ele>1118.63</ele>
        <time>2024-04-04T09:10:41Z</time>
      </trkpt>
      <trkpt lat="45.08932" lon="4.37607">
        <ele>1116.71</ele>
        <time>2024-04-04T09:10:46Z</time>
      </trkpt>
      <trkpt lat="45.08927" lon="4.37585">
        <ele>1113.82</ele>
        <time>2024-04-04T09:11:00Z</time>
      </trkpt>
      <trkpt lat="45.08925" lon="4.37567">
        <ele>1111.9</ele>
        <time>2024-04-04T09:11:10Z</time>
      </trkpt>
      <trkpt lat="45.08923" lon="4.3756">
        <ele>1112.38</ele>
        <time>2024-04-04T09:11:16Z</time>
      </trkpt>
      <trkpt lat="45.08914" lon="4.37547">
        <ele>1111.42</ele>
        <time>2024-04-04T09:11:25Z</time>
      </trkpt>
      <trkpt lat="45.08912" lon="4.37542">
        <ele>1110.94</ele>
        <time>2024-04-04T09:11:28Z</time>
      </trkpt>
      <trkpt lat="45.08895" lon="4.37528">
        <ele>1108.06</ele>
        <time>2024-04-04T09:11:41Z</time>
      </trkpt>
      <trkpt lat="45.08882" lon="4.37512">
        <ele>1105.65</ele>
        <time>2024-04-04T09:11:55Z</time>
      </trkpt>
      <trkpt lat="45.08871" lon="4.375">
        <ele>1101.81</ele>
        <time>2024-04-04T09:12:08Z</time>
      </trkpt>
      <trkpt lat="45.08867" lon="4.37496">
        <ele>1100.37</ele>
        <time>2024-04-04T09:12:13Z</time>
      </trkpt>
      <trkpt lat="45.08848" lon="4.37474">
        <ele>1093.64</ele>
        <time>2024-04-04T09:12:32Z</time>
      </trkpt>
      <trkpt lat="45.0884" lon="4.37456">
        <ele>1094.12</ele>
        <time>2024-04-04T09:12:48Z</time>
      </trkpt>
      <trkpt lat="45.08843" lon="4.37445">
        <ele>1096.52</ele>
        <time>2024-04-04T09:13:09Z</time>
      </trkpt>
      <trkpt lat="45.08846" lon="4.37441">
        <ele>1097.48</ele>
        <time>2024-04-04T09:13:15Z</time>
      </trkpt>
      <trkpt lat="45.08872" lon="4.37428">
        <ele>1100.37</ele>
        <time>2024-04-04T09:13:35Z</time>
      </trkpt>
      <trkpt lat="45.08879" lon="4.37427">
        <ele>1099.89</ele>
        <time>2024-04-04T09:13:40Z</time>
      </trkpt>
      <trkpt lat="45.08886" lon="4.37427">
        <ele>1098.92</ele>
        <time>2024-04-04T09:13:45Z</time>
      </trkpt>
      <trkpt lat="45.08903" lon="4.37435">
        <ele>1097.96</ele>
        <time>2024-04-04T09:14:03Z</time>
      </trkpt>
      <trkpt lat="45.08912" lon="4.37438">
        <ele>1096.52</ele>
        <time>2024-04-04T09:14:21Z</time>
      </trkpt>
      <trkpt lat="45.08922" lon="4.37438">
        <ele>1095.56</ele>
        <time>2024-04-04T09:14:31Z</time>
      </trkpt>
      <trkpt lat="45.0893" lon="4.37434">
        <ele>1095.56</ele>
        <time>2024-04-04T09:14:35Z</time>
      </trkpt>
      <trkpt lat="45.08944" lon="4.37421">
        <ele>1097</ele>
        <time>2024-04-04T09:14:50Z</time>
      </trkpt>
      <trkpt lat="45.08964" lon="4.37397">
        <ele>1099.89</ele>
        <time>2024-04-04T09:15:07Z</time>
      </trkpt>
      <trkpt lat="45.0897" lon="4.37378">
        <ele>1103.25</ele>
        <time>2024-04-04T09:15:25Z</time>
      </trkpt>
      <trkpt lat="45.08978" lon="4.3736">
        <ele>1106.13</ele>
        <time>2024-04-04T09:15:43Z</time>
      </trkpt>
      <trkpt lat="45.08978" lon="4.37359">
        <ele>1106.61</ele>
        <time>2024-04-04T09:15:44Z</time>
      </trkpt>
      <trkpt lat="45.08988" lon="4.3734">
        <ele>1109.02</ele>
        <time>2024-04-04T09:16:02Z</time>
      </trkpt>
      <trkpt lat="45.08994" lon="4.37317">
        <ele>1111.9</ele>
        <time>2024-04-04T09:16:15Z</time>
      </trkpt>
      <trkpt lat="45.08996" lon="4.37304">
        <ele>1110.94</ele>
        <time>2024-04-04T09:16:22Z</time>
      </trkpt>
      <trkpt lat="45.08989" lon="4.37275">
        <ele>1113.82</ele>
        <time>2024-04-04T09:16:40Z</time>
      </trkpt>
      <trkpt lat="45.08988" lon="4.37272">
        <ele>1114.79</ele>
        <time>2024-04-04T09:16:42Z</time>
      </trkpt>
      <trkpt lat="45.08985" lon="4.37265">
        <ele>1116.23</ele>
        <time>2024-04-04T09:16:47Z</time>
      </trkpt>
      <trkpt lat="45.0897" lon="4.37251">
        <ele>1121.52</ele>
        <time>2024-04-04T09:17:05Z</time>
      </trkpt>
      <trkpt lat="45.08951" lon="4.37255">
        <ele>1126.32</ele>
        <time>2024-04-04T09:17:22Z</time>
      </trkpt>
      <trkpt lat="45.0894" lon="4.37244">
        <ele>1120.07</ele>
        <time>2024-04-04T09:17:37Z</time>
      </trkpt>
      <trkpt lat="45.08936" lon="4.37238">
        <ele>1120.55</ele>
        <time>2024-04-04T09:17:44Z</time>
      </trkpt>
      <trkpt lat="45.08927" lon="4.37225">
        <ele>1122</ele>
        <time>2024-04-04T09:17:55Z</time>
      </trkpt>
      <trkpt lat="45.08923" lon="4.37217">
        <ele>1125.84</ele>
        <time>2024-04-04T09:18:05Z</time>
      </trkpt>
      <trkpt lat="45.08913" lon="4.3721">
        <ele>1128.73</ele>
        <time>2024-04-04T09:18:17Z</time>
      </trkpt>
      <trkpt lat="45.08902" lon="4.37211">
        <ele>1130.65</ele>
        <time>2024-04-04T09:18:31Z</time>
      </trkpt>
      <trkpt lat="45.08894" lon="4.37209">
        <ele>1129.69</ele>
        <time>2024-04-04T09:18:38Z</time>
      </trkpt>
      <trkpt lat="45.08889" lon="4.37208">
        <ele>1129.69</ele>
        <time>2024-04-04T09:18:44Z</time>
      </trkpt>
      <trkpt lat="45.08876" lon="4.3721">
        <ele>1130.17</ele>
        <time>2024-04-04T09:18:57Z</time>
      </trkpt>
      <trkpt lat="45.08865" lon="4.37216">
        <ele>1130.17</ele>
        <time>2024-04-04T09:19:06Z</time>
      </trkpt>
      <trkpt lat="45.08849" lon="4.37222">
        <ele>1130.17</ele>
        <time>2024-04-04T09:19:20Z</time>
      </trkpt>
      <trkpt lat="45.08838" lon="4.37222">
        <ele>1131.61</ele>
        <time>2024-04-04T09:19:27Z</time>
      </trkpt>
      <trkpt lat="45.08821" lon="4.37223">
        <ele>1132.57</ele>
        <time>2024-04-04T09:19:40Z</time>
      </trkpt>
      <trkpt lat="45.08804" lon="4.37221">
        <ele>1132.57</ele>
        <time>2024-04-04T09:19:52Z</time>
      </trkpt>
      <trkpt lat="45.08794" lon="4.37219">
        <ele>1133.53</ele>
        <time>2024-04-04T09:19:59Z</time>
      </trkpt>
      <trkpt lat="45.08776" lon="4.37214">
        <ele>1135.94</ele>
        <time>2024-04-04T09:20:14Z</time>
      </trkpt>
      <trkpt lat="45.08749" lon="4.37197">
        <ele>1137.86</ele>
        <time>2024-04-04T09:20:38Z</time>
      </trkpt>
      <trkpt lat="45.08723" lon="4.37183">
        <ele>1139.78</ele>
        <time>2024-04-04T09:21:00Z</time>
      </trkpt>
      <trkpt lat="45.08697" lon="4.37165">
        <ele>1144.11</ele>
        <time>2024-04-04T09:21:22Z</time>
      </trkpt>
      <trkpt lat="45.08674" lon="4.3715">
        <ele>1146.51</ele>
        <time>2024-04-04T09:21:46Z</time>
      </trkpt>
      <trkpt lat="45.08643" lon="4.37145">
        <ele>1148.43</ele>
        <time>2024-04-04T09:22:06Z</time>
      </trkpt>
      <trkpt lat="45.08627" lon="4.37132">
        <ele>1145.07</ele>
        <time>2024-04-04T09:22:27Z</time>
      </trkpt>
      <trkpt lat="45.08597" lon="4.3711">
        <ele>1144.59</ele>
        <time>2024-04-04T09:22:46Z</time>
      </trkpt>
      <trkpt lat="45.08572" lon="4.37092">
        <ele>1144.11</ele>
        <time>2024-04-04T09:23:06Z</time>
      </trkpt>
      <trkpt lat="45.08558" lon="4.37081">
        <ele>1147.95</ele>
        <time>2024-04-04T09:23:25Z</time>
      </trkpt>
      <trkpt lat="45.08561" lon="4.37081">
        <ele>1150.35</ele>
        <time>2024-04-04T09:23:41Z</time>
      </trkpt>
      <trkpt lat="45.0856" lon="4.3708">
        <ele>1151.8</ele>
        <time>2024-04-04T09:23:55Z</time>
      </trkpt>
      <trkpt lat="45.08561" lon="4.3708">
        <ele>1151.8</ele>
        <time>2024-04-04T09:24:00Z</time>
      </trkpt>
      <trkpt lat="45.0856" lon="4.3708">
        <ele>1152.76</ele>
        <time>2024-04-04T09:24:12Z</time>
      </trkpt>
      <trkpt lat="45.0856" lon="4.37079">
        <ele>1154.2</ele>
        <time>2024-04-04T09:24:27Z</time>
      </trkpt>
      <trkpt lat="45.08559" lon="4.37078">
        <ele>1154.68</ele>
        <time>2024-04-04T09:24:42Z</time>
      </trkpt>
      <trkpt lat="45.08551" lon="4.37074">
        <ele>1155.16</ele>
        <time>2024-04-04T09:24:51Z</time>
      </trkpt>
      <trkpt lat="45.08547" lon="4.37072">
        <ele>1155.64</ele>
        <time>2024-04-04T09:24:57Z</time>
      </trkpt>
      <trkpt lat="45.08535" lon="4.37067">
        <ele>1158.05</ele>
        <time>2024-04-04T09:25:09Z</time>
      </trkpt>
      <trkpt lat="45.08535" lon="4.37067">
        <ele>1158.05</ele>
        <time>2024-04-04T09:25:10Z</time>
      </trkpt>
      <trkpt lat="45.08529" lon="4.37066">
        <ele>1158.53</ele>
        <time>2024-04-04T09:25:14Z</time>
      </trkpt>
      <trkpt lat="45.08512" lon="4.37073">
        <ele>1157.08</ele>
        <time>2024-04-04T09:25:25Z</time>
      </trkpt>
      <trkpt lat="45.08498" lon="4.37085">
        <ele>1153.72</ele>
        <time>2024-04-04T09:25:38Z</time>
      </trkpt>
      <trkpt lat="45.08489" lon="4.37092">
        <ele>1154.2</ele>
        <time>2024-04-04T09:25:48Z</time>
      </trkpt>
      <trkpt lat="45.08483" lon="4.37097">
        <ele>1153.72</ele>
        <time>2024-04-04T09:25:55Z</time>
      </trkpt>
      <trkpt lat="45.08473" lon="4.37103">
        <ele>1153.72</ele>
        <time>2024-04-04T09:26:06Z</time>
      </trkpt>
      <trkpt lat="45.08471" lon="4.37103">
        <ele>1154.2</ele>
        <time>2024-04-04T09:26:09Z</time>
      </trkpt>
      <trkpt lat="45.08457" lon="4.37103">
        <ele>1152.76</ele>
        <time>2024-04-04T09:26:18Z</time>
      </trkpt>
      <trkpt lat="45.08454" lon="4.37105">
        <ele>1153.72</ele>
        <time>2024-04-04T09:26:22Z</time>
      </trkpt>
      <trkpt lat="45.08439" lon="4.37108">
        <ele>1156.12</ele>
        <time>2024-04-04T09:26:34Z</time>
      </trkpt>
      <trkpt lat="45.08437" lon="4.37111">
        <ele>1155.64</ele>
        <time>2024-04-04T09:26:36Z</time>
      </trkpt>
      <trkpt lat="45.08427" lon="4.37117">
        <ele>1155.16</ele>
        <time>2024-04-04T09:26:44Z</time>
      </trkpt>
      <trkpt lat="45.08414" lon="4.37126">
        <ele>1153.24</ele>
        <time>2024-04-04T09:26:58Z</time>
      </trkpt>
      <trkpt lat="45.08412" lon="4.37127">
        <ele>1153.24</ele>
        <time>2024-04-04T09:27:00Z</time>
      </trkpt>
      <trkpt lat="45.08389" lon="4.37136">
        <ele>1154.68</ele>
        <time>2024-04-04T09:27:16Z</time>
      </trkpt>
      <trkpt lat="45.08374" lon="4.37157">
        <ele>1156.6</ele>
        <time>2024-04-04T09:27:35Z</time>
      </trkpt>
      <trkpt lat="45.08361" lon="4.3718">
        <ele>1156.12</ele>
        <time>2024-04-04T09:27:47Z</time>
      </trkpt>
      <trkpt lat="45.08354" lon="4.37185">
        <ele>1155.64</ele>
        <time>2024-04-04T09:27:52Z</time>
      </trkpt>
      <trkpt lat="45.08341" lon="4.37206">
        <ele>1154.68</ele>
        <time>2024-04-04T09:28:06Z</time>
      </trkpt>
      <trkpt lat="45.08328" lon="4.37221">
        <ele>1154.68</ele>
        <time>2024-04-04T09:28:17Z</time>
      </trkpt>
      <trkpt lat="45.08322" lon="4.3722">
        <ele>1153.72</ele>
        <time>2024-04-04T09:28:23Z</time>
      </trkpt>
      <trkpt lat="45.08307" lon="4.37233">
        <ele>1154.2</ele>
        <time>2024-04-04T09:28:38Z</time>
      </trkpt>
      <trkpt lat="45.08296" lon="4.37236">
        <ele>1154.68</ele>
        <time>2024-04-04T09:28:49Z</time>
      </trkpt>
      <trkpt lat="45.08294" lon="4.37235">
        <ele>1154.68</ele>
        <time>2024-04-04T09:28:50Z</time>
      </trkpt>
      <trkpt lat="45.0829" lon="4.37235">
        <ele>1155.16</ele>
        <time>2024-04-04T09:28:53Z</time>
      </trkpt>
      <trkpt lat="45.08277" lon="4.37244">
        <ele>1155.16</ele>
        <time>2024-04-04T09:29:05Z</time>
      </trkpt>
      <trkpt lat="45.0826" lon="4.37253">
        <ele>1152.76</ele>
        <time>2024-04-04T09:29:18Z</time>
      </trkpt>
      <trkpt lat="45.08243" lon="4.37258">
        <ele>1153.24</ele>
        <time>2024-04-04T09:29:32Z</time>
      </trkpt>
      <trkpt lat="45.08242" lon="4.37258">
        <ele>1153.72</ele>
        <time>2024-04-04T09:29:33Z</time>
      </trkpt>
      <trkpt lat="45.08238" lon="4.37255">
        <ele>1155.64</ele>
        <time>2024-04-04T09:29:37Z</time>
      </trkpt>
      <trkpt lat="45.08235" lon="4.37255">
        <ele>1156.12</ele>
        <time>2024-04-04T09:29:39Z</time>
      </trkpt>
      <trkpt lat="45.08217" lon="4.3725">
        <ele>1160.45</ele>
        <time>2024-04-04T09:29:54Z</time>
      </trkpt>
      <trkpt lat="45.08202" lon="4.37246">
        <ele>1162.37</ele>
        <time>2024-04-04T09:30:08Z</time>
      </trkpt>
      <trkpt lat="45.08201" lon="4.37246">
        <ele>1162.37</ele>
        <time>2024-04-04T09:30:09Z</time>
      </trkpt>
      <trkpt lat="45.08195" lon="4.37247">
        <ele>1161.89</ele>
        <time>2024-04-04T09:30:14Z</time>
      </trkpt>
      <trkpt lat="45.08179" lon="4.37253">
        <ele>1157.56</ele>
        <time>2024-04-04T09:30:26Z</time>
      </trkpt>
      <trkpt lat="45.0816" lon="4.37257">
        <ele>1153.24</ele>
        <time>2024-04-04T09:30:41Z</time>
      </trkpt>
      <trkpt lat="45.08142" lon="4.37254">
        <ele>1148.91</ele>
        <time>2024-04-04T09:30:54Z</time>
      </trkpt>
      <trkpt lat="45.08135" lon="4.37245">
        <ele>1146.51</ele>
        <time>2024-04-04T09:31:15Z</time>
      </trkpt>
      <trkpt lat="45.08134" lon="4.37244">
        <ele>1146.03</ele>
        <time>2024-04-04T09:31:36Z</time>
      </trkpt>
      <trkpt lat="45.08124" lon="4.37254">
        <ele>1144.59</ele>
        <time>2024-04-04T09:31:47Z</time>
      </trkpt>
      <trkpt lat="45.081" lon="4.37259">
        <ele>1141.22</ele>
        <time>2024-04-04T09:32:08Z</time>
      </trkpt>
      <trkpt lat="45.08072" lon="4.3726">
        <ele>1134.97</ele>
        <time>2024-04-04T09:32:28Z</time>
      </trkpt>
      <trkpt lat="45.08051" lon="4.37269">
        <ele>1128.73</ele>
        <time>2024-04-04T09:32:46Z</time>
      </trkpt>
      <trkpt lat="45.08031" lon="4.37274">
        <ele>1122.48</ele>
        <time>2024-04-04T09:33:02Z</time>
      </trkpt>
      <trkpt lat="45.08021" lon="4.37274">
        <ele>1120.07</ele>
        <time>2024-04-04T09:33:10Z</time>
      </trkpt>
      <trkpt lat="45.07996" lon="4.37276">
        <ele>1120.55</ele>
        <time>2024-04-04T09:33:27Z</time>
      </trkpt>
      <trkpt lat="45.07974" lon="4.37282">
        <ele>1116.71</ele>
        <time>2024-04-04T09:33:43Z</time>
      </trkpt>
      <trkpt lat="45.07961" lon="4.37284">
        <ele>1116.71</ele>
        <time>2024-04-04T09:33:59Z</time>
      </trkpt>
      <trkpt lat="45.07941" lon="4.3728">
        <ele>1119.59</ele>
        <time>2024-04-04T09:34:20Z</time>
      </trkpt>
      <trkpt lat="45.07937" lon="4.37283">
        <ele>1127.28</ele>
        <time>2024-04-04T09:34:32Z</time>
      </trkpt>
      <trkpt lat="45.07937" lon="4.37281">
        <ele>1127.28</ele>
        <time>2024-04-04T09:34:34Z</time>
      </trkpt>
      <trkpt lat="45.07933" lon="4.37277">
        <ele>1128.73</ele>
        <time>2024-04-04T09:34:47Z</time>
      </trkpt>
      <trkpt lat="45.07931" lon="4.37277">
        <ele>1130.17</ele>
        <time>2024-04-04T09:35:02Z</time>
      </trkpt>
      <trkpt lat="45.07927" lon="4.37273">
        <ele>1130.65</ele>
        <time>2024-04-04T09:35:15Z</time>
      </trkpt>
      <trkpt lat="45.07923" lon="4.37269">
        <ele>1130.65</ele>
        <time>2024-04-04T09:35:19Z</time>
      </trkpt>
      <trkpt lat="45.07912" lon="4.37259">
        <ele>1130.65</ele>
        <time>2024-04-04T09:35:28Z</time>
      </trkpt>
      <trkpt lat="45.0791" lon="4.37257">
        <ele>1131.13</ele>
        <time>2024-04-04T09:35:30Z</time>
      </trkpt>
      <trkpt lat="45.07905" lon="4.37252">
        <ele>1132.09</ele>
        <time>2024-04-04T09:35:35Z</time>
      </trkpt>
      <trkpt lat="45.07892" lon="4.3724">
        <ele>1134.01</ele>
        <time>2024-04-04T09:35:50Z</time>
      </trkpt>
      <trkpt lat="45.0788" lon="4.37229">
        <ele>1135.94</ele>
        <time>2024-04-04T09:35:59Z</time>
      </trkpt>
      <trkpt lat="45.07871" lon="4.37217">
        <ele>1139.3</ele>
        <time>2024-04-04T09:36:09Z</time>
      </trkpt>
      <trkpt lat="45.07865" lon="4.37206">
        <ele>1140.74</ele>
        <time>2024-04-04T09:36:18Z</time>
      </trkpt>
      <trkpt lat="45.07853" lon="4.37189">
        <ele>1141.7</ele>
        <time>2024-04-04T09:36:31Z</time>
      </trkpt>
      <trkpt lat="45.0784" lon="4.37174">
        <ele>1143.14</ele>
        <time>2024-04-04T09:36:42Z</time>
      </trkpt>
      <trkpt lat="45.07838" lon="4.37172">
        <ele>1143.63</ele>
        <time>2024-04-04T09:36:45Z</time>
      </trkpt>
      <trkpt lat="45.0783" lon="4.3716">
        <ele>1145.55</ele>
        <time>2024-04-04T09:36:55Z</time>
      </trkpt>
      <trkpt lat="45.07823" lon="4.37146">
        <ele>1146.99</ele>
        <time>2024-04-04T09:37:04Z</time>
      </trkpt>
      <trkpt lat="45.07809" lon="4.37133">
        <ele>1147.95</ele>
        <time>2024-04-04T09:37:13Z</time>
      </trkpt>
      <trkpt lat="45.07795" lon="4.37115">
        <ele>1151.8</ele>
        <time>2024-04-04T09:37:27Z</time>
      </trkpt>
      <trkpt lat="45.07784" lon="4.37102">
        <ele>1152.76</ele>
        <time>2024-04-04T09:37:39Z</time>
      </trkpt>
      <trkpt lat="45.07768" lon="4.37085">
        <ele>1152.28</ele>
        <time>2024-04-04T09:37:52Z</time>
      </trkpt>
      <trkpt lat="45.07754" lon="4.37073">
        <ele>1151.8</ele>
        <time>2024-04-04T09:38:05Z</time>
      </trkpt>
      <trkpt lat="45.07741" lon="4.37059">
        <ele>1154.68</ele>
        <time>2024-04-04T09:38:17Z</time>
      </trkpt>
      <trkpt lat="45.07728" lon="4.37048">
        <ele>1156.12</ele>
        <time>2024-04-04T09:38:29Z</time>
      </trkpt>
      <trkpt lat="45.07713" lon="4.37041">
        <ele>1155.64</ele>
        <time>2024-04-04T09:38:41Z</time>
      </trkpt>
      <trkpt lat="45.07713" lon="4.37041">
        <ele>1155.16</ele>
        <time>2024-04-04T09:38:42Z</time>
      </trkpt>
      <trkpt lat="45.07706" lon="4.3704">
        <ele>1153.24</ele>
        <time>2024-04-04T09:38:47Z</time>
      </trkpt>
      <trkpt lat="45.07694" lon="4.37038">
        <ele>1150.84</ele>
        <time>2024-04-04T09:39:06Z</time>
      </trkpt>
      <trkpt lat="45.07693" lon="4.37039">
        <ele>1150.35</ele>
        <time>2024-04-04T09:39:27Z</time>
      </trkpt>
      <trkpt lat="45.07693" lon="4.37038">
        <ele>1149.39</ele>
        <time>2024-04-04T09:39:47Z</time>
      </trkpt>
      <trkpt lat="45.07694" lon="4.37038">
        <ele>1148.91</ele>
        <time>2024-04-04T09:40:09Z</time>
      </trkpt>
      <trkpt lat="45.07694" lon="4.37038">
        <ele>1148.91</ele>
        <time>2024-04-04T09:40:38Z</time>
      </trkpt>
      <trkpt lat="45.07694" lon="4.37037">
        <ele>1149.39</ele>
        <time>2024-04-04T09:41:06Z</time>
      </trkpt>
      <trkpt lat="45.07687" lon="4.37037">
        <ele>1148.91</ele>
        <time>2024-04-04T09:41:26Z</time>
      </trkpt>
      <trkpt lat="45.07659" lon="4.37045">
        <ele>1148.91</ele>
        <time>2024-04-04T09:41:48Z</time>
      </trkpt>
      <trkpt lat="45.07636" lon="4.37053">
        <ele>1150.84</ele>
        <time>2024-04-04T09:42:06Z</time>
      </trkpt>
      <trkpt lat="45.07621" lon="4.37053">
        <ele>1151.8</ele>
        <time>2024-04-04T09:42:22Z</time>
      </trkpt>
      <trkpt lat="45.07592" lon="4.37063">
        <ele>1150.35</ele>
        <time>2024-04-04T09:42:42Z</time>
      </trkpt>
      <trkpt lat="45.0758" lon="4.37069">
        <ele>1148.43</ele>
        <time>2024-04-04T09:42:53Z</time>
      </trkpt>
      <trkpt lat="45.07551" lon="4.37086">
        <ele>1146.99</ele>
        <time>2024-04-04T09:43:13Z</time>
      </trkpt>
      <trkpt lat="45.07525" lon="4.37105">
        <ele>1146.03</ele>
        <time>2024-04-04T09:43:32Z</time>
      </trkpt>
      <trkpt lat="45.07498" lon="4.37126">
        <ele>1142.66</ele>
        <time>2024-04-04T09:43:55Z</time>
      </trkpt>
      <trkpt lat="45.07496" lon="4.3713">
        <ele>1142.66</ele>
        <time>2024-04-04T09:43:56Z</time>
      </trkpt>
      <trkpt lat="45.07481" lon="4.37143">
        <ele>1140.74</ele>
        <time>2024-04-04T09:44:08Z</time>
      </trkpt>
      <trkpt lat="45.07474" lon="4.37145">
        <ele>1140.26</ele>
        <time>2024-04-04T09:44:14Z</time>
      </trkpt>
      <trkpt lat="45.07458" lon="4.37151">
        <ele>1135.94</ele>
        <time>2024-04-04T09:44:33Z</time>
      </trkpt>
      <trkpt lat="45.07461" lon="4.3715">
        <ele>1134.49</ele>
        <time>2024-04-04T09:44:50Z</time>
      </trkpt>
      <trkpt lat="45.07451" lon="4.37146">
        <ele>1133.05</ele>
        <time>2024-04-04T09:45:11Z</time>
      </trkpt>
      <trkpt lat="45.07436" lon="4.37135">
        <ele>1130.65</ele>
        <time>2024-04-04T09:45:31Z</time>
      </trkpt>
      <trkpt lat="45.07438" lon="4.37136">
        <ele>1131.13</ele>
        <time>2024-04-04T09:45:54Z</time>
      </trkpt>
      <trkpt lat="45.07433" lon="4.37137">
        <ele>1133.53</ele>
        <time>2024-04-04T09:46:13Z</time>
      </trkpt>
      <trkpt lat="45.07433" lon="4.37135">
        <ele>1134.49</ele>
        <time>2024-04-04T09:46:31Z</time>
      </trkpt>
      <trkpt lat="45.0742" lon="4.37142">
        <ele>1130.65</ele>
        <time>2024-04-04T09:46:46Z</time>
      </trkpt>
      <trkpt lat="45.07411" lon="4.37152">
        <ele>1128.73</ele>
        <time>2024-04-04T09:47:02Z</time>
      </trkpt>
      <trkpt lat="45.07404" lon="4.3716">
        <ele>1126.8</ele>
        <time>2024-04-04T09:47:13Z</time>
      </trkpt>
      <trkpt lat="45.07403" lon="4.37159">
        <ele>1125.84</ele>
        <time>2024-04-04T09:47:32Z</time>
      </trkpt>
      <trkpt lat="45.07401" lon="4.37164">
        <ele>1125.84</ele>
        <time>2024-04-04T09:47:53Z</time>
      </trkpt>
      <trkpt lat="45.07399" lon="4.37185">
        <ele>1123.44</ele>
        <time>2024-04-04T09:48:15Z</time>
      </trkpt>
      <trkpt lat="45.07399" lon="4.37188">
        <ele>1122.96</ele>
        <time>2024-04-04T09:48:17Z</time>
      </trkpt>
      <trkpt lat="45.07385" lon="4.37209">
        <ele>1121.52</ele>
        <time>2024-04-04T09:48:35Z</time>
      </trkpt>
      <trkpt lat="45.07382" lon="4.37213">
        <ele>1121.52</ele>
        <time>2024-04-04T09:48:44Z</time>
      </trkpt>
      <trkpt lat="45.07354" lon="4.37223">
        <ele>1119.11</ele>
        <time>2024-04-04T09:49:06Z</time>
      </trkpt>
      <trkpt lat="45.07334" lon="4.37221">
        <ele>1117.19</ele>
        <time>2024-04-04T09:49:25Z</time>
      </trkpt>
      <trkpt lat="45.07311" lon="4.37222">
        <ele>1117.19</ele>
        <time>2024-04-04T09:49:43Z</time>
      </trkpt>
      <trkpt lat="45.07293" lon="4.37225">
        <ele>1119.11</ele>
        <time>2024-04-04T09:49:56Z</time>
      </trkpt>
      <trkpt lat="45.07278" lon="4.37222">
        <ele>1119.11</ele>
        <time>2024-04-04T09:50:07Z</time>
      </trkpt>
      <trkpt lat="45.07263" lon="4.37219">
        <ele>1117.19</ele>
        <time>2024-04-04T09:50:19Z</time>
      </trkpt>
      <trkpt lat="45.07254" lon="4.37229">
        <ele>1115.75</ele>
        <time>2024-04-04T09:50:33Z</time>
      </trkpt>
      <trkpt lat="45.07253" lon="4.37233">
        <ele>1115.27</ele>
        <time>2024-04-04T09:50:37Z</time>
      </trkpt>
      <trkpt lat="45.0725" lon="4.37253">
        <ele>1114.79</ele>
        <time>2024-04-04T09:50:48Z</time>
      </trkpt>
      <trkpt lat="45.07243" lon="4.37293">
        <ele>1113.82</ele>
        <time>2024-04-04T09:51:12Z</time>
      </trkpt>
      <trkpt lat="45.0723" lon="4.37333">
        <ele>1111.42</ele>
        <time>2024-04-04T09:51:36Z</time>
      </trkpt>
      <trkpt lat="45.07214" lon="4.3736">
        <ele>1113.34</ele>
        <time>2024-04-04T09:51:58Z</time>
      </trkpt>
      <trkpt lat="45.07199" lon="4.37378">
        <ele>1118.63</ele>
        <time>2024-04-04T09:52:13Z</time>
      </trkpt>
      <trkpt lat="45.07199" lon="4.37383">
        <ele>1119.59</ele>
        <time>2024-04-04T09:52:23Z</time>
      </trkpt>
      <trkpt lat="45.07216" lon="4.37393">
        <ele>1122</ele>
        <time>2024-04-04T09:52:44Z</time>
      </trkpt>
      <trkpt lat="45.0724" lon="4.3741">
        <ele>1125.84</ele>
        <time>2024-04-04T09:53:03Z</time>
      </trkpt>
      <trkpt lat="45.07248" lon="4.37419">
        <ele>1128.24</ele>
        <time>2024-04-04T09:53:13Z</time>
      </trkpt>
      <trkpt lat="45.07254" lon="4.37422">
        <ele>1127.28</ele>
        <time>2024-04-04T09:53:17Z</time>
      </trkpt>
      <trkpt lat="45.07259" lon="4.37427">
        <ele>1126.8</ele>
        <time>2024-04-04T09:53:21Z</time>
      </trkpt>
      <trkpt lat="45.07265" lon="4.37439">
        <ele>1126.8</ele>
        <time>2024-04-04T09:53:33Z</time>
      </trkpt>
      <trkpt lat="45.07261" lon="4.37442">
        <ele>1127.76</ele>
        <time>2024-04-04T09:53:37Z</time>
      </trkpt>
      <trkpt lat="45.07257" lon="4.37443">
        <ele>1128.24</ele>
        <time>2024-04-04T09:53:41Z</time>
      </trkpt>
      <trkpt lat="45.07253" lon="4.37445">
        <ele>1128.73</ele>
        <time>2024-04-04T09:53:44Z</time>
      </trkpt>
      <trkpt lat="45.07234" lon="4.37455">
        <ele>1133.05</ele>
        <time>2024-04-04T09:53:58Z</time>
      </trkpt>
      <trkpt lat="45.07221" lon="4.37469">
        <ele>1140.26</ele>
        <time>2024-04-04T09:54:11Z</time>
      </trkpt>
      <trkpt lat="45.07204" lon="4.37476">
        <ele>1137.86</ele>
        <time>2024-04-04T09:54:26Z</time>
      </trkpt>
      <trkpt lat="45.07187" lon="4.37483">
        <ele>1136.42</ele>
        <time>2024-04-04T09:54:38Z</time>
      </trkpt>
      <trkpt lat="45.07161" lon="4.37471">
        <ele>1134.97</ele>
        <time>2024-04-04T09:54:53Z</time>
      </trkpt>
      <trkpt lat="45.07156" lon="4.37462">
        <ele>1131.61</ele>
        <time>2024-04-04T09:55:00Z</time>
      </trkpt>
      <trkpt lat="45.07146" lon="4.3744">
        <ele>1133.05</ele>
        <time>2024-04-04T09:55:13Z</time>
      </trkpt>
      <trkpt lat="45.07134" lon="4.37432">
        <ele>1134.97</ele>
        <time>2024-04-04T09:55:24Z</time>
      </trkpt>
      <trkpt lat="45.07128" lon="4.37437">
        <ele>1134.97</ele>
        <time>2024-04-04T09:55:30Z</time>
      </trkpt>
      <trkpt lat="45.07128" lon="4.37442">
        <ele>1135.45</ele>
        <time>2024-04-04T09:55:35Z</time>
      </trkpt>
      <trkpt lat="45.07128" lon="4.37466">
        <ele>1138.82</ele>
        <time>2024-04-04T09:55:48Z</time>
      </trkpt>
      <trkpt lat="45.07128" lon="4.37471">
        <ele>1138.82</ele>
        <time>2024-04-04T09:55:51Z</time>
      </trkpt>
      <trkpt lat="45.0713" lon="4.37478">
        <ele>1138.82</ele>
        <time>2024-04-04T09:55:55Z</time>
      </trkpt>
      <trkpt lat="45.07129" lon="4.37487">
        <ele>1140.26</ele>
        <time>2024-04-04T09:55:59Z</time>
      </trkpt>
      <trkpt lat="45.07126" lon="4.37496">
        <ele>1141.22</ele>
        <time>2024-04-04T09:56:04Z</time>
      </trkpt>
      <trkpt lat="45.07128" lon="4.37499">
        <ele>1141.22</ele>
        <time>2024-04-04T09:56:06Z</time>
      </trkpt>
      <trkpt lat="45.07123" lon="4.37518">
        <ele>1140.74</ele>
        <time>2024-04-04T09:56:16Z</time>
      </trkpt>
      <trkpt lat="45.07121" lon="4.37522">
        <ele>1140.74</ele>
        <time>2024-04-04T09:56:19Z</time>
      </trkpt>
      <trkpt lat="45.0712" lon="4.37529">
        <ele>1140.74</ele>
        <time>2024-04-04T09:56:22Z</time>
      </trkpt>
      <trkpt lat="45.07117" lon="4.37547">
        <ele>1141.7</ele>
        <time>2024-04-04T09:56:34Z</time>
      </trkpt>
      <trkpt lat="45.07114" lon="4.37557">
        <ele>1141.7</ele>
        <time>2024-04-04T09:56:41Z</time>
      </trkpt>
      <trkpt lat="45.07106" lon="4.37579">
        <ele>1142.18</ele>
        <time>2024-04-04T09:56:52Z</time>
      </trkpt>
      <trkpt lat="45.071" lon="4.37596">
        <ele>1143.63</ele>
        <time>2024-04-04T09:57:01Z</time>
      </trkpt>
      <trkpt lat="45.07099" lon="4.37597">
        <ele>1143.63</ele>
        <time>2024-04-04T09:57:02Z</time>
      </trkpt>
      <trkpt lat="45.07097" lon="4.37617">
        <ele>1146.99</ele>
        <time>2024-04-04T09:57:13Z</time>
      </trkpt>
      <trkpt lat="45.07096" lon="4.37619">
        <ele>1146.99</ele>
        <time>2024-04-04T09:57:14Z</time>
      </trkpt>
      <trkpt lat="45.0709" lon="4.37636">
        <ele>1147.47</ele>
        <time>2024-04-04T09:57:25Z</time>
      </trkpt>
      <trkpt lat="45.0709" lon="4.37636">
        <ele>1147.47</ele>
        <time>2024-04-04T09:57:26Z</time>
      </trkpt>
      <trkpt lat="45.07086" lon="4.37649">
        <ele>1148.43</ele>
        <time>2024-04-04T09:57:37Z</time>
      </trkpt>
      <trkpt lat="45.07085" lon="4.37663">
        <ele>1148.91</ele>
        <time>2024-04-04T09:57:45Z</time>
      </trkpt>
      <trkpt lat="45.07088" lon="4.37683">
        <ele>1147.95</ele>
        <time>2024-04-04T09:57:56Z</time>
      </trkpt>
      <trkpt lat="45.07089" lon="4.37699">
        <ele>1148.43</ele>
        <time>2024-04-04T09:58:09Z</time>
      </trkpt>
      <trkpt lat="45.07089" lon="4.37704">
        <ele>1147.95</ele>
        <time>2024-04-04T09:58:19Z</time>
      </trkpt>
      <trkpt lat="45.07091" lon="4.37712">
        <ele>1148.43</ele>
        <time>2024-04-04T09:58:31Z</time>
      </trkpt>
      <trkpt lat="45.07089" lon="4.37723">
        <ele>1150.35</ele>
        <time>2024-04-04T09:58:37Z</time>
      </trkpt>
      <trkpt lat="45.07093" lon="4.37767">
        <ele>1151.8</ele>
        <time>2024-04-04T09:58:53Z</time>
      </trkpt>
      <trkpt lat="45.07101" lon="4.37799">
        <ele>1149.87</ele>
        <time>2024-04-04T09:59:04Z</time>
      </trkpt>
      <trkpt lat="45.07098" lon="4.37813">
        <ele>1147.95</ele>
        <time>2024-04-04T09:59:16Z</time>
      </trkpt>
      <trkpt lat="45.07101" lon="4.3782">
        <ele>1147.47</ele>
        <time>2024-04-04T09:59:19Z</time>
      </trkpt>
      <trkpt lat="45.07107" lon="4.37843">
        <ele>1147.95</ele>
        <time>2024-04-04T09:59:32Z</time>
      </trkpt>
      <trkpt lat="45.07108" lon="4.37863">
        <ele>1146.51</ele>
        <time>2024-04-04T09:59:43Z</time>
      </trkpt>
      <trkpt lat="45.07106" lon="4.37886">
        <ele>1145.07</ele>
        <time>2024-04-04T09:59:54Z</time>
      </trkpt>
      <trkpt lat="45.07101" lon="4.37902">
        <ele>1143.63</ele>
        <time>2024-04-04T10:00:08Z</time>
      </trkpt>
      <trkpt lat="45.07087" lon="4.37924">
        <ele>1139.78</ele>
        <time>2024-04-04T10:00:23Z</time>
      </trkpt>
      <trkpt lat="45.07071" lon="4.37942">
        <ele>1139.3</ele>
        <time>2024-04-04T10:00:37Z</time>
      </trkpt>
      <trkpt lat="45.07056" lon="4.37962">
        <ele>1142.66</ele>
        <time>2024-04-04T10:00:54Z</time>
      </trkpt>
      <trkpt lat="45.07046" lon="4.3798">
        <ele>1146.03</ele>
        <time>2024-04-04T10:01:09Z</time>
      </trkpt>
      <trkpt lat="45.07036" lon="4.3801">
        <ele>1147.47</ele>
        <time>2024-04-04T10:01:25Z</time>
      </trkpt>
      <trkpt lat="45.07035" lon="4.38026">
        <ele>1150.35</ele>
        <time>2024-04-04T10:01:35Z</time>
      </trkpt>
      <trkpt lat="45.07023" lon="4.38058">
        <ele>1155.64</ele>
        <time>2024-04-04T10:01:51Z</time>
      </trkpt>
      <trkpt lat="45.07016" lon="4.38073">
        <ele>1156.6</ele>
        <time>2024-04-04T10:02:02Z</time>
      </trkpt>
      <trkpt lat="45.0701" lon="4.38082">
        <ele>1155.16</ele>
        <time>2024-04-04T10:02:09Z</time>
      </trkpt>
      <trkpt lat="45.07001" lon="4.38103">
        <ele>1155.16</ele>
        <time>2024-04-04T10:02:21Z</time>
      </trkpt>
      <trkpt lat="45.06993" lon="4.38123">
        <ele>1154.2</ele>
        <time>2024-04-04T10:02:36Z</time>
      </trkpt>
      <trkpt lat="45.06986" lon="4.38131">
        <ele>1153.72</ele>
        <time>2024-04-04T10:02:48Z</time>
      </trkpt>
      <trkpt lat="45.06973" lon="4.38144">
        <ele>1154.2</ele>
        <time>2024-04-04T10:02:59Z</time>
      </trkpt>
      <trkpt lat="45.06958" lon="4.38161">
        <ele>1154.2</ele>
        <time>2024-04-04T10:03:11Z</time>
      </trkpt>
      <trkpt lat="45.06948" lon="4.38169">
        <ele>1153.72</ele>
        <time>2024-04-04T10:03:22Z</time>
      </trkpt>
      <trkpt lat="45.06928" lon="4.3819">
        <ele>1151.8</ele>
        <time>2024-04-04T10:03:34Z</time>
      </trkpt>
      <trkpt lat="45.06915" lon="4.38204">
        <ele>1151.8</ele>
        <time>2024-04-04T10:03:45Z</time>
      </trkpt>
      <trkpt lat="45.06902" lon="4.38221">
        <ele>1148.43</ele>
        <time>2024-04-04T10:03:59Z</time>
      </trkpt>
      <trkpt lat="45.0689" lon="4.38239">
        <ele>1149.87</ele>
        <time>2024-04-04T10:04:10Z</time>
      </trkpt>
      <trkpt lat="45.06881" lon="4.38259">
        <ele>1150.35</ele>
        <time>2024-04-04T10:04:21Z</time>
      </trkpt>
      <trkpt lat="45.0687" lon="4.38277">
        <ele>1151.32</ele>
        <time>2024-04-04T10:04:33Z</time>
      </trkpt>
      <trkpt lat="45.0687" lon="4.38277">
        <ele>1151.32</ele>
        <time>2024-04-04T10:04:34Z</time>
      </trkpt>
      <trkpt lat="45.06864" lon="4.38286">
        <ele>1149.87</ele>
        <time>2024-04-04T10:04:39Z</time>
      </trkpt>
      <trkpt lat="45.06849" lon="4.38301">
        <ele>1148.43</ele>
        <time>2024-04-04T10:04:50Z</time>
      </trkpt>
      <trkpt lat="45.06836" lon="4.38317">
        <ele>1149.39</ele>
        <time>2024-04-04T10:05:00Z</time>
      </trkpt>
      <trkpt lat="45.06832" lon="4.38324">
        <ele>1150.35</ele>
        <time>2024-04-04T10:05:09Z</time>
      </trkpt>
      <trkpt lat="45.06818" lon="4.38346">
        <ele>1151.8</ele>
        <time>2024-04-04T10:05:23Z</time>
      </trkpt>
      <trkpt lat="45.06813" lon="4.38356">
        <ele>1152.28</ele>
        <time>2024-04-04T10:05:30Z</time>
      </trkpt>
      <trkpt lat="45.06808" lon="4.38362">
        <ele>1152.28</ele>
        <time>2024-04-04T10:05:36Z</time>
      </trkpt>
      <trkpt lat="45.06802" lon="4.38369">
        <ele>1152.28</ele>
        <time>2024-04-04T10:05:44Z</time>
      </trkpt>
      <trkpt lat="45.06797" lon="4.38382">
        <ele>1149.39</ele>
        <time>2024-04-04T10:05:52Z</time>
      </trkpt>
      <trkpt lat="45.06796" lon="4.38408">
        <ele>1144.59</ele>
        <time>2024-04-04T10:06:06Z</time>
      </trkpt>
      <trkpt lat="45.06794" lon="4.38418">
        <ele>1142.18</ele>
        <time>2024-04-04T10:06:19Z</time>
      </trkpt>
      <trkpt lat="45.06782" lon="4.38407">
        <ele>1137.38</ele>
        <time>2024-04-04T10:06:34Z</time>
      </trkpt>
      <trkpt lat="45.06772" lon="4.38407">
        <ele>1137.86</ele>
        <time>2024-04-04T10:06:52Z</time>
      </trkpt>
      <trkpt lat="45.06776" lon="4.3841">
        <ele>1137.86</ele>
        <time>2024-04-04T10:07:15Z</time>
      </trkpt>
      <trkpt lat="45.0678" lon="4.3841">
        <ele>1138.34</ele>
        <time>2024-04-04T10:07:36Z</time>
      </trkpt>
      <trkpt lat="45.0678" lon="4.38412">
        <ele>1138.82</ele>
        <time>2024-04-04T10:07:55Z</time>
      </trkpt>
      <trkpt lat="45.06782" lon="4.3841">
        <ele>1138.82</ele>
        <time>2024-04-04T10:08:18Z</time>
      </trkpt>
      <trkpt lat="45.06783" lon="4.3841">
        <ele>1138.34</ele>
        <time>2024-04-04T10:08:40Z</time>
      </trkpt>
      <trkpt lat="45.06783" lon="4.3841">
        <ele>1137.86</ele>
        <time>2024-04-04T10:09:03Z</time>
      </trkpt>
      <trkpt lat="45.06782" lon="4.38409">
        <ele>1137.86</ele>
        <time>2024-04-04T10:09:28Z</time>
      </trkpt>
      <trkpt lat="45.06782" lon="4.38408">
        <ele>1137.38</ele>
        <time>2024-04-04T10:09:55Z</time>
      </trkpt>
      <trkpt lat="45.06782" lon="4.38408">
        <ele>1137.38</ele>
        <time>2024-04-04T10:10:21Z</time>
      </trkpt>
      <trkpt lat="45.06781" lon="4.38408">
        <ele>1137.38</ele>
        <time>2024-04-04T10:10:46Z</time>
      </trkpt>
      <trkpt lat="45.06781" lon="4.38408">
        <ele>1136.9</ele>
        <time>2024-04-04T10:11:16Z</time>
      </trkpt>
      <trkpt lat="45.0678" lon="4.38407">
        <ele>1135.94</ele>
        <time>2024-04-04T10:11:38Z</time>
      </trkpt>
      <trkpt lat="45.06782" lon="4.38406">
        <ele>1135.45</ele>
        <time>2024-04-04T10:11:59Z</time>
      </trkpt>
      <trkpt lat="45.06783" lon="4.38407">
        <ele>1134.01</ele>
        <time>2024-04-04T10:12:20Z</time>
      </trkpt>
      <trkpt lat="45.06783" lon="4.38405">
        <ele>1133.53</ele>
        <time>2024-04-04T10:12:44Z</time>
      </trkpt>
      <trkpt lat="45.06782" lon="4.38406">
        <ele>1133.53</ele>
        <time>2024-04-04T10:13:06Z</time>
      </trkpt>
      <trkpt lat="45.06784" lon="4.38404">
        <ele>1134.97</ele>
        <time>2024-04-04T10:13:28Z</time>
      </trkpt>
      <trkpt lat="45.06783" lon="4.38406">
        <ele>1134.01</ele>
        <time>2024-04-04T10:13:51Z</time>
      </trkpt>
      <trkpt lat="45.06784" lon="4.38406">
        <ele>1134.49</ele>
        <time>2024-04-04T10:14:12Z</time>
      </trkpt>
      <trkpt lat="45.06782" lon="4.38405">
        <ele>1134.97</ele>
        <time>2024-04-04T10:14:32Z</time>
      </trkpt>
      <trkpt lat="45.06781" lon="4.38405">
        <ele>1134.97</ele>
        <time>2024-04-04T10:14:56Z</time>
      </trkpt>
      <trkpt lat="45.06784" lon="4.38402">
        <ele>1133.05</ele>
        <time>2024-04-04T10:15:18Z</time>
      </trkpt>
      <trkpt lat="45.06783" lon="4.38407">
        <ele>1131.61</ele>
        <time>2024-04-04T10:15:35Z</time>
      </trkpt>
      <trkpt lat="45.06783" lon="4.38407">
        <ele>1132.57</ele>
        <time>2024-04-04T10:16:00Z</time>
      </trkpt>
      <trkpt lat="45.06782" lon="4.38406">
        <ele>1133.05</ele>
        <time>2024-04-04T10:16:27Z</time>
      </trkpt>
      <trkpt lat="45.06782" lon="4.38406">
        <ele>1133.05</ele>
        <time>2024-04-04T10:16:52Z</time>
      </trkpt>
      <trkpt lat="45.06782" lon="4.38404">
        <ele>1132.57</ele>
        <time>2024-04-04T10:17:18Z</time>
      </trkpt>
      <trkpt lat="45.06782" lon="4.38404">
        <ele>1132.09</ele>
        <time>2024-04-04T10:17:45Z</time>
      </trkpt>
      <trkpt lat="45.06782" lon="4.38403">
        <ele>1131.61</ele>
        <time>2024-04-04T10:18:09Z</time>
      </trkpt>
      <trkpt lat="45.06783" lon="4.38403">
        <ele>1131.13</ele>
        <time>2024-04-04T10:18:33Z</time>
      </trkpt>
      <trkpt lat="45.06783" lon="4.38403">
        <ele>1130.65</ele>
        <time>2024-04-04T10:18:58Z</time>
      </trkpt>
      <trkpt lat="45.06783" lon="4.38402">
        <ele>1131.13</ele>
        <time>2024-04-04T10:19:19Z</time>
      </trkpt>
      <trkpt lat="45.06783" lon="4.38402">
        <ele>1131.61</ele>
        <time>2024-04-04T10:19:42Z</time>
      </trkpt>
      <trkpt lat="45.06783" lon="4.38401">
        <ele>1132.09</ele>
        <time>2024-04-04T10:20:04Z</time>
      </trkpt>
      <trkpt lat="45.06782" lon="4.38402">
        <ele>1132.57</ele>
        <time>2024-04-04T10:20:21Z</time>
      </trkpt>
      <trkpt lat="45.06783" lon="4.38402">
        <ele>1134.01</ele>
        <time>2024-04-04T10:20:46Z</time>
      </trkpt>
      <trkpt lat="45.06783" lon="4.38402">
        <ele>1134.49</ele>
        <time>2024-04-04T10:21:03Z</time>
      </trkpt>
      <trkpt lat="45.06783" lon="4.38403">
        <ele>1134.97</ele>
        <time>2024-04-04T10:21:29Z</time>
      </trkpt>
      <trkpt lat="45.06783" lon="4.38405">
        <ele>1136.42</ele>
        <time>2024-04-04T10:21:44Z</time>
      </trkpt>
      <trkpt lat="45.06783" lon="4.38406">
        <ele>1136.42</ele>
        <time>2024-04-04T10:22:05Z</time>
      </trkpt>
      <trkpt lat="45.06788" lon="4.38418">
        <ele>1137.38</ele>
        <time>2024-04-04T10:22:29Z</time>
      </trkpt>
      <trkpt lat="45.06789" lon="4.38427">
        <ele>1137.38</ele>
        <time>2024-04-04T10:22:42Z</time>
      </trkpt>
      <trkpt lat="45.06794" lon="4.38454">
        <ele>1138.34</ele>
        <time>2024-04-04T10:23:01Z</time>
      </trkpt>
      <trkpt lat="45.06795" lon="4.38459">
        <ele>1139.78</ele>
        <time>2024-04-04T10:23:05Z</time>
      </trkpt>
      <trkpt lat="45.06791" lon="4.38477">
        <ele>1141.22</ele>
        <time>2024-04-04T10:23:18Z</time>
      </trkpt>
      <trkpt lat="45.06787" lon="4.38501">
        <ele>1138.82</ele>
        <time>2024-04-04T10:23:33Z</time>
      </trkpt>
      <trkpt lat="45.0679" lon="4.38523">
        <ele>1136.9</ele>
        <time>2024-04-04T10:23:46Z</time>
      </trkpt>
      <trkpt lat="45.06797" lon="4.38543">
        <ele>1136.9</ele>
        <time>2024-04-04T10:23:58Z</time>
      </trkpt>
      <trkpt lat="45.06808" lon="4.38566">
        <ele>1138.34</ele>
        <time>2024-04-04T10:24:14Z</time>
      </trkpt>
      <trkpt lat="45.06812" lon="4.38583">
        <ele>1139.3</ele>
        <time>2024-04-04T10:24:24Z</time>
      </trkpt>
      <trkpt lat="45.06805" lon="4.38616">
        <ele>1138.34</ele>
        <time>2024-04-04T10:24:40Z</time>
      </trkpt>
      <trkpt lat="45.06796" lon="4.3864">
        <ele>1136.9</ele>
        <time>2024-04-04T10:24:55Z</time>
      </trkpt>
      <trkpt lat="45.06787" lon="4.38663">
        <ele>1137.86</ele>
        <time>2024-04-04T10:25:08Z</time>
      </trkpt>
      <trkpt lat="45.06786" lon="4.38685">
        <ele>1140.26</ele>
        <time>2024-04-04T10:25:22Z</time>
      </trkpt>
      <trkpt lat="45.06788" lon="4.38706">
        <ele>1144.59</ele>
        <time>2024-04-04T10:25:35Z</time>
      </trkpt>
      <trkpt lat="45.06792" lon="4.38718">
        <ele>1145.07</ele>
        <time>2024-04-04T10:25:49Z</time>
      </trkpt>
      <trkpt lat="45.06795" lon="4.38728">
        <ele>1146.51</ele>
        <time>2024-04-04T10:25:55Z</time>
      </trkpt>
      <trkpt lat="45.06798" lon="4.38742">
        <ele>1147.47</ele>
        <time>2024-04-04T10:26:03Z</time>
      </trkpt>
      <trkpt lat="45.06802" lon="4.38746">
        <ele>1147.47</ele>
        <time>2024-04-04T10:26:07Z</time>
      </trkpt>
      <trkpt lat="45.06803" lon="4.38754">
        <ele>1148.43</ele>
        <time>2024-04-04T10:26:14Z</time>
      </trkpt>
      <trkpt lat="45.06802" lon="4.38761">
        <ele>1149.87</ele>
        <time>2024-04-04T10:26:20Z</time>
      </trkpt>
      <trkpt lat="45.06809" lon="4.38777">
        <ele>1149.39</ele>
        <time>2024-04-04T10:26:29Z</time>
      </trkpt>
      <trkpt lat="45.06817" lon="4.3878">
        <ele>1149.87</ele>
        <time>2024-04-04T10:26:36Z</time>
      </trkpt>
      <trkpt lat="45.06828" lon="4.38775">
        <ele>1149.87</ele>
        <time>2024-04-04T10:26:48Z</time>
      </trkpt>
      <trkpt lat="45.06838" lon="4.38773">
        <ele>1149.39</ele>
        <time>2024-04-04T10:26:57Z</time>
      </trkpt>
      <trkpt lat="45.06845" lon="4.38773">
        <ele>1149.39</ele>
        <time>2024-04-04T10:27:07Z</time>
      </trkpt>
      <trkpt lat="45.06862" lon="4.38771">
        <ele>1149.87</ele>
        <time>2024-04-04T10:27:20Z</time>
      </trkpt>
      <trkpt lat="45.06875" lon="4.38777">
        <ele>1150.35</ele>
        <time>2024-04-04T10:27:32Z</time>
      </trkpt>
      <trkpt lat="45.06876" lon="4.38775">
        <ele>1151.8</ele>
        <time>2024-04-04T10:27:45Z</time>
      </trkpt>
      <trkpt lat="45.06875" lon="4.38772">
        <ele>1152.76</ele>
        <time>2024-04-04T10:27:54Z</time>
      </trkpt>
      <trkpt lat="45.06879" lon="4.38771">
        <ele>1154.2</ele>
        <time>2024-04-04T10:28:06Z</time>
      </trkpt>
      <trkpt lat="45.0688" lon="4.38771">
        <ele>1154.2</ele>
        <time>2024-04-04T10:28:07Z</time>
      </trkpt>
      <trkpt lat="45.06882" lon="4.38768">
        <ele>1154.68</ele>
        <time>2024-04-04T10:28:09Z</time>
      </trkpt>
      <trkpt lat="45.06896" lon="4.38762">
        <ele>1155.64</ele>
        <time>2024-04-04T10:28:21Z</time>
      </trkpt>
      <trkpt lat="45.06911" lon="4.38759">
        <ele>1154.68</ele>
        <time>2024-04-04T10:28:32Z</time>
      </trkpt>
      <trkpt lat="45.0692" lon="4.38748">
        <ele>1156.12</ele>
        <time>2024-04-04T10:28:42Z</time>
      </trkpt>
      <trkpt lat="45.06921" lon="4.38764">
        <ele>1154.2</ele>
        <time>2024-04-04T10:28:59Z</time>
      </trkpt>
      <trkpt lat="45.06921" lon="4.38769">
        <ele>1154.2</ele>
        <time>2024-04-04T10:29:18Z</time>
      </trkpt>
      <trkpt lat="45.06898" lon="4.38755">
        <ele>1154.2</ele>
        <time>2024-04-04T10:30:38Z</time>
      </trkpt>
      <trkpt lat="45.06877" lon="4.3875">
        <ele>1155.64</ele>
        <time>2024-04-04T10:31:12Z</time>
      </trkpt>
      <trkpt lat="45.06881" lon="4.3875">
        <ele>1154.68</ele>
        <time>2024-04-04T10:31:42Z</time>
      </trkpt>
      <trkpt lat="45.06927" lon="4.3877">
        <ele>1141.22</ele>
        <time>2024-04-04T10:32:11Z</time>
      </trkpt>
      <trkpt lat="45.06928" lon="4.38766">
        <ele>1140.74</ele>
        <time>2024-04-04T10:32:39Z</time>
      </trkpt>
      <trkpt lat="45.06928" lon="4.38766">
        <ele>1142.66</ele>
        <time>2024-04-04T10:33:06Z</time>
      </trkpt>
      <trkpt lat="45.06926" lon="4.38765">
        <ele>1142.66</ele>
        <time>2024-04-04T10:33:08Z</time>
      </trkpt>
      <trkpt lat="45.06913" lon="4.38758">
        <ele>1143.14</ele>
        <time>2024-04-04T10:33:32Z</time>
      </trkpt>
      <trkpt lat="45.06916" lon="4.38757">
        <ele>1144.11</ele>
        <time>2024-04-04T10:33:54Z</time>
      </trkpt>
      <trkpt lat="45.06921" lon="4.38759">
        <ele>1144.11</ele>
        <time>2024-04-04T10:34:19Z</time>
      </trkpt>
      <trkpt lat="45.06924" lon="4.3876">
        <ele>1144.11</ele>
        <time>2024-04-04T10:34:44Z</time>
      </trkpt>
      <trkpt lat="45.06909" lon="4.38757">
        <ele>1144.59</ele>
        <time>2024-04-04T10:35:01Z</time>
      </trkpt>
      <trkpt lat="45.06923" lon="4.38775">
        <ele>1145.55</ele>
        <time>2024-04-04T10:38:49Z</time>
      </trkpt>
      <trkpt lat="45.06933" lon="4.38779">
        <ele>1147.47</ele>
        <time>2024-04-04T10:39:17Z</time>
      </trkpt>
      <trkpt lat="45.06938" lon="4.38778">
        <ele>1144.11</ele>
        <time>2024-04-04T10:39:46Z</time>
      </trkpt>
      <trkpt lat="45.0694" lon="4.38776">
        <ele>1145.07</ele>
        <time>2024-04-04T10:40:10Z</time>
      </trkpt>
      <trkpt lat="45.0694" lon="4.3879">
        <ele>1144.59</ele>
        <time>2024-04-04T10:40:39Z</time>
      </trkpt>
      <trkpt lat="45.06942" lon="4.38779">
        <ele>1146.03</ele>
        <time>2024-04-04T10:41:02Z</time>
      </trkpt>
      <trkpt lat="45.06939" lon="4.38774">
        <ele>1146.51</ele>
        <time>2024-04-04T10:41:26Z</time>
      </trkpt>
      <trkpt lat="45.06935" lon="4.38771">
        <ele>1144.59</ele>
        <time>2024-04-04T10:41:54Z</time>
      </trkpt>
      <trkpt lat="45.06929" lon="4.38761">
        <ele>1146.51</ele>
        <time>2024-04-04T10:42:18Z</time>
      </trkpt>
      <trkpt lat="45.06929" lon="4.38768">
        <ele>1147.95</ele>
        <time>2024-04-04T10:42:42Z</time>
      </trkpt>
      <trkpt lat="45.06924" lon="4.38777">
        <ele>1151.32</ele>
        <time>2024-04-04T10:43:08Z</time>
      </trkpt>
      <trkpt lat="45.06925" lon="4.38775">
        <ele>1151.8</ele>
        <time>2024-04-04T10:43:32Z</time>
      </trkpt>
      <trkpt lat="45.06921" lon="4.38779">
        <ele>1161.89</ele>
        <time>2024-04-04T10:43:53Z</time>
      </trkpt>
      <trkpt lat="45.06925" lon="4.38779">
        <ele>1166.22</ele>
        <time>2024-04-04T10:44:07Z</time>
      </trkpt>
      <trkpt lat="45.06933" lon="4.38773">
        <ele>1169.1</ele>
        <time>2024-04-04T10:44:14Z</time>
      </trkpt>
      <trkpt lat="45.06946" lon="4.38773">
        <ele>1180.16</ele>
        <time>2024-04-04T10:44:36Z</time>
      </trkpt>
      <trkpt lat="45.0693" lon="4.38771">
        <ele>1180.64</ele>
        <time>2024-04-04T10:44:58Z</time>
      </trkpt>
      <trkpt lat="45.06921" lon="4.38781">
        <ele>1180.64</ele>
        <time>2024-04-04T10:45:26Z</time>
      </trkpt>
      <trkpt lat="45.06921" lon="4.38795">
        <ele>1179.67</ele>
        <time>2024-04-04T10:45:51Z</time>
      </trkpt>
      <trkpt lat="45.0692" lon="4.3879">
        <ele>1173.91</ele>
        <time>2024-04-04T10:46:16Z</time>
      </trkpt>
      <trkpt lat="45.06916" lon="4.38788">
        <ele>1170.06</ele>
        <time>2024-04-04T10:46:38Z</time>
      </trkpt>
      <trkpt lat="45.06918" lon="4.38797">
        <ele>1169.58</ele>
        <time>2024-04-04T10:46:58Z</time>
      </trkpt>
      <trkpt lat="45.0694" lon="4.38789">
        <ele>1166.7</ele>
        <time>2024-04-04T10:47:18Z</time>
      </trkpt>
      <trkpt lat="45.06944" lon="4.38793">
        <ele>1166.22</ele>
        <time>2024-04-04T10:47:22Z</time>
      </trkpt>
      <trkpt lat="45.06966" lon="4.38803">
        <ele>1158.53</ele>
        <time>2024-04-04T10:47:49Z</time>
      </trkpt>
      <trkpt lat="45.06956" lon="4.38795">
        <ele>1155.16</ele>
        <time>2024-04-04T10:48:10Z</time>
      </trkpt>
      <trkpt lat="45.06963" lon="4.38797">
        <ele>1153.72</ele>
        <time>2024-04-04T10:48:27Z</time>
      </trkpt>
      <trkpt lat="45.06923" lon="4.38779">
        <ele>1152.76</ele>
        <time>2024-04-04T11:00:55Z</time>
      </trkpt>
      <trkpt lat="45.06934" lon="4.38771">
        <ele>1146.03</ele>
        <time>2024-04-04T11:01:28Z</time>
      </trkpt>
      <trkpt lat="45.06935" lon="4.38771">
        <ele>1146.99</ele>
        <time>2024-04-04T11:01:56Z</time>
      </trkpt>
      <trkpt lat="45.06936" lon="4.38773">
        <ele>1149.39</ele>
        <time>2024-04-04T11:02:19Z</time>
      </trkpt>
      <trkpt lat="45.06932" lon="4.38769">
        <ele>1149.87</ele>
        <time>2024-04-04T11:02:44Z</time>
      </trkpt>
      <trkpt lat="45.06932" lon="4.3877">
        <ele>1150.35</ele>
        <time>2024-04-04T11:03:12Z</time>
      </trkpt>
      <trkpt lat="45.06948" lon="4.38769">
        <ele>1149.87</ele>
        <time>2024-04-04T11:03:34Z</time>
      </trkpt>
      <trkpt lat="45.06941" lon="4.38769">
        <ele>1148.91</ele>
        <time>2024-04-04T11:03:57Z</time>
      </trkpt>
      <trkpt lat="45.06933" lon="4.38766">
        <ele>1146.51</ele>
        <time>2024-04-04T11:04:20Z</time>
      </trkpt>
      <trkpt lat="45.06929" lon="4.38766">
        <ele>1143.14</ele>
        <time>2024-04-04T11:04:46Z</time>
      </trkpt>
      <trkpt lat="45.06932" lon="4.38776">
        <ele>1146.99</ele>
        <time>2024-04-04T11:05:09Z</time>
      </trkpt>
      <trkpt lat="45.06931" lon="4.38781">
        <ele>1149.87</ele>
        <time>2024-04-04T11:05:32Z</time>
      </trkpt>
      <trkpt lat="45.06931" lon="4.3878">
        <ele>1150.84</ele>
        <time>2024-04-04T11:05:58Z</time>
      </trkpt>
      <trkpt lat="45.0693" lon="4.38782">
        <ele>1151.8</ele>
        <time>2024-04-04T11:06:24Z</time>
      </trkpt>
      <trkpt lat="45.06932" lon="4.38778">
        <ele>1153.24</ele>
        <time>2024-04-04T11:06:46Z</time>
      </trkpt>
      <trkpt lat="45.06928" lon="4.38781">
        <ele>1155.16</ele>
        <time>2024-04-04T11:07:09Z</time>
      </trkpt>
      <trkpt lat="45.06927" lon="4.38778">
        <ele>1154.2</ele>
        <time>2024-04-04T11:07:37Z</time>
      </trkpt>
      <trkpt lat="45.06932" lon="4.38775">
        <ele>1154.2</ele>
        <time>2024-04-04T11:08:07Z</time>
      </trkpt>
      <trkpt lat="45.06933" lon="4.38773">
        <ele>1153.24</ele>
        <time>2024-04-04T11:08:38Z</time>
      </trkpt>
      <trkpt lat="45.06934" lon="4.38773">
        <ele>1154.2</ele>
        <time>2024-04-04T11:09:15Z</time>
      </trkpt>
      <trkpt lat="45.06933" lon="4.38773">
        <ele>1154.68</ele>
        <time>2024-04-04T11:09:43Z</time>
      </trkpt>
      <trkpt lat="45.06934" lon="4.38769">
        <ele>1154.2</ele>
        <time>2024-04-04T11:10:12Z</time>
      </trkpt>
      <trkpt lat="45.06936" lon="4.38767">
        <ele>1153.24</ele>
        <time>2024-04-04T11:10:34Z</time>
      </trkpt>
      <trkpt lat="45.06934" lon="4.38769">
        <ele>1152.76</ele>
        <time>2024-04-04T11:11:03Z</time>
      </trkpt>
      <trkpt lat="45.06936" lon="4.3877">
        <ele>1151.8</ele>
        <time>2024-04-04T11:11:41Z</time>
      </trkpt>
      <trkpt lat="45.06931" lon="4.38771">
        <ele>1151.32</ele>
        <time>2024-04-04T11:12:08Z</time>
      </trkpt>
      <trkpt lat="45.0693" lon="4.38772">
        <ele>1151.32</ele>
        <time>2024-04-04T11:12:35Z</time>
      </trkpt>
      <trkpt lat="45.06932" lon="4.38772">
        <ele>1151.32</ele>
        <time>2024-04-04T11:13:01Z</time>
      </trkpt>
      <trkpt lat="45.06933" lon="4.38772">
        <ele>1151.32</ele>
        <time>2024-04-04T11:13:27Z</time>
      </trkpt>
      <trkpt lat="45.06934" lon="4.38773">
        <ele>1151.32</ele>
        <time>2024-04-04T11:13:59Z</time>
      </trkpt>
      <trkpt lat="45.06933" lon="4.38782">
        <ele>1151.8</ele>
        <time>2024-04-04T11:16:14Z</time>
      </trkpt>
      <trkpt lat="45.06932" lon="4.38771">
        <ele>1148.91</ele>
        <time>2024-04-04T11:16:38Z</time>
      </trkpt>
      <trkpt lat="45.06927" lon="4.38761">
        <ele>1148.43</ele>
        <time>2024-04-04T11:17:07Z</time>
      </trkpt>
      <trkpt lat="45.06924" lon="4.38758">
        <ele>1147.95</ele>
        <time>2024-04-04T11:17:12Z</time>
      </trkpt>
      <trkpt lat="45.06928" lon="4.38766">
        <ele>1151.32</ele>
        <time>2024-04-04T11:17:38Z</time>
      </trkpt>
      <trkpt lat="45.06938" lon="4.38775">
        <ele>1149.87</ele>
        <time>2024-04-04T11:18:02Z</time>
      </trkpt>
      <trkpt lat="45.0694" lon="4.38774">
        <ele>1146.51</ele>
        <time>2024-04-04T11:18:31Z</time>
      </trkpt>
      <trkpt lat="45.06941" lon="4.3877">
        <ele>1146.99</ele>
        <time>2024-04-04T11:18:56Z</time>
      </trkpt>
      <trkpt lat="45.06945" lon="4.38762">
        <ele>1147.95</ele>
        <time>2024-04-04T11:19:25Z</time>
      </trkpt>
      <trkpt lat="45.06942" lon="4.38766">
        <ele>1150.35</ele>
        <time>2024-04-04T11:19:49Z</time>
      </trkpt>
      <trkpt lat="45.06938" lon="4.3877">
        <ele>1151.32</ele>
        <time>2024-04-04T11:20:20Z</time>
      </trkpt>
      <trkpt lat="45.06935" lon="4.38771">
        <ele>1150.84</ele>
        <time>2024-04-04T11:20:50Z</time>
      </trkpt>
      <trkpt lat="45.06936" lon="4.38773">
        <ele>1148.43</ele>
        <time>2024-04-04T11:20:56Z</time>
      </trkpt>
      <trkpt lat="45.06941" lon="4.38787">
        <ele>1138.34</ele>
        <time>2024-04-04T11:21:23Z</time>
      </trkpt>
      <trkpt lat="45.06938" lon="4.3878">
        <ele>1139.3</ele>
        <time>2024-04-04T11:21:50Z</time>
      </trkpt>
      <trkpt lat="45.06936" lon="4.38765">
        <ele>1137.86</ele>
        <time>2024-04-04T11:22:14Z</time>
      </trkpt>
      <trkpt lat="45.06934" lon="4.38761">
        <ele>1142.18</ele>
        <time>2024-04-04T11:22:36Z</time>
      </trkpt>
      <trkpt lat="45.06943" lon="4.38772">
        <ele>1151.8</ele>
        <time>2024-04-04T11:22:57Z</time>
      </trkpt>
      <trkpt lat="45.06939" lon="4.38772">
        <ele>1156.6</ele>
        <time>2024-04-04T11:23:25Z</time>
      </trkpt>
      <trkpt lat="45.06937" lon="4.38774">
        <ele>1160.93</ele>
        <time>2024-04-04T11:23:48Z</time>
      </trkpt>
      <trkpt lat="45.06938" lon="4.38775">
        <ele>1160.45</ele>
        <time>2024-04-04T11:24:19Z</time>
      </trkpt>
      <trkpt lat="45.06938" lon="4.38773">
        <ele>1159.97</ele>
        <time>2024-04-04T11:24:53Z</time>
      </trkpt>
      <trkpt lat="45.06938" lon="4.38771">
        <ele>1158.05</ele>
        <time>2024-04-04T11:25:22Z</time>
      </trkpt>
      <trkpt lat="45.06937" lon="4.38771">
        <ele>1157.56</ele>
        <time>2024-04-04T11:25:53Z</time>
      </trkpt>
      <trkpt lat="45.06934" lon="4.38773">
        <ele>1156.12</ele>
        <time>2024-04-04T11:26:21Z</time>
      </trkpt>
      <trkpt lat="45.06935" lon="4.38772">
        <ele>1155.64</ele>
        <time>2024-04-04T11:26:49Z</time>
      </trkpt>
      <trkpt lat="45.06938" lon="4.38769">
        <ele>1153.72</ele>
        <time>2024-04-04T11:27:11Z</time>
      </trkpt>
      <trkpt lat="45.06938" lon="4.38768">
        <ele>1154.2</ele>
        <time>2024-04-04T11:27:42Z</time>
      </trkpt>
      <trkpt lat="45.06941" lon="4.38769">
        <ele>1154.68</ele>
        <time>2024-04-04T11:28:11Z</time>
      </trkpt>
      <trkpt lat="45.06939" lon="4.38768">
        <ele>1154.2</ele>
        <time>2024-04-04T11:28:41Z</time>
      </trkpt>
      <trkpt lat="45.06937" lon="4.38769">
        <ele>1153.24</ele>
        <time>2024-04-04T11:29:04Z</time>
      </trkpt>
      <trkpt lat="45.06934" lon="4.38777">
        <ele>1152.76</ele>
        <time>2024-04-04T11:29:31Z</time>
      </trkpt>
      <trkpt lat="45.06928" lon="4.38769">
        <ele>1154.68</ele>
        <time>2024-04-04T11:29:56Z</time>
      </trkpt>
      <trkpt lat="45.06927" lon="4.38754">
        <ele>1153.72</ele>
        <time>2024-04-04T11:30:25Z</time>
      </trkpt>
      <trkpt lat="45.0693" lon="4.38767">
        <ele>1154.68</ele>
        <time>2024-04-04T11:30:51Z</time>
      </trkpt>
      <trkpt lat="45.06932" lon="4.3877">
        <ele>1153.72</ele>
        <time>2024-04-04T11:31:23Z</time>
      </trkpt>
      <trkpt lat="45.06936" lon="4.38762">
        <ele>1153.72</ele>
        <time>2024-04-04T11:31:47Z</time>
      </trkpt>
      <trkpt lat="45.06937" lon="4.38766">
        <ele>1153.24</ele>
        <time>2024-04-04T11:32:07Z</time>
      </trkpt>
      <trkpt lat="45.06939" lon="4.38767">
        <ele>1152.28</ele>
        <time>2024-04-04T11:32:33Z</time>
      </trkpt>
      <trkpt lat="45.06946" lon="4.38764">
        <ele>1152.28</ele>
        <time>2024-04-04T11:32:43Z</time>
      </trkpt>
      <trkpt lat="45.06962" lon="4.38748">
        <ele>1151.8</ele>
        <time>2024-04-04T11:33:03Z</time>
      </trkpt>
      <trkpt lat="45.06943" lon="4.38745">
        <ele>1150.84</ele>
        <time>2024-04-04T11:33:19Z</time>
      </trkpt>
      <trkpt lat="45.06929" lon="4.38769">
        <ele>1155.64</ele>
        <time>2024-04-04T11:33:36Z</time>
      </trkpt>
      <trkpt lat="45.0693" lon="4.38765">
        <ele>1154.68</ele>
        <time>2024-04-04T11:33:59Z</time>
      </trkpt>
      <trkpt lat="45.06929" lon="4.38767">
        <ele>1155.64</ele>
        <time>2024-04-04T11:34:29Z</time>
      </trkpt>
      <trkpt lat="45.06932" lon="4.38768">
        <ele>1154.68</ele>
        <time>2024-04-04T11:34:54Z</time>
      </trkpt>
      <trkpt lat="45.06933" lon="4.38768">
        <ele>1154.68</ele>
        <time>2024-04-04T11:35:19Z</time>
      </trkpt>
      <trkpt lat="45.06944" lon="4.38768">
        <ele>1153.72</ele>
        <time>2024-04-04T11:35:42Z</time>
      </trkpt>
      <trkpt lat="45.06943" lon="4.38768">
        <ele>1153.72</ele>
        <time>2024-04-04T11:35:46Z</time>
      </trkpt>
      <trkpt lat="45.06927" lon="4.38772">
        <ele>1153.24</ele>
        <time>2024-04-04T11:36:21Z</time>
      </trkpt>
      <trkpt lat="45.06929" lon="4.38767">
        <ele>1152.76</ele>
        <time>2024-04-04T11:36:29Z</time>
      </trkpt>
      <trkpt lat="45.06924" lon="4.38774">
        <ele>1152.76</ele>
        <time>2024-04-04T11:41:29Z</time>
      </trkpt>
      <trkpt lat="45.06932" lon="4.38761">
        <ele>1145.55</ele>
        <time>2024-04-04T11:41:55Z</time>
      </trkpt>
      <trkpt lat="45.06934" lon="4.38762">
        <ele>1146.99</ele>
        <time>2024-04-04T11:42:21Z</time>
      </trkpt>
      <trkpt lat="45.06934" lon="4.38765">
        <ele>1148.43</ele>
        <time>2024-04-04T11:42:50Z</time>
      </trkpt>
      <trkpt lat="45.06932" lon="4.3877">
        <ele>1150.35</ele>
        <time>2024-04-04T11:43:18Z</time>
      </trkpt>
      <trkpt lat="45.06932" lon="4.38774">
        <ele>1151.32</ele>
        <time>2024-04-04T11:43:40Z</time>
      </trkpt>
      <trkpt lat="45.06933" lon="4.38776">
        <ele>1152.28</ele>
        <time>2024-04-04T11:43:49Z</time>
      </trkpt>
      <trkpt lat="45.0695" lon="4.38768">
        <ele>1153.72</ele>
        <time>2024-04-04T11:49:23Z</time>
      </trkpt>
      <trkpt lat="45.06928" lon="4.38775">
        <ele>1155.64</ele>
        <time>2024-04-04T11:49:51Z</time>
      </trkpt>
      <trkpt lat="45.0693" lon="4.38777">
        <ele>1154.68</ele>
        <time>2024-04-04T11:50:16Z</time>
      </trkpt>
      <trkpt lat="45.06945" lon="4.38777">
        <ele>1156.12</ele>
        <time>2024-04-04T11:50:43Z</time>
      </trkpt>
      <trkpt lat="45.06945" lon="4.38783">
        <ele>1159.97</ele>
        <time>2024-04-04T11:51:00Z</time>
      </trkpt>
      <trkpt lat="45.0696" lon="4.38737">
        <ele>1160.45</ele>
        <time>2024-04-04T11:51:35Z</time>
      </trkpt>
      <trkpt lat="45.06963" lon="4.38725">
        <ele>1160.45</ele>
        <time>2024-04-04T11:51:43Z</time>
      </trkpt>
      <trkpt lat="45.06929" lon="4.38776">
        <ele>1159.97</ele>
        <time>2024-04-04T11:55:40Z</time>
      </trkpt>
      <trkpt lat="45.06913" lon="4.3878">
        <ele>1157.56</ele>
        <time>2024-04-04T11:56:05Z</time>
      </trkpt>
      <trkpt lat="45.06916" lon="4.38778">
        <ele>1155.16</ele>
        <time>2024-04-04T11:56:27Z</time>
      </trkpt>
      <trkpt lat="45.06943" lon="4.38768">
        <ele>1156.12</ele>
        <time>2024-04-04T11:56:49Z</time>
      </trkpt>
      <trkpt lat="45.06939" lon="4.38764">
        <ele>1150.35</ele>
        <time>2024-04-04T11:57:14Z</time>
      </trkpt>
      <trkpt lat="45.06947" lon="4.38765">
        <ele>1149.87</ele>
        <time>2024-04-04T11:57:42Z</time>
      </trkpt>
      <trkpt lat="45.06944" lon="4.38765">
        <ele>1149.87</ele>
        <time>2024-04-04T11:58:14Z</time>
      </trkpt>
      <trkpt lat="45.06946" lon="4.38765">
        <ele>1150.84</ele>
        <time>2024-04-04T11:58:45Z</time>
      </trkpt>
      <trkpt lat="45.06937" lon="4.38766">
        <ele>1148.91</ele>
        <time>2024-04-04T11:59:12Z</time>
      </trkpt>
      <trkpt lat="45.06943" lon="4.38766">
        <ele>1150.84</ele>
        <time>2024-04-04T11:59:36Z</time>
      </trkpt>
      <trkpt lat="45.06942" lon="4.38766">
        <ele>1151.32</ele>
        <time>2024-04-04T12:00:03Z</time>
      </trkpt>
      <trkpt lat="45.06935" lon="4.38768">
        <ele>1152.28</ele>
        <time>2024-04-04T12:00:32Z</time>
      </trkpt>
      <trkpt lat="45.06931" lon="4.38772">
        <ele>1153.24</ele>
        <time>2024-04-04T12:00:59Z</time>
      </trkpt>
      <trkpt lat="45.06927" lon="4.38779">
        <ele>1157.56</ele>
        <time>2024-04-04T12:01:27Z</time>
      </trkpt>
      <trkpt lat="45.06939" lon="4.38773">
        <ele>1155.16</ele>
        <time>2024-04-04T12:01:56Z</time>
      </trkpt>
      <trkpt lat="45.06939" lon="4.38771">
        <ele>1154.2</ele>
        <time>2024-04-04T12:02:25Z</time>
      </trkpt>
      <trkpt lat="45.06953" lon="4.38767">
        <ele>1155.16</ele>
        <time>2024-04-04T12:02:53Z</time>
      </trkpt>
      <trkpt lat="45.06964" lon="4.38761">
        <ele>1156.6</ele>
        <time>2024-04-04T12:03:18Z</time>
      </trkpt>
      <trkpt lat="45.06967" lon="4.38761">
        <ele>1156.6</ele>
        <time>2024-04-04T12:03:43Z</time>
      </trkpt>
      <trkpt lat="45.0697" lon="4.38762">
        <ele>1156.6</ele>
        <time>2024-04-04T12:04:08Z</time>
      </trkpt>
      <trkpt lat="45.06967" lon="4.38763">
        <ele>1156.6</ele>
        <time>2024-04-04T12:04:35Z</time>
      </trkpt>
      <trkpt lat="45.06962" lon="4.3876">
        <ele>1158.53</ele>
        <time>2024-04-04T12:05:06Z</time>
      </trkpt>
      <trkpt lat="45.0695" lon="4.38762">
        <ele>1162.85</ele>
        <time>2024-04-04T12:05:31Z</time>
      </trkpt>
      <trkpt lat="45.06948" lon="4.38762">
        <ele>1162.37</ele>
        <time>2024-04-04T12:05:54Z</time>
      </trkpt>
      <trkpt lat="45.06951" lon="4.38762">
        <ele>1159.01</ele>
        <time>2024-04-04T12:06:24Z</time>
      </trkpt>
      <trkpt lat="45.06946" lon="4.38763">
        <ele>1154.2</ele>
        <time>2024-04-04T12:06:52Z</time>
      </trkpt>
      <trkpt lat="45.06944" lon="4.38762">
        <ele>1153.24</ele>
        <time>2024-04-04T12:07:14Z</time>
      </trkpt>
      <trkpt lat="45.06927" lon="4.38766">
        <ele>1143.14</ele>
        <time>2024-04-04T12:07:35Z</time>
      </trkpt>
      <trkpt lat="45.06927" lon="4.38762">
        <ele>1146.03</ele>
        <time>2024-04-04T12:07:37Z</time>
      </trkpt>
      <trkpt lat="45.06927" lon="4.38747">
        <ele>1160.45</ele>
        <time>2024-04-04T12:07:49Z</time>
      </trkpt>
      <trkpt lat="45.06924" lon="4.38746">
        <ele>1162.37</ele>
        <time>2024-04-04T12:08:00Z</time>
      </trkpt>
      <trkpt lat="45.0692" lon="4.38758">
        <ele>1162.37</ele>
        <time>2024-04-04T12:12:10Z</time>
      </trkpt>
      <trkpt lat="45.06919" lon="4.38753">
        <ele>1167.18</ele>
        <time>2024-04-04T12:12:24Z</time>
      </trkpt>
      <trkpt lat="45.0692" lon="4.38751">
        <ele>1170.06</ele>
        <time>2024-04-04T12:12:43Z</time>
      </trkpt>
      <trkpt lat="45.06924" lon="4.38748">
        <ele>1164.29</ele>
        <time>2024-04-04T12:13:06Z</time>
      </trkpt>
      <trkpt lat="45.06922" lon="4.38747">
        <ele>1161.41</ele>
        <time>2024-04-04T12:13:16Z</time>
      </trkpt>
      <trkpt lat="45.06919" lon="4.38752">
        <ele>1160.45</ele>
        <time>2024-04-04T12:13:30Z</time>
      </trkpt>
      <trkpt lat="45.06919" lon="4.38752">
        <ele>1160.45</ele>
        <time>2024-04-04T12:13:31Z</time>
      </trkpt>
      <trkpt lat="45.06918" lon="4.38751">
        <ele>1159.97</ele>
        <time>2024-04-04T12:13:35Z</time>
      </trkpt>
      <trkpt lat="45.06914" lon="4.38748">
        <ele>1159.49</ele>
        <time>2024-04-04T12:13:39Z</time>
      </trkpt>
      <trkpt lat="45.0691" lon="4.38747">
        <ele>1158.53</ele>
        <time>2024-04-04T12:13:43Z</time>
      </trkpt>
      <trkpt lat="45.06901" lon="4.38754">
        <ele>1156.12</ele>
        <time>2024-04-04T12:13:56Z</time>
      </trkpt>
      <trkpt lat="45.06898" lon="4.38756">
        <ele>1155.64</ele>
        <time>2024-04-04T12:13:59Z</time>
      </trkpt>
      <trkpt lat="45.06894" lon="4.38757">
        <ele>1154.2</ele>
        <time>2024-04-04T12:14:08Z</time>
      </trkpt>
      <trkpt lat="45.06893" lon="4.38758">
        <ele>1154.2</ele>
        <time>2024-04-04T12:14:09Z</time>
      </trkpt>
      <trkpt lat="45.06888" lon="4.38765">
        <ele>1154.2</ele>
        <time>2024-04-04T12:14:15Z</time>
      </trkpt>
      <trkpt lat="45.06876" lon="4.38769">
        <ele>1151.32</ele>
        <time>2024-04-04T12:14:28Z</time>
      </trkpt>
      <trkpt lat="45.0687" lon="4.3877">
        <ele>1150.84</ele>
        <time>2024-04-04T12:14:31Z</time>
      </trkpt>
      <trkpt lat="45.06864" lon="4.38769">
        <ele>1150.35</ele>
        <time>2024-04-04T12:14:37Z</time>
      </trkpt>
      <trkpt lat="45.06857" lon="4.38756">
        <ele>1149.87</ele>
        <time>2024-04-04T12:14:46Z</time>
      </trkpt>
      <trkpt lat="45.0685" lon="4.38744">
        <ele>1148.91</ele>
        <time>2024-04-04T12:14:55Z</time>
      </trkpt>
      <trkpt lat="45.06846" lon="4.38736">
        <ele>1148.91</ele>
        <time>2024-04-04T12:15:01Z</time>
      </trkpt>
      <trkpt lat="45.06839" lon="4.38729">
        <ele>1148.43</ele>
        <time>2024-04-04T12:15:12Z</time>
      </trkpt>
      <trkpt lat="45.06837" lon="4.38729">
        <ele>1148.43</ele>
        <time>2024-04-04T12:15:23Z</time>
      </trkpt>
      <trkpt lat="45.06837" lon="4.38731">
        <ele>1147.95</ele>
        <time>2024-04-04T12:15:27Z</time>
      </trkpt>
      <trkpt lat="45.06834" lon="4.3873">
        <ele>1147.47</ele>
        <time>2024-04-04T12:15:30Z</time>
      </trkpt>
      <trkpt lat="45.06833" lon="4.38732">
        <ele>1146.99</ele>
        <time>2024-04-04T12:15:33Z</time>
      </trkpt>
      <trkpt lat="45.06827" lon="4.38735">
        <ele>1146.99</ele>
        <time>2024-04-04T12:15:37Z</time>
      </trkpt>
      <trkpt lat="45.0681" lon="4.38743">
        <ele>1144.59</ele>
        <time>2024-04-04T12:15:51Z</time>
      </trkpt>
      <trkpt lat="45.06796" lon="4.38747">
        <ele>1144.59</ele>
        <time>2024-04-04T12:16:00Z</time>
      </trkpt>
      <trkpt lat="45.06793" lon="4.38749">
        <ele>1144.11</ele>
        <time>2024-04-04T12:16:05Z</time>
      </trkpt>
      <trkpt lat="45.0678" lon="4.38749">
        <ele>1143.14</ele>
        <time>2024-04-04T12:16:16Z</time>
      </trkpt>
      <trkpt lat="45.06774" lon="4.38747">
        <ele>1142.18</ele>
        <time>2024-04-04T12:16:21Z</time>
      </trkpt>
      <trkpt lat="45.0676" lon="4.38748">
        <ele>1141.22</ele>
        <time>2024-04-04T12:16:33Z</time>
      </trkpt>
      <trkpt lat="45.06748" lon="4.38751">
        <ele>1141.7</ele>
        <time>2024-04-04T12:16:42Z</time>
      </trkpt>
      <trkpt lat="45.06736" lon="4.38752">
        <ele>1141.22</ele>
        <time>2024-04-04T12:16:52Z</time>
      </trkpt>
      <trkpt lat="45.06731" lon="4.38752">
        <ele>1141.22</ele>
        <time>2024-04-04T12:16:55Z</time>
      </trkpt>
      <trkpt lat="45.06698" lon="4.3875">
        <ele>1140.74</ele>
        <time>2024-04-04T12:17:19Z</time>
      </trkpt>
      <trkpt lat="45.06674" lon="4.3875">
        <ele>1139.3</ele>
        <time>2024-04-04T12:17:37Z</time>
      </trkpt>
      <trkpt lat="45.06653" lon="4.38748">
        <ele>1139.78</ele>
        <time>2024-04-04T12:17:54Z</time>
      </trkpt>
      <trkpt lat="45.06653" lon="4.38748">
        <ele>1138.82</ele>
        <time>2024-04-04T12:18:02Z</time>
      </trkpt>
      <trkpt lat="45.06627" lon="4.3874">
        <ele>1136.9</ele>
        <time>2024-04-04T12:18:22Z</time>
      </trkpt>
      <trkpt lat="45.06597" lon="4.38731">
        <ele>1134.01</ele>
        <time>2024-04-04T12:18:42Z</time>
      </trkpt>
      <trkpt lat="45.0658" lon="4.38728">
        <ele>1132.57</ele>
        <time>2024-04-04T12:18:57Z</time>
      </trkpt>
      <trkpt lat="45.06567" lon="4.38728">
        <ele>1132.09</ele>
        <time>2024-04-04T12:19:11Z</time>
      </trkpt>
      <trkpt lat="45.06539" lon="4.38719">
        <ele>1130.17</ele>
        <time>2024-04-04T12:19:30Z</time>
      </trkpt>
      <trkpt lat="45.06503" lon="4.38707">
        <ele>1130.17</ele>
        <time>2024-04-04T12:19:55Z</time>
      </trkpt>
      <trkpt lat="45.06473" lon="4.38694">
        <ele>1131.13</ele>
        <time>2024-04-04T12:20:18Z</time>
      </trkpt>
      <trkpt lat="45.06459" lon="4.38694">
        <ele>1132.57</ele>
        <time>2024-04-04T12:20:32Z</time>
      </trkpt>
      <trkpt lat="45.06448" lon="4.38697">
        <ele>1132.09</ele>
        <time>2024-04-04T12:20:42Z</time>
      </trkpt>
      <trkpt lat="45.06444" lon="4.38699">
        <ele>1132.09</ele>
        <time>2024-04-04T12:20:46Z</time>
      </trkpt>
      <trkpt lat="45.06438" lon="4.38704">
        <ele>1131.61</ele>
        <time>2024-04-04T12:20:50Z</time>
      </trkpt>
      <trkpt lat="45.06418" lon="4.38726">
        <ele>1130.65</ele>
        <time>2024-04-04T12:21:10Z</time>
      </trkpt>
      <trkpt lat="45.06399" lon="4.38756">
        <ele>1130.65</ele>
        <time>2024-04-04T12:21:32Z</time>
      </trkpt>
      <trkpt lat="45.06381" lon="4.38781">
        <ele>1134.49</ele>
        <time>2024-04-04T12:21:47Z</time>
      </trkpt>
      <trkpt lat="45.06375" lon="4.38791">
        <ele>1135.45</ele>
        <time>2024-04-04T12:21:57Z</time>
      </trkpt>
      <trkpt lat="45.06361" lon="4.38808">
        <ele>1135.45</ele>
        <time>2024-04-04T12:22:06Z</time>
      </trkpt>
      <trkpt lat="45.06355" lon="4.38817">
        <ele>1134.49</ele>
        <time>2024-04-04T12:22:15Z</time>
      </trkpt>
      <trkpt lat="45.06339" lon="4.38832">
        <ele>1133.05</ele>
        <time>2024-04-04T12:22:27Z</time>
      </trkpt>
      <trkpt lat="45.06309" lon="4.38856">
        <ele>1128.73</ele>
        <time>2024-04-04T12:22:52Z</time>
      </trkpt>
      <trkpt lat="45.06307" lon="4.38857">
        <ele>1128.24</ele>
        <time>2024-04-04T12:22:54Z</time>
      </trkpt>
      <trkpt lat="45.063" lon="4.38857">
        <ele>1127.76</ele>
        <time>2024-04-04T12:22:58Z</time>
      </trkpt>
      <trkpt lat="45.06279" lon="4.38856">
        <ele>1127.28</ele>
        <time>2024-04-04T12:23:15Z</time>
      </trkpt>
      <trkpt lat="45.06262" lon="4.38859">
        <ele>1125.36</ele>
        <time>2024-04-04T12:23:28Z</time>
      </trkpt>
      <trkpt lat="45.06245" lon="4.38865">
        <ele>1124.88</ele>
        <time>2024-04-04T12:23:40Z</time>
      </trkpt>
      <trkpt lat="45.06229" lon="4.38872">
        <ele>1122.96</ele>
        <time>2024-04-04T12:23:53Z</time>
      </trkpt>
      <trkpt lat="45.06218" lon="4.38886">
        <ele>1121.03</ele>
        <time>2024-04-04T12:24:00Z</time>
      </trkpt>
      <trkpt lat="45.06214" lon="4.38888">
        <ele>1120.07</ele>
        <time>2024-04-04T12:24:05Z</time>
      </trkpt>
      <trkpt lat="45.06209" lon="4.38885">
        <ele>1119.11</ele>
        <time>2024-04-04T12:24:10Z</time>
      </trkpt>
      <trkpt lat="45.06196" lon="4.38875">
        <ele>1119.11</ele>
        <time>2024-04-04T12:24:22Z</time>
      </trkpt>
      <trkpt lat="45.06182" lon="4.38864">
        <ele>1120.07</ele>
        <time>2024-04-04T12:24:33Z</time>
      </trkpt>
      <trkpt lat="45.06165" lon="4.38852">
        <ele>1121.03</ele>
        <time>2024-04-04T12:24:45Z</time>
      </trkpt>
      <trkpt lat="45.06157" lon="4.38848">
        <ele>1120.07</ele>
        <time>2024-04-04T12:24:55Z</time>
      </trkpt>
      <trkpt lat="45.06145" lon="4.38839">
        <ele>1120.07</ele>
        <time>2024-04-04T12:25:01Z</time>
      </trkpt>
      <trkpt lat="45.06141" lon="4.38836">
        <ele>1119.59</ele>
        <time>2024-04-04T12:25:06Z</time>
      </trkpt>
      <trkpt lat="45.06135" lon="4.38833">
        <ele>1119.59</ele>
        <time>2024-04-04T12:25:10Z</time>
      </trkpt>
      <trkpt lat="45.06123" lon="4.38822">
        <ele>1119.11</ele>
        <time>2024-04-04T12:25:22Z</time>
      </trkpt>
      <trkpt lat="45.06108" lon="4.38807">
        <ele>1120.07</ele>
        <time>2024-04-04T12:25:33Z</time>
      </trkpt>
      <trkpt lat="45.06103" lon="4.38798">
        <ele>1120.07</ele>
        <time>2024-04-04T12:25:39Z</time>
      </trkpt>
      <trkpt lat="45.06092" lon="4.3878">
        <ele>1119.11</ele>
        <time>2024-04-04T12:25:59Z</time>
      </trkpt>
      <trkpt lat="45.0609" lon="4.38778">
        <ele>1118.63</ele>
        <time>2024-04-04T12:26:05Z</time>
      </trkpt>
      <trkpt lat="45.06088" lon="4.38776">
        <ele>1118.15</ele>
        <time>2024-04-04T12:26:07Z</time>
      </trkpt>
      <trkpt lat="45.06073" lon="4.38747">
        <ele>1115.75</ele>
        <time>2024-04-04T12:26:19Z</time>
      </trkpt>
      <trkpt lat="45.06059" lon="4.38724">
        <ele>1113.34</ele>
        <time>2024-04-04T12:26:34Z</time>
      </trkpt>
      <trkpt lat="45.0605" lon="4.38708">
        <ele>1112.38</ele>
        <time>2024-04-04T12:26:46Z</time>
      </trkpt>
      <trkpt lat="45.06041" lon="4.38691">
        <ele>1110.46</ele>
        <time>2024-04-04T12:26:54Z</time>
      </trkpt>
      <trkpt lat="45.06036" lon="4.38679">
        <ele>1109.5</ele>
        <time>2024-04-04T12:27:05Z</time>
      </trkpt>
      <trkpt lat="45.06026" lon="4.38664">
        <ele>1108.54</ele>
        <time>2024-04-04T12:27:15Z</time>
      </trkpt>
      <trkpt lat="45.06013" lon="4.38646">
        <ele>1108.54</ele>
        <time>2024-04-04T12:27:28Z</time>
      </trkpt>
      <trkpt lat="45.06011" lon="4.38644">
        <ele>1108.54</ele>
        <time>2024-04-04T12:27:30Z</time>
      </trkpt>
      <trkpt lat="45.06006" lon="4.38635">
        <ele>1108.54</ele>
        <time>2024-04-04T12:27:39Z</time>
      </trkpt>
      <trkpt lat="45.06002" lon="4.38635">
        <ele>1108.06</ele>
        <time>2024-04-04T12:27:42Z</time>
      </trkpt>
      <trkpt lat="45.05998" lon="4.38629">
        <ele>1108.06</ele>
        <time>2024-04-04T12:27:48Z</time>
      </trkpt>
      <trkpt lat="45.05993" lon="4.38622">
        <ele>1108.06</ele>
        <time>2024-04-04T12:27:52Z</time>
      </trkpt>
      <trkpt lat="45.05986" lon="4.38614">
        <ele>1109.02</ele>
        <time>2024-04-04T12:28:03Z</time>
      </trkpt>
      <trkpt lat="45.05973" lon="4.38598">
        <ele>1109.5</ele>
        <time>2024-04-04T12:28:12Z</time>
      </trkpt>
      <trkpt lat="45.0596" lon="4.38582">
        <ele>1109.5</ele>
        <time>2024-04-04T12:28:24Z</time>
      </trkpt>
      <trkpt lat="45.05956" lon="4.38577">
        <ele>1106.61</ele>
        <time>2024-04-04T12:28:31Z</time>
      </trkpt>
      <trkpt lat="45.0594" lon="4.3856">
        <ele>1105.17</ele>
        <time>2024-04-04T12:28:44Z</time>
      </trkpt>
      <trkpt lat="45.05926" lon="4.38546">
        <ele>1101.33</ele>
        <time>2024-04-04T12:28:57Z</time>
      </trkpt>
      <trkpt lat="45.05913" lon="4.38542">
        <ele>1099.89</ele>
        <time>2024-04-04T12:29:06Z</time>
      </trkpt>
      <trkpt lat="45.0591" lon="4.38542">
        <ele>1098.92</ele>
        <time>2024-04-04T12:29:09Z</time>
      </trkpt>
      <trkpt lat="45.05902" lon="4.38545">
        <ele>1098.44</ele>
        <time>2024-04-04T12:29:14Z</time>
      </trkpt>
      <trkpt lat="45.05884" lon="4.38555">
        <ele>1098.44</ele>
        <time>2024-04-04T12:29:26Z</time>
      </trkpt>
      <trkpt lat="45.05873" lon="4.38561">
        <ele>1097</ele>
        <time>2024-04-04T12:29:36Z</time>
      </trkpt>
      <trkpt lat="45.05858" lon="4.38572">
        <ele>1096.52</ele>
        <time>2024-04-04T12:29:49Z</time>
      </trkpt>
      <trkpt lat="45.05852" lon="4.38577">
        <ele>1096.04</ele>
        <time>2024-04-04T12:29:56Z</time>
      </trkpt>
      <trkpt lat="45.05845" lon="4.38584">
        <ele>1096.04</ele>
        <time>2024-04-04T12:30:01Z</time>
      </trkpt>
      <trkpt lat="45.05829" lon="4.38598">
        <ele>1096.04</ele>
        <time>2024-04-04T12:30:15Z</time>
      </trkpt>
      <trkpt lat="45.05818" lon="4.38611">
        <ele>1096.04</ele>
        <time>2024-04-04T12:30:27Z</time>
      </trkpt>
      <trkpt lat="45.05808" lon="4.3862">
        <ele>1095.56</ele>
        <time>2024-04-04T12:30:36Z</time>
      </trkpt>
      <trkpt lat="45.05795" lon="4.38637">
        <ele>1096.04</ele>
        <time>2024-04-04T12:30:47Z</time>
      </trkpt>
      <trkpt lat="45.05788" lon="4.38644">
        <ele>1094.6</ele>
        <time>2024-04-04T12:30:53Z</time>
      </trkpt>
      <trkpt lat="45.05785" lon="4.38647">
        <ele>1094.12</ele>
        <time>2024-04-04T12:30:57Z</time>
      </trkpt>
      <trkpt lat="45.0578" lon="4.38658">
        <ele>1093.16</ele>
        <time>2024-04-04T12:31:02Z</time>
      </trkpt>
      <trkpt lat="45.05766" lon="4.38671">
        <ele>1091.23</ele>
        <time>2024-04-04T12:31:14Z</time>
      </trkpt>
      <trkpt lat="45.05756" lon="4.3868">
        <ele>1089.31</ele>
        <time>2024-04-04T12:31:23Z</time>
      </trkpt>
      <trkpt lat="45.05745" lon="4.38689">
        <ele>1089.79</ele>
        <time>2024-04-04T12:31:34Z</time>
      </trkpt>
      <trkpt lat="45.05731" lon="4.38697">
        <ele>1089.31</ele>
        <time>2024-04-04T12:31:45Z</time>
      </trkpt>
      <trkpt lat="45.05728" lon="4.387">
        <ele>1088.83</ele>
        <time>2024-04-04T12:31:47Z</time>
      </trkpt>
      <trkpt lat="45.05716" lon="4.38711">
        <ele>1086.43</ele>
        <time>2024-04-04T12:31:57Z</time>
      </trkpt>
      <trkpt lat="45.05704" lon="4.38723">
        <ele>1085.47</ele>
        <time>2024-04-04T12:32:07Z</time>
      </trkpt>
      <trkpt lat="45.0569" lon="4.38733">
        <ele>1084.02</ele>
        <time>2024-04-04T12:32:17Z</time>
      </trkpt>
      <trkpt lat="45.0568" lon="4.38741">
        <ele>1082.58</ele>
        <time>2024-04-04T12:32:27Z</time>
      </trkpt>
      <trkpt lat="45.05671" lon="4.3875">
        <ele>1081.62</ele>
        <time>2024-04-04T12:32:37Z</time>
      </trkpt>
      <trkpt lat="45.05661" lon="4.3876">
        <ele>1082.1</ele>
        <time>2024-04-04T12:32:47Z</time>
      </trkpt>
      <trkpt lat="45.05651" lon="4.38777">
        <ele>1082.1</ele>
        <time>2024-04-04T12:32:58Z</time>
      </trkpt>
      <trkpt lat="45.05643" lon="4.38796">
        <ele>1082.1</ele>
        <time>2024-04-04T12:33:09Z</time>
      </trkpt>
      <trkpt lat="45.05642" lon="4.38796">
        <ele>1082.58</ele>
        <time>2024-04-04T12:33:10Z</time>
      </trkpt>
      <trkpt lat="45.05634" lon="4.38811">
        <ele>1083.54</ele>
        <time>2024-04-04T12:33:21Z</time>
      </trkpt>
      <trkpt lat="45.05627" lon="4.38826">
        <ele>1082.58</ele>
        <time>2024-04-04T12:33:30Z</time>
      </trkpt>
      <trkpt lat="45.05626" lon="4.38827">
        <ele>1082.1</ele>
        <time>2024-04-04T12:33:34Z</time>
      </trkpt>
      <trkpt lat="45.05618" lon="4.38841">
        <ele>1080.18</ele>
        <time>2024-04-04T12:33:44Z</time>
      </trkpt>
      <trkpt lat="45.05607" lon="4.38854">
        <ele>1078.74</ele>
        <time>2024-04-04T12:33:54Z</time>
      </trkpt>
      <trkpt lat="45.05594" lon="4.38865">
        <ele>1078.26</ele>
        <time>2024-04-04T12:34:05Z</time>
      </trkpt>
      <trkpt lat="45.05583" lon="4.38877">
        <ele>1078.74</ele>
        <time>2024-04-04T12:34:14Z</time>
      </trkpt>
      <trkpt lat="45.05571" lon="4.38891">
        <ele>1078.74</ele>
        <time>2024-04-04T12:34:25Z</time>
      </trkpt>
      <trkpt lat="45.05565" lon="4.38894">
        <ele>1078.26</ele>
        <time>2024-04-04T12:34:31Z</time>
      </trkpt>
      <trkpt lat="45.05558" lon="4.38904">
        <ele>1077.29</ele>
        <time>2024-04-04T12:34:39Z</time>
      </trkpt>
      <trkpt lat="45.05546" lon="4.38907">
        <ele>1078.26</ele>
        <time>2024-04-04T12:34:48Z</time>
      </trkpt>
      <trkpt lat="45.05537" lon="4.3891">
        <ele>1078.26</ele>
        <time>2024-04-04T12:34:57Z</time>
      </trkpt>
      <trkpt lat="45.05527" lon="4.38914">
        <ele>1078.26</ele>
        <time>2024-04-04T12:35:03Z</time>
      </trkpt>
      <trkpt lat="45.05517" lon="4.38919">
        <ele>1079.22</ele>
        <time>2024-04-04T12:35:12Z</time>
      </trkpt>
      <trkpt lat="45.05507" lon="4.38923">
        <ele>1079.7</ele>
        <time>2024-04-04T12:35:20Z</time>
      </trkpt>
      <trkpt lat="45.05503" lon="4.38923">
        <ele>1079.7</ele>
        <time>2024-04-04T12:35:24Z</time>
      </trkpt>
      <trkpt lat="45.05497" lon="4.38925">
        <ele>1080.18</ele>
        <time>2024-04-04T12:35:43Z</time>
      </trkpt>
      <trkpt lat="45.05497" lon="4.38923">
        <ele>1080.66</ele>
        <time>2024-04-04T12:35:58Z</time>
      </trkpt>
      <trkpt lat="45.05495" lon="4.38925">
        <ele>1080.18</ele>
        <time>2024-04-04T12:36:14Z</time>
      </trkpt>
      <trkpt lat="45.05494" lon="4.38927">
        <ele>1079.7</ele>
        <time>2024-04-04T12:36:34Z</time>
      </trkpt>
      <trkpt lat="45.05492" lon="4.38927">
        <ele>1079.7</ele>
        <time>2024-04-04T12:36:59Z</time>
      </trkpt>
      <trkpt lat="45.05492" lon="4.38927">
        <ele>1079.7</ele>
        <time>2024-04-04T12:37:00Z</time>
      </trkpt>
      <trkpt lat="45.05473" lon="4.38955">
        <ele>1079.22</ele>
        <time>2024-04-04T12:37:21Z</time>
      </trkpt>
      <trkpt lat="45.05464" lon="4.38977">
        <ele>1079.22</ele>
        <time>2024-04-04T12:37:38Z</time>
      </trkpt>
      <trkpt lat="45.05447" lon="4.38978">
        <ele>1076.81</ele>
        <time>2024-04-04T12:37:58Z</time>
      </trkpt>
      <trkpt lat="45.05447" lon="4.38978">
        <ele>1075.37</ele>
        <time>2024-04-04T12:38:23Z</time>
      </trkpt>
      <trkpt lat="45.0545" lon="4.38978">
        <ele>1074.89</ele>
        <time>2024-04-04T12:38:44Z</time>
      </trkpt>
      <trkpt lat="45.05452" lon="4.38979">
        <ele>1074.89</ele>
        <time>2024-04-04T12:38:46Z</time>
      </trkpt>
      <trkpt lat="45.05462" lon="4.38984">
        <ele>1075.37</ele>
        <time>2024-04-04T12:38:57Z</time>
      </trkpt>
      <trkpt lat="45.05467" lon="4.38995">
        <ele>1075.37</ele>
        <time>2024-04-04T12:39:12Z</time>
      </trkpt>
      <trkpt lat="45.05473" lon="4.39">
        <ele>1074.41</ele>
        <time>2024-04-04T12:39:27Z</time>
      </trkpt>
      <trkpt lat="45.05473" lon="4.39001">
        <ele>1074.41</ele>
        <time>2024-04-04T12:39:41Z</time>
      </trkpt>
      <trkpt lat="45.05473" lon="4.39003">
        <ele>1074.41</ele>
        <time>2024-04-04T12:39:55Z</time>
      </trkpt>
      <trkpt lat="45.05473" lon="4.39003">
        <ele>1074.41</ele>
        <time>2024-04-04T12:40:20Z</time>
      </trkpt>
      <trkpt lat="45.05473" lon="4.39004">
        <ele>1074.89</ele>
        <time>2024-04-04T12:40:46Z</time>
      </trkpt>
      <trkpt lat="45.05473" lon="4.39005">
        <ele>1074.41</ele>
        <time>2024-04-04T12:41:11Z</time>
      </trkpt>
      <trkpt lat="45.05473" lon="4.39005">
        <ele>1074.41</ele>
        <time>2024-04-04T12:41:32Z</time>
      </trkpt>
      <trkpt lat="45.05473" lon="4.39005">
        <ele>1074.89</ele>
        <time>2024-04-04T12:41:57Z</time>
      </trkpt>
      <trkpt lat="45.05473" lon="4.39005">
        <ele>1074.89</ele>
        <time>2024-04-04T12:42:15Z</time>
      </trkpt>
      <trkpt lat="45.05473" lon="4.39004">
        <ele>1074.41</ele>
        <time>2024-04-04T12:42:39Z</time>
      </trkpt>
      <trkpt lat="45.05473" lon="4.39004">
        <ele>1074.41</ele>
        <time>2024-04-04T12:42:59Z</time>
      </trkpt>
      <trkpt lat="45.05473" lon="4.39004">
        <ele>1074.41</ele>
        <time>2024-04-04T12:43:20Z</time>
      </trkpt>
      <trkpt lat="45.05476" lon="4.39006">
        <ele>1073.93</ele>
        <time>2024-04-04T12:43:24Z</time>
      </trkpt>
      <trkpt lat="45.05489" lon="4.3901">
        <ele>1072.97</ele>
        <time>2024-04-04T12:43:38Z</time>
      </trkpt>
      <trkpt lat="45.05491" lon="4.3901">
        <ele>1072.97</ele>
        <time>2024-04-04T12:43:40Z</time>
      </trkpt>
      <trkpt lat="45.05497" lon="4.39012">
        <ele>1072.97</ele>
        <time>2024-04-04T12:43:52Z</time>
      </trkpt>
      <trkpt lat="45.055" lon="4.39012">
        <ele>1072.49</ele>
        <time>2024-04-04T12:44:01Z</time>
      </trkpt>
      <trkpt lat="45.05506" lon="4.39012">
        <ele>1073.45</ele>
        <time>2024-04-04T12:44:07Z</time>
      </trkpt>
      <trkpt lat="45.0551" lon="4.39013">
        <ele>1073.45</ele>
        <time>2024-04-04T12:44:11Z</time>
      </trkpt>
      <trkpt lat="45.05522" lon="4.39021">
        <ele>1075.37</ele>
        <time>2024-04-04T12:44:23Z</time>
      </trkpt>
      <trkpt lat="45.0553" lon="4.39027">
        <ele>1076.33</ele>
        <time>2024-04-04T12:44:33Z</time>
      </trkpt>
      <trkpt lat="45.05532" lon="4.39029">
        <ele>1076.33</ele>
        <time>2024-04-04T12:44:35Z</time>
      </trkpt>
      <trkpt lat="45.05541" lon="4.3904">
        <ele>1077.29</ele>
        <time>2024-04-04T12:44:46Z</time>
      </trkpt>
      <trkpt lat="45.05557" lon="4.39051">
        <ele>1078.26</ele>
        <time>2024-04-04T12:44:58Z</time>
      </trkpt>
      <trkpt lat="45.05567" lon="4.39054">
        <ele>1079.22</ele>
        <time>2024-04-04T12:45:07Z</time>
      </trkpt>
      <trkpt lat="45.05569" lon="4.39056">
        <ele>1078.26</ele>
        <time>2024-04-04T12:45:15Z</time>
      </trkpt>
      <trkpt lat="45.05568" lon="4.39075">
        <ele>1077.78</ele>
        <time>2024-04-04T12:45:31Z</time>
      </trkpt>
      <trkpt lat="45.05567" lon="4.39094">
        <ele>1076.81</ele>
        <time>2024-04-04T12:45:50Z</time>
      </trkpt>
      <trkpt lat="45.05566" lon="4.3911">
        <ele>1076.33</ele>
        <time>2024-04-04T12:46:01Z</time>
      </trkpt>
      <trkpt lat="45.05566" lon="4.39123">
        <ele>1075.85</ele>
        <time>2024-04-04T12:46:08Z</time>
      </trkpt>
      <trkpt lat="45.05562" lon="4.3916">
        <ele>1074.41</ele>
        <time>2024-04-04T12:46:27Z</time>
      </trkpt>
      <trkpt lat="45.0556" lon="4.39169">
        <ele>1073.93</ele>
        <time>2024-04-04T12:46:43Z</time>
      </trkpt>
      <trkpt lat="45.05544" lon="4.39192">
        <ele>1073.93</ele>
        <time>2024-04-04T12:47:04Z</time>
      </trkpt>
      <trkpt lat="45.0553" lon="4.39205">
        <ele>1076.81</ele>
        <time>2024-04-04T12:47:20Z</time>
      </trkpt>
      <trkpt lat="45.05508" lon="4.39218">
        <ele>1075.85</ele>
        <time>2024-04-04T12:47:36Z</time>
      </trkpt>
      <trkpt lat="45.05506" lon="4.39227">
        <ele>1075.85</ele>
        <time>2024-04-04T12:47:40Z</time>
      </trkpt>
      <trkpt lat="45.05483" lon="4.3923">
        <ele>1076.81</ele>
        <time>2024-04-04T12:47:58Z</time>
      </trkpt>
      <trkpt lat="45.05474" lon="4.39233">
        <ele>1076.81</ele>
        <time>2024-04-04T12:48:12Z</time>
      </trkpt>
      <trkpt lat="45.05473" lon="4.39234">
        <ele>1077.29</ele>
        <time>2024-04-04T12:48:19Z</time>
      </trkpt>
      <trkpt lat="45.0547" lon="4.39237">
        <ele>1077.78</ele>
        <time>2024-04-04T12:48:25Z</time>
      </trkpt>
      <trkpt lat="45.0546" lon="4.39241">
        <ele>1078.26</ele>
        <time>2024-04-04T12:48:35Z</time>
      </trkpt>
      <trkpt lat="45.05458" lon="4.39242">
        <ele>1078.26</ele>
        <time>2024-04-04T12:48:36Z</time>
      </trkpt>
      <trkpt lat="45.05439" lon="4.39244">
        <ele>1079.22</ele>
        <time>2024-04-04T12:48:48Z</time>
      </trkpt>
      <trkpt lat="45.05434" lon="4.39245">
        <ele>1079.22</ele>
        <time>2024-04-04T12:48:53Z</time>
      </trkpt>
      <trkpt lat="45.05422" lon="4.39257">
        <ele>1079.7</ele>
        <time>2024-04-04T12:49:06Z</time>
      </trkpt>
      <trkpt lat="45.05415" lon="4.39267">
        <ele>1080.66</ele>
        <time>2024-04-04T12:49:15Z</time>
      </trkpt>
      <trkpt lat="45.05412" lon="4.39275">
        <ele>1081.62</ele>
        <time>2024-04-04T12:49:22Z</time>
      </trkpt>
      <trkpt lat="45.05412" lon="4.39278">
        <ele>1082.58</ele>
        <time>2024-04-04T12:49:24Z</time>
      </trkpt>
      <trkpt lat="45.05413" lon="4.39282">
        <ele>1083.54</ele>
        <time>2024-04-04T12:49:27Z</time>
      </trkpt>
      <trkpt lat="45.05423" lon="4.39286">
        <ele>1085.95</ele>
        <time>2024-04-04T12:49:39Z</time>
      </trkpt>
      <trkpt lat="45.05433" lon="4.3929">
        <ele>1085.47</ele>
        <time>2024-04-04T12:49:47Z</time>
      </trkpt>
      <trkpt lat="45.05442" lon="4.39293">
        <ele>1085.95</ele>
        <time>2024-04-04T12:49:56Z</time>
      </trkpt>
      <trkpt lat="45.05449" lon="4.39295">
        <ele>1085.95</ele>
        <time>2024-04-04T12:50:01Z</time>
      </trkpt>
      <trkpt lat="45.05459" lon="4.39299">
        <ele>1087.39</ele>
        <time>2024-04-04T12:50:10Z</time>
      </trkpt>
      <trkpt lat="45.05469" lon="4.39304">
        <ele>1088.83</ele>
        <time>2024-04-04T12:50:20Z</time>
      </trkpt>
      <trkpt lat="45.05469" lon="4.39304">
        <ele>1088.83</ele>
        <time>2024-04-04T12:50:22Z</time>
      </trkpt>
      <trkpt lat="45.05474" lon="4.39307">
        <ele>1090.27</ele>
        <time>2024-04-04T12:50:27Z</time>
      </trkpt>
      <trkpt lat="45.05486" lon="4.39329">
        <ele>1091.23</ele>
        <time>2024-04-04T12:50:40Z</time>
      </trkpt>
      <trkpt lat="45.05486" lon="4.3933">
        <ele>1091.23</ele>
        <time>2024-04-04T12:50:41Z</time>
      </trkpt>
      <trkpt lat="45.05489" lon="4.39341">
        <ele>1090.75</ele>
        <time>2024-04-04T12:50:47Z</time>
      </trkpt>
      <trkpt lat="45.05494" lon="4.39363">
        <ele>1092.2</ele>
        <time>2024-04-04T12:50:59Z</time>
      </trkpt>
      <trkpt lat="45.05494" lon="4.39382">
        <ele>1092.68</ele>
        <time>2024-04-04T12:51:10Z</time>
      </trkpt>
      <trkpt lat="45.0549" lon="4.39398">
        <ele>1095.56</ele>
        <time>2024-04-04T12:51:21Z</time>
      </trkpt>
      <trkpt lat="45.05487" lon="4.39414">
        <ele>1098.92</ele>
        <time>2024-04-04T12:51:32Z</time>
      </trkpt>
      <trkpt lat="45.05487" lon="4.39434">
        <ele>1101.81</ele>
        <time>2024-04-04T12:51:43Z</time>
      </trkpt>
      <trkpt lat="45.05487" lon="4.39444">
        <ele>1101.81</ele>
        <time>2024-04-04T12:51:49Z</time>
      </trkpt>
      <trkpt lat="45.05485" lon="4.39456">
        <ele>1102.29</ele>
        <time>2024-04-04T12:51:57Z</time>
      </trkpt>
      <trkpt lat="45.05484" lon="4.39469">
        <ele>1101.33</ele>
        <time>2024-04-04T12:52:04Z</time>
      </trkpt>
      <trkpt lat="45.05485" lon="4.39482">
        <ele>1100.85</ele>
        <time>2024-04-04T12:52:19Z</time>
      </trkpt>
      <trkpt lat="45.05485" lon="4.39492">
        <ele>1099.4</ele>
        <time>2024-04-04T12:52:26Z</time>
      </trkpt>
      <trkpt lat="45.05489" lon="4.39503">
        <ele>1097.96</ele>
        <time>2024-04-04T12:52:30Z</time>
      </trkpt>
      <trkpt lat="45.05498" lon="4.39524">
        <ele>1098.92</ele>
        <time>2024-04-04T12:52:44Z</time>
      </trkpt>
      <trkpt lat="45.05509" lon="4.39542">
        <ele>1099.89</ele>
        <time>2024-04-04T12:52:58Z</time>
      </trkpt>
      <trkpt lat="45.05514" lon="4.39559">
        <ele>1101.33</ele>
        <time>2024-04-04T12:53:10Z</time>
      </trkpt>
      <trkpt lat="45.05524" lon="4.3958">
        <ele>1102.29</ele>
        <time>2024-04-04T12:53:23Z</time>
      </trkpt>
      <trkpt lat="45.05534" lon="4.39585">
        <ele>1102.29</ele>
        <time>2024-04-04T12:53:33Z</time>
      </trkpt>
      <trkpt lat="45.05545" lon="4.39583">
        <ele>1102.77</ele>
        <time>2024-04-04T12:53:43Z</time>
      </trkpt>
      <trkpt lat="45.05549" lon="4.39581">
        <ele>1102.77</ele>
        <time>2024-04-04T12:53:47Z</time>
      </trkpt>
      <trkpt lat="45.0556" lon="4.39578">
        <ele>1101.81</ele>
        <time>2024-04-04T12:53:58Z</time>
      </trkpt>
      <trkpt lat="45.05565" lon="4.39577">
        <ele>1100.37</ele>
        <time>2024-04-04T12:54:15Z</time>
      </trkpt>
      <trkpt lat="45.05582" lon="4.39571">
        <ele>1100.85</ele>
        <time>2024-04-04T12:54:27Z</time>
      </trkpt>
      <trkpt lat="45.05596" lon="4.39565">
        <ele>1100.85</ele>
        <time>2024-04-04T12:54:39Z</time>
      </trkpt>
      <trkpt lat="45.0561" lon="4.39565">
        <ele>1102.29</ele>
        <time>2024-04-04T12:54:53Z</time>
      </trkpt>
      <trkpt lat="45.05619" lon="4.39566">
        <ele>1104.69</ele>
        <time>2024-04-04T12:55:03Z</time>
      </trkpt>
      <trkpt lat="45.05632" lon="4.39569">
        <ele>1105.65</ele>
        <time>2024-04-04T12:55:17Z</time>
      </trkpt>
      <trkpt lat="45.05647" lon="4.39569">
        <ele>1106.13</ele>
        <time>2024-04-04T12:55:28Z</time>
      </trkpt>
      <trkpt lat="45.05666" lon="4.39571">
        <ele>1107.1</ele>
        <time>2024-04-04T12:55:43Z</time>
      </trkpt>
      <trkpt lat="45.0568" lon="4.39575">
        <ele>1108.54</ele>
        <time>2024-04-04T12:55:56Z</time>
      </trkpt>
      <trkpt lat="45.05696" lon="4.39579">
        <ele>1109.5</ele>
        <time>2024-04-04T12:56:10Z</time>
      </trkpt>
      <trkpt lat="45.0571" lon="4.39586">
        <ele>1109.98</ele>
        <time>2024-04-04T12:56:22Z</time>
      </trkpt>
      <trkpt lat="45.05727" lon="4.39598">
        <ele>1111.9</ele>
        <time>2024-04-04T12:56:36Z</time>
      </trkpt>
      <trkpt lat="45.05736" lon="4.39607">
        <ele>1111.9</ele>
        <time>2024-04-04T12:56:47Z</time>
      </trkpt>
      <trkpt lat="45.05737" lon="4.39607">
        <ele>1112.38</ele>
        <time>2024-04-04T12:56:52Z</time>
      </trkpt>
      <trkpt lat="45.05742" lon="4.39608">
        <ele>1111.9</ele>
        <time>2024-04-04T12:56:57Z</time>
      </trkpt>
      <trkpt lat="45.0575" lon="4.39608">
        <ele>1111.42</ele>
        <time>2024-04-04T12:57:05Z</time>
      </trkpt>
      <trkpt lat="45.05762" lon="4.39618">
        <ele>1111.42</ele>
        <time>2024-04-04T12:57:16Z</time>
      </trkpt>
      <trkpt lat="45.05766" lon="4.39619">
        <ele>1111.9</ele>
        <time>2024-04-04T12:57:30Z</time>
      </trkpt>
      <trkpt lat="45.05769" lon="4.39619">
        <ele>1111.42</ele>
        <time>2024-04-04T12:57:44Z</time>
      </trkpt>
      <trkpt lat="45.05771" lon="4.39618">
        <ele>1111.42</ele>
        <time>2024-04-04T12:58:01Z</time>
      </trkpt>
      <trkpt lat="45.05771" lon="4.39617">
        <ele>1111.42</ele>
        <time>2024-04-04T12:58:17Z</time>
      </trkpt>
      <trkpt lat="45.05772" lon="4.39617">
        <ele>1110.94</ele>
        <time>2024-04-04T12:58:39Z</time>
      </trkpt>
      <trkpt lat="45.05773" lon="4.39616">
        <ele>1110.46</ele>
        <time>2024-04-04T12:59:04Z</time>
      </trkpt>
      <trkpt lat="45.05774" lon="4.39615">
        <ele>1110.46</ele>
        <time>2024-04-04T12:59:25Z</time>
      </trkpt>
      <trkpt lat="45.05775" lon="4.39614">
        <ele>1110.46</ele>
        <time>2024-04-04T12:59:37Z</time>
      </trkpt>
      <trkpt lat="45.05783" lon="4.39606">
        <ele>1110.94</ele>
        <time>2024-04-04T12:59:55Z</time>
      </trkpt>
      <trkpt lat="45.058" lon="4.39577">
        <ele>1112.86</ele>
        <time>2024-04-04T13:00:17Z</time>
      </trkpt>
      <trkpt lat="45.05819" lon="4.39551">
        <ele>1113.34</ele>
        <time>2024-04-04T13:00:39Z</time>
      </trkpt>
      <trkpt lat="45.05837" lon="4.39525">
        <ele>1112.86</ele>
        <time>2024-04-04T13:01:01Z</time>
      </trkpt>
      <trkpt lat="45.05847" lon="4.39504">
        <ele>1112.38</ele>
        <time>2024-04-04T13:01:21Z</time>
      </trkpt>
      <trkpt lat="45.05868" lon="4.3947">
        <ele>1112.38</ele>
        <time>2024-04-04T13:01:44Z</time>
      </trkpt>
      <trkpt lat="45.05887" lon="4.39444">
        <ele>1111.9</ele>
        <time>2024-04-04T13:02:03Z</time>
      </trkpt>
      <trkpt lat="45.05892" lon="4.3943">
        <ele>1112.38</ele>
        <time>2024-04-04T13:02:09Z</time>
      </trkpt>
      <trkpt lat="45.05898" lon="4.39416">
        <ele>1115.27</ele>
        <time>2024-04-04T13:02:20Z</time>
      </trkpt>
      <trkpt lat="45.0591" lon="4.39405">
        <ele>1117.19</ele>
        <time>2024-04-04T13:02:30Z</time>
      </trkpt>
      <trkpt lat="45.0592" lon="4.39391">
        <ele>1118.15</ele>
        <time>2024-04-04T13:02:39Z</time>
      </trkpt>
      <trkpt lat="45.05928" lon="4.39381">
        <ele>1119.59</ele>
        <time>2024-04-04T13:02:47Z</time>
      </trkpt>
      <trkpt lat="45.05939" lon="4.39371">
        <ele>1120.55</ele>
        <time>2024-04-04T13:02:58Z</time>
      </trkpt>
      <trkpt lat="45.05945" lon="4.39371">
        <ele>1121.52</ele>
        <time>2024-04-04T13:03:04Z</time>
      </trkpt>
      <trkpt lat="45.05951" lon="4.39374">
        <ele>1122.48</ele>
        <time>2024-04-04T13:03:09Z</time>
      </trkpt>
      <trkpt lat="45.05957" lon="4.39373">
        <ele>1122.96</ele>
        <time>2024-04-04T13:03:13Z</time>
      </trkpt>
      <trkpt lat="45.05974" lon="4.39383">
        <ele>1124.88</ele>
        <time>2024-04-04T13:03:27Z</time>
      </trkpt>
      <trkpt lat="45.0599" lon="4.39388">
        <ele>1126.32</ele>
        <time>2024-04-04T13:03:40Z</time>
      </trkpt>
      <trkpt lat="45.0601" lon="4.39398">
        <ele>1124.88</ele>
        <time>2024-04-04T13:03:54Z</time>
      </trkpt>
      <trkpt lat="45.06025" lon="4.39409">
        <ele>1125.36</ele>
        <time>2024-04-04T13:04:06Z</time>
      </trkpt>
      <trkpt lat="45.0604" lon="4.3942">
        <ele>1126.8</ele>
        <time>2024-04-04T13:04:16Z</time>
      </trkpt>
      <trkpt lat="45.06044" lon="4.39422">
        <ele>1126.8</ele>
        <time>2024-04-04T13:04:22Z</time>
      </trkpt>
      <trkpt lat="45.06062" lon="4.39434">
        <ele>1129.69</ele>
        <time>2024-04-04T13:04:32Z</time>
      </trkpt>
      <trkpt lat="45.06074" lon="4.39445">
        <ele>1130.65</ele>
        <time>2024-04-04T13:04:43Z</time>
      </trkpt>
      <trkpt lat="45.0608" lon="4.39451">
        <ele>1132.09</ele>
        <time>2024-04-04T13:04:53Z</time>
      </trkpt>
      <trkpt lat="45.061" lon="4.39472">
        <ele>1134.49</ele>
        <time>2024-04-04T13:05:07Z</time>
      </trkpt>
      <trkpt lat="45.06116" lon="4.39485">
        <ele>1136.42</ele>
        <time>2024-04-04T13:05:19Z</time>
      </trkpt>
      <trkpt lat="45.0613" lon="4.39497">
        <ele>1135.94</ele>
        <time>2024-04-04T13:05:29Z</time>
      </trkpt>
      <trkpt lat="45.06148" lon="4.39506">
        <ele>1134.97</ele>
        <time>2024-04-04T13:05:41Z</time>
      </trkpt>
      <trkpt lat="45.06163" lon="4.39522">
        <ele>1133.53</ele>
        <time>2024-04-04T13:05:53Z</time>
      </trkpt>
      <trkpt lat="45.06178" lon="4.39536">
        <ele>1132.09</ele>
        <time>2024-04-04T13:06:06Z</time>
      </trkpt>
      <trkpt lat="45.06193" lon="4.3954">
        <ele>1133.53</ele>
        <time>2024-04-04T13:06:19Z</time>
      </trkpt>
      <trkpt lat="45.06195" lon="4.3954">
        <ele>1133.53</ele>
        <time>2024-04-04T13:06:21Z</time>
      </trkpt>
      <trkpt lat="45.06209" lon="4.39539">
        <ele>1134.01</ele>
        <time>2024-04-04T13:06:30Z</time>
      </trkpt>
      <trkpt lat="45.06221" lon="4.39537">
        <ele>1134.49</ele>
        <time>2024-04-04T13:06:38Z</time>
      </trkpt>
      <trkpt lat="45.06239" lon="4.39535">
        <ele>1134.49</ele>
        <time>2024-04-04T13:06:50Z</time>
      </trkpt>
      <trkpt lat="45.06255" lon="4.39537">
        <ele>1135.94</ele>
        <time>2024-04-04T13:07:02Z</time>
      </trkpt>
      <trkpt lat="45.06271" lon="4.39533">
        <ele>1136.9</ele>
        <time>2024-04-04T13:07:13Z</time>
      </trkpt>
      <trkpt lat="45.0629" lon="4.39533">
        <ele>1138.82</ele>
        <time>2024-04-04T13:07:28Z</time>
      </trkpt>
      <trkpt lat="45.06305" lon="4.39533">
        <ele>1140.74</ele>
        <time>2024-04-04T13:07:39Z</time>
      </trkpt>
      <trkpt lat="45.0632" lon="4.39534">
        <ele>1142.66</ele>
        <time>2024-04-04T13:07:51Z</time>
      </trkpt>
      <trkpt lat="45.06335" lon="4.39534">
        <ele>1144.59</ele>
        <time>2024-04-04T13:08:03Z</time>
      </trkpt>
      <trkpt lat="45.06347" lon="4.39535">
        <ele>1144.59</ele>
        <time>2024-04-04T13:08:13Z</time>
      </trkpt>
      <trkpt lat="45.06358" lon="4.39539">
        <ele>1146.51</ele>
        <time>2024-04-04T13:08:24Z</time>
      </trkpt>
      <trkpt lat="45.06369" lon="4.39541">
        <ele>1146.51</ele>
        <time>2024-04-04T13:08:33Z</time>
      </trkpt>
      <trkpt lat="45.06382" lon="4.39543">
        <ele>1146.99</ele>
        <time>2024-04-04T13:08:42Z</time>
      </trkpt>
      <trkpt lat="45.06395" lon="4.39544">
        <ele>1146.51</ele>
        <time>2024-04-04T13:08:52Z</time>
      </trkpt>
      <trkpt lat="45.06396" lon="4.39544">
        <ele>1146.51</ele>
        <time>2024-04-04T13:08:54Z</time>
      </trkpt>
      <trkpt lat="45.06404" lon="4.39546">
        <ele>1146.51</ele>
        <time>2024-04-04T13:09:02Z</time>
      </trkpt>
      <trkpt lat="45.06411" lon="4.39546">
        <ele>1146.51</ele>
        <time>2024-04-04T13:09:07Z</time>
      </trkpt>
      <trkpt lat="45.06414" lon="4.39546">
        <ele>1146.51</ele>
        <time>2024-04-04T13:09:10Z</time>
      </trkpt>
      <trkpt lat="45.06428" lon="4.39549">
        <ele>1146.99</ele>
        <time>2024-04-04T13:09:22Z</time>
      </trkpt>
      <trkpt lat="45.06445" lon="4.39553">
        <ele>1147.47</ele>
        <time>2024-04-04T13:09:33Z</time>
      </trkpt>
      <trkpt lat="45.06451" lon="4.39555">
        <ele>1146.99</ele>
        <time>2024-04-04T13:09:38Z</time>
      </trkpt>
      <trkpt lat="45.06465" lon="4.39549">
        <ele>1147.47</ele>
        <time>2024-04-04T13:09:48Z</time>
      </trkpt>
      <trkpt lat="45.06467" lon="4.39549">
        <ele>1147.47</ele>
        <time>2024-04-04T13:09:49Z</time>
      </trkpt>
      <trkpt lat="45.06474" lon="4.39548">
        <ele>1147.95</ele>
        <time>2024-04-04T13:09:53Z</time>
      </trkpt>
      <trkpt lat="45.06494" lon="4.39541">
        <ele>1148.91</ele>
        <time>2024-04-04T13:10:08Z</time>
      </trkpt>
      <trkpt lat="45.06501" lon="4.39539">
        <ele>1149.39</ele>
        <time>2024-04-04T13:10:13Z</time>
      </trkpt>
      <trkpt lat="45.06514" lon="4.3953">
        <ele>1151.32</ele>
        <time>2024-04-04T13:10:26Z</time>
      </trkpt>
      <trkpt lat="45.06524" lon="4.39523">
        <ele>1153.72</ele>
        <time>2024-04-04T13:10:36Z</time>
      </trkpt>
      <trkpt lat="45.06526" lon="4.39521">
        <ele>1155.64</ele>
        <time>2024-04-04T13:10:48Z</time>
      </trkpt>
      <trkpt lat="45.06527" lon="4.39521">
        <ele>1156.12</ele>
        <time>2024-04-04T13:11:11Z</time>
      </trkpt>
      <trkpt lat="45.06523" lon="4.39523">
        <ele>1155.64</ele>
        <time>2024-04-04T13:11:30Z</time>
      </trkpt>
      <trkpt lat="45.06522" lon="4.39511">
        <ele>1155.64</ele>
        <time>2024-04-04T13:11:47Z</time>
      </trkpt>
      <trkpt lat="45.06517" lon="4.39504">
        <ele>1154.68</ele>
        <time>2024-04-04T13:12:10Z</time>
      </trkpt>
      <trkpt lat="45.06514" lon="4.39499">
        <ele>1155.16</ele>
        <time>2024-04-04T13:12:39Z</time>
      </trkpt>
      <trkpt lat="45.06516" lon="4.39501">
        <ele>1155.16</ele>
        <time>2024-04-04T13:13:07Z</time>
      </trkpt>
      <trkpt lat="45.06518" lon="4.39506">
        <ele>1154.68</ele>
        <time>2024-04-04T13:13:30Z</time>
      </trkpt>
      <trkpt lat="45.06519" lon="4.39508">
        <ele>1153.72</ele>
        <time>2024-04-04T13:13:52Z</time>
      </trkpt>
      <trkpt lat="45.06521" lon="4.3951">
        <ele>1154.2</ele>
        <time>2024-04-04T13:14:17Z</time>
      </trkpt>
      <trkpt lat="45.06521" lon="4.3951">
        <ele>1154.2</ele>
        <time>2024-04-04T13:14:42Z</time>
      </trkpt>
      <trkpt lat="45.06521" lon="4.3951">
        <ele>1153.72</ele>
        <time>2024-04-04T13:15:04Z</time>
      </trkpt>
      <trkpt lat="45.06524" lon="4.39511">
        <ele>1153.72</ele>
        <time>2024-04-04T13:15:26Z</time>
      </trkpt>
      <trkpt lat="45.06528" lon="4.3951">
        <ele>1153.24</ele>
        <time>2024-04-04T13:15:50Z</time>
      </trkpt>
      <trkpt lat="45.06531" lon="4.39507">
        <ele>1153.72</ele>
        <time>2024-04-04T13:16:16Z</time>
      </trkpt>
      <trkpt lat="45.06532" lon="4.39508">
        <ele>1156.12</ele>
        <time>2024-04-04T13:16:33Z</time>
      </trkpt>
      <trkpt lat="45.06531" lon="4.39508">
        <ele>1155.64</ele>
        <time>2024-04-04T13:16:57Z</time>
      </trkpt>
      <trkpt lat="45.0653" lon="4.39506">
        <ele>1156.12</ele>
        <time>2024-04-04T13:17:07Z</time>
      </trkpt>
      <trkpt lat="45.06531" lon="4.39507">
        <ele>1156.12</ele>
        <time>2024-04-04T13:17:21Z</time>
      </trkpt>
      <trkpt lat="45.06534" lon="4.39507">
        <ele>1156.12</ele>
        <time>2024-04-04T13:17:35Z</time>
      </trkpt>
      <trkpt lat="45.06538" lon="4.39509">
        <ele>1156.6</ele>
        <time>2024-04-04T13:17:39Z</time>
      </trkpt>
      <trkpt lat="45.06553" lon="4.39514">
        <ele>1156.6</ele>
        <time>2024-04-04T13:17:51Z</time>
      </trkpt>
      <trkpt lat="45.06557" lon="4.39516">
        <ele>1157.08</ele>
        <time>2024-04-04T13:17:54Z</time>
      </trkpt>
      <trkpt lat="45.06576" lon="4.39529">
        <ele>1149.39</ele>
        <time>2024-04-04T13:18:06Z</time>
      </trkpt>
      <trkpt lat="45.0658" lon="4.3953">
        <ele>1149.39</ele>
        <time>2024-04-04T13:18:10Z</time>
      </trkpt>
      <trkpt lat="45.06581" lon="4.39531">
        <ele>1148.91</ele>
        <time>2024-04-04T13:18:13Z</time>
      </trkpt>
      <trkpt lat="45.06588" lon="4.3953">
        <ele>1150.35</ele>
        <time>2024-04-04T13:18:19Z</time>
      </trkpt>
      <trkpt lat="45.06593" lon="4.39528">
        <ele>1152.28</ele>
        <time>2024-04-04T13:18:23Z</time>
      </trkpt>
      <trkpt lat="45.06609" lon="4.39528">
        <ele>1156.12</ele>
        <time>2024-04-04T13:18:38Z</time>
      </trkpt>
      <trkpt lat="45.06624" lon="4.39527">
        <ele>1157.56</ele>
        <time>2024-04-04T13:18:51Z</time>
      </trkpt>
      <trkpt lat="45.06639" lon="4.39525">
        <ele>1161.89</ele>
        <time>2024-04-04T13:19:03Z</time>
      </trkpt>
      <trkpt lat="45.0665" lon="4.39524">
        <ele>1161.89</ele>
        <time>2024-04-04T13:19:11Z</time>
      </trkpt>
      <trkpt lat="45.06656" lon="4.39522">
        <ele>1163.33</ele>
        <time>2024-04-04T13:19:16Z</time>
      </trkpt>
      <trkpt lat="45.0666" lon="4.39517">
        <ele>1163.33</ele>
        <time>2024-04-04T13:19:21Z</time>
      </trkpt>
      <trkpt lat="45.06662" lon="4.39501">
        <ele>1164.77</ele>
        <time>2024-04-04T13:19:31Z</time>
      </trkpt>
      <trkpt lat="45.06665" lon="4.39483">
        <ele>1164.77</ele>
        <time>2024-04-04T13:19:42Z</time>
      </trkpt>
      <trkpt lat="45.06665" lon="4.39463">
        <ele>1164.77</ele>
        <time>2024-04-04T13:19:53Z</time>
      </trkpt>
      <trkpt lat="45.06666" lon="4.39448">
        <ele>1164.77</ele>
        <time>2024-04-04T13:20:02Z</time>
      </trkpt>
      <trkpt lat="45.06671" lon="4.39426">
        <ele>1165.26</ele>
        <time>2024-04-04T13:20:13Z</time>
      </trkpt>
      <trkpt lat="45.06676" lon="4.3941">
        <ele>1165.26</ele>
        <time>2024-04-04T13:20:23Z</time>
      </trkpt>
      <trkpt lat="45.06677" lon="4.39405">
        <ele>1165.74</ele>
        <time>2024-04-04T13:20:26Z</time>
      </trkpt>
      <trkpt lat="45.06683" lon="4.39386">
        <ele>1166.22</ele>
        <time>2024-04-04T13:20:37Z</time>
      </trkpt>
      <trkpt lat="45.06688" lon="4.39368">
        <ele>1166.22</ele>
        <time>2024-04-04T13:20:47Z</time>
      </trkpt>
      <trkpt lat="45.06694" lon="4.3935">
        <ele>1166.7</ele>
        <time>2024-04-04T13:20:58Z</time>
      </trkpt>
      <trkpt lat="45.06699" lon="4.39332">
        <ele>1166.22</ele>
        <time>2024-04-04T13:21:09Z</time>
      </trkpt>
      <trkpt lat="45.06705" lon="4.39316">
        <ele>1165.26</ele>
        <time>2024-04-04T13:21:19Z</time>
      </trkpt>
      <trkpt lat="45.06711" lon="4.39296">
        <ele>1165.74</ele>
        <time>2024-04-04T13:21:30Z</time>
      </trkpt>
      <trkpt lat="45.06718" lon="4.39282">
        <ele>1166.22</ele>
        <time>2024-04-04T13:21:41Z</time>
      </trkpt>
      <trkpt lat="45.06725" lon="4.39268">
        <ele>1166.22</ele>
        <time>2024-04-04T13:21:50Z</time>
      </trkpt>
      <trkpt lat="45.06727" lon="4.39264">
        <ele>1166.7</ele>
        <time>2024-04-04T13:21:53Z</time>
      </trkpt>
      <trkpt lat="45.06732" lon="4.39247">
        <ele>1168.14</ele>
        <time>2024-04-04T13:22:04Z</time>
      </trkpt>
      <trkpt lat="45.06736" lon="4.3923">
        <ele>1168.62</ele>
        <time>2024-04-04T13:22:14Z</time>
      </trkpt>
      <trkpt lat="45.06742" lon="4.39209">
        <ele>1170.54</ele>
        <time>2024-04-04T13:22:27Z</time>
      </trkpt>
      <trkpt lat="45.06747" lon="4.39192">
        <ele>1171.98</ele>
        <time>2024-04-04T13:22:39Z</time>
      </trkpt>
      <trkpt lat="45.06755" lon="4.39171">
        <ele>1171.98</ele>
        <time>2024-04-04T13:22:52Z</time>
      </trkpt>
      <trkpt lat="45.06759" lon="4.39154">
        <ele>1173.43</ele>
        <time>2024-04-04T13:23:02Z</time>
      </trkpt>
      <trkpt lat="45.06764" lon="4.39134">
        <ele>1174.39</ele>
        <time>2024-04-04T13:23:13Z</time>
      </trkpt>
      <trkpt lat="45.0677" lon="4.3912">
        <ele>1175.35</ele>
        <time>2024-04-04T13:23:23Z</time>
      </trkpt>
      <trkpt lat="45.0677" lon="4.39113">
        <ele>1174.87</ele>
        <time>2024-04-04T13:23:33Z</time>
      </trkpt>
      <trkpt lat="45.06776" lon="4.39099">
        <ele>1174.87</ele>
        <time>2024-04-04T13:23:43Z</time>
      </trkpt>
      <trkpt lat="45.06781" lon="4.39085">
        <ele>1173.91</ele>
        <time>2024-04-04T13:23:51Z</time>
      </trkpt>
      <trkpt lat="45.06786" lon="4.39071">
        <ele>1173.91</ele>
        <time>2024-04-04T13:24:00Z</time>
      </trkpt>
      <trkpt lat="45.06786" lon="4.39062">
        <ele>1173.43</ele>
        <time>2024-04-04T13:24:10Z</time>
      </trkpt>
      <trkpt lat="45.06786" lon="4.39061">
        <ele>1173.91</ele>
        <time>2024-04-04T13:24:19Z</time>
      </trkpt>
      <trkpt lat="45.06787" lon="4.39052">
        <ele>1172.95</ele>
        <time>2024-04-04T13:24:25Z</time>
      </trkpt>
      <trkpt lat="45.0679" lon="4.39036">
        <ele>1171.02</ele>
        <time>2024-04-04T13:24:37Z</time>
      </trkpt>
      <trkpt lat="45.06793" lon="4.39019">
        <ele>1170.06</ele>
        <time>2024-04-04T13:24:48Z</time>
      </trkpt>
      <trkpt lat="45.06796" lon="4.39009">
        <ele>1168.14</ele>
        <time>2024-04-04T13:24:54Z</time>
      </trkpt>
      <trkpt lat="45.06798" lon="4.39007">
        <ele>1167.66</ele>
        <time>2024-04-04T13:24:57Z</time>
      </trkpt>
      <trkpt lat="45.06805" lon="4.39008">
        <ele>1166.22</ele>
        <time>2024-04-04T13:25:09Z</time>
      </trkpt>
      <trkpt lat="45.06809" lon="4.39008">
        <ele>1164.77</ele>
        <time>2024-04-04T13:25:19Z</time>
      </trkpt>
      <trkpt lat="45.06828" lon="4.39014">
        <ele>1163.81</ele>
        <time>2024-04-04T13:25:35Z</time>
      </trkpt>
      <trkpt lat="45.06837" lon="4.3901">
        <ele>1163.81</ele>
        <time>2024-04-04T13:25:52Z</time>
      </trkpt>
      <trkpt lat="45.06851" lon="4.39016">
        <ele>1165.74</ele>
        <time>2024-04-04T13:26:13Z</time>
      </trkpt>
      <trkpt lat="45.06873" lon="4.39022">
        <ele>1167.18</ele>
        <time>2024-04-04T13:26:33Z</time>
      </trkpt>
      <trkpt lat="45.06902" lon="4.39025">
        <ele>1171.5</ele>
        <time>2024-04-04T13:26:57Z</time>
      </trkpt>
      <trkpt lat="45.06934" lon="4.39026">
        <ele>1175.35</ele>
        <time>2024-04-04T13:27:20Z</time>
      </trkpt>
      <trkpt lat="45.06951" lon="4.39029">
        <ele>1177.75</ele>
        <time>2024-04-04T13:27:34Z</time>
      </trkpt>
      <trkpt lat="45.06968" lon="4.39033">
        <ele>1181.12</ele>
        <time>2024-04-04T13:27:48Z</time>
      </trkpt>
      <trkpt lat="45.06979" lon="4.39034">
        <ele>1180.16</ele>
        <time>2024-04-04T13:27:56Z</time>
      </trkpt>
      <trkpt lat="45.07" lon="4.39038">
        <ele>1178.71</ele>
        <time>2024-04-04T13:28:11Z</time>
      </trkpt>
      <trkpt lat="45.07016" lon="4.3904">
        <ele>1179.67</ele>
        <time>2024-04-04T13:28:22Z</time>
      </trkpt>
      <trkpt lat="45.07027" lon="4.39037">
        <ele>1179.19</ele>
        <time>2024-04-04T13:28:30Z</time>
      </trkpt>
      <trkpt lat="45.07044" lon="4.39034">
        <ele>1177.75</ele>
        <time>2024-04-04T13:28:42Z</time>
      </trkpt>
      <trkpt lat="45.07065" lon="4.3903">
        <ele>1177.75</ele>
        <time>2024-04-04T13:28:58Z</time>
      </trkpt>
      <trkpt lat="45.07078" lon="4.39027">
        <ele>1178.23</ele>
        <time>2024-04-04T13:29:10Z</time>
      </trkpt>
      <trkpt lat="45.07089" lon="4.39023">
        <ele>1178.23</ele>
        <time>2024-04-04T13:29:18Z</time>
      </trkpt>
      <trkpt lat="45.07108" lon="4.39028">
        <ele>1177.27</ele>
        <time>2024-04-04T13:29:30Z</time>
      </trkpt>
      <trkpt lat="45.07118" lon="4.39034">
        <ele>1178.23</ele>
        <time>2024-04-04T13:29:40Z</time>
      </trkpt>
      <trkpt lat="45.07129" lon="4.39046">
        <ele>1180.16</ele>
        <time>2024-04-04T13:29:52Z</time>
      </trkpt>
      <trkpt lat="45.07141" lon="4.39068">
        <ele>1180.16</ele>
        <time>2024-04-04T13:30:06Z</time>
      </trkpt>
      <trkpt lat="45.07147" lon="4.39087">
        <ele>1180.64</ele>
        <time>2024-04-04T13:30:17Z</time>
      </trkpt>
      <trkpt lat="45.07153" lon="4.39105">
        <ele>1179.67</ele>
        <time>2024-04-04T13:30:28Z</time>
      </trkpt>
      <trkpt lat="45.07159" lon="4.39124">
        <ele>1179.19</ele>
        <time>2024-04-04T13:30:40Z</time>
      </trkpt>
      <trkpt lat="45.07168" lon="4.39142">
        <ele>1178.71</ele>
        <time>2024-04-04T13:30:51Z</time>
      </trkpt>
      <trkpt lat="45.07178" lon="4.39154">
        <ele>1179.19</ele>
        <time>2024-04-04T13:31:01Z</time>
      </trkpt>
      <trkpt lat="45.07185" lon="4.39157">
        <ele>1179.67</ele>
        <time>2024-04-04T13:31:08Z</time>
      </trkpt>
      <trkpt lat="45.0719" lon="4.39161">
        <ele>1180.16</ele>
        <time>2024-04-04T13:31:13Z</time>
      </trkpt>
      <trkpt lat="45.07203" lon="4.39164">
        <ele>1181.6</ele>
        <time>2024-04-04T13:31:24Z</time>
      </trkpt>
      <trkpt lat="45.07216" lon="4.39168">
        <ele>1184</ele>
        <time>2024-04-04T13:31:36Z</time>
      </trkpt>
      <trkpt lat="45.07233" lon="4.39173">
        <ele>1182.08</ele>
        <time>2024-04-04T13:31:49Z</time>
      </trkpt>
      <trkpt lat="45.07246" lon="4.39183">
        <ele>1180.64</ele>
        <time>2024-04-04T13:32:01Z</time>
      </trkpt>
      <trkpt lat="45.07247" lon="4.39184">
        <ele>1180.64</ele>
        <time>2024-04-04T13:32:02Z</time>
      </trkpt>
      <trkpt lat="45.07264" lon="4.39191">
        <ele>1181.12</ele>
        <time>2024-04-04T13:32:15Z</time>
      </trkpt>
      <trkpt lat="45.07276" lon="4.39194">
        <ele>1182.08</ele>
        <time>2024-04-04T13:32:26Z</time>
      </trkpt>
      <trkpt lat="45.07286" lon="4.39198">
        <ele>1183.52</ele>
        <time>2024-04-04T13:32:35Z</time>
      </trkpt>
      <trkpt lat="45.07301" lon="4.39203">
        <ele>1185.92</ele>
        <time>2024-04-04T13:32:47Z</time>
      </trkpt>
      <trkpt lat="45.07316" lon="4.39207">
        <ele>1188.81</ele>
        <time>2024-04-04T13:32:59Z</time>
      </trkpt>
      <trkpt lat="45.07322" lon="4.39208">
        <ele>1190.73</ele>
        <time>2024-04-04T13:33:04Z</time>
      </trkpt>
      <trkpt lat="45.07332" lon="4.39213">
        <ele>1192.65</ele>
        <time>2024-04-04T13:33:14Z</time>
      </trkpt>
      <trkpt lat="45.07341" lon="4.39216">
        <ele>1193.61</ele>
        <time>2024-04-04T13:33:22Z</time>
      </trkpt>
      <trkpt lat="45.07358" lon="4.39221">
        <ele>1195.06</ele>
        <time>2024-04-04T13:33:33Z</time>
      </trkpt>
      <trkpt lat="45.07364" lon="4.39221">
        <ele>1195.06</ele>
        <time>2024-04-04T13:33:39Z</time>
      </trkpt>
      <trkpt lat="45.07379" lon="4.3922">
        <ele>1190.25</ele>
        <time>2024-04-04T13:33:50Z</time>
      </trkpt>
      <trkpt lat="45.07395" lon="4.39223">
        <ele>1188.81</ele>
        <time>2024-04-04T13:34:03Z</time>
      </trkpt>
      <trkpt lat="45.07407" lon="4.39226">
        <ele>1187.37</ele>
        <time>2024-04-04T13:34:13Z</time>
      </trkpt>
      <trkpt lat="45.07408" lon="4.39226">
        <ele>1187.37</ele>
        <time>2024-04-04T13:34:14Z</time>
      </trkpt>
      <trkpt lat="45.07416" lon="4.39227">
        <ele>1187.37</ele>
        <time>2024-04-04T13:34:19Z</time>
      </trkpt>
      <trkpt lat="45.07433" lon="4.39224">
        <ele>1186.88</ele>
        <time>2024-04-04T13:34:30Z</time>
      </trkpt>
      <trkpt lat="45.07446" lon="4.39221">
        <ele>1186.4</ele>
        <time>2024-04-04T13:34:41Z</time>
      </trkpt>
      <trkpt lat="45.07456" lon="4.39219">
        <ele>1185.92</ele>
        <time>2024-04-04T13:34:49Z</time>
      </trkpt>
      <trkpt lat="45.07466" lon="4.39217">
        <ele>1184.48</ele>
        <time>2024-04-04T13:34:57Z</time>
      </trkpt>
      <trkpt lat="45.0748" lon="4.39215">
        <ele>1183.04</ele>
        <time>2024-04-04T13:35:09Z</time>
      </trkpt>
      <trkpt lat="45.07492" lon="4.39213">
        <ele>1181.6</ele>
        <time>2024-04-04T13:35:18Z</time>
      </trkpt>
      <trkpt lat="45.07503" lon="4.39209">
        <ele>1180.64</ele>
        <time>2024-04-04T13:35:27Z</time>
      </trkpt>
      <trkpt lat="45.07509" lon="4.39206">
        <ele>1180.64</ele>
        <time>2024-04-04T13:35:35Z</time>
      </trkpt>
      <trkpt lat="45.07518" lon="4.39204">
        <ele>1181.12</ele>
        <time>2024-04-04T13:35:43Z</time>
      </trkpt>
      <trkpt lat="45.07519" lon="4.39203">
        <ele>1181.6</ele>
        <time>2024-04-04T13:35:45Z</time>
      </trkpt>
      <trkpt lat="45.07536" lon="4.39195">
        <ele>1181.6</ele>
        <time>2024-04-04T13:35:58Z</time>
      </trkpt>
      <trkpt lat="45.07552" lon="4.39191">
        <ele>1178.23</ele>
        <time>2024-04-04T13:36:11Z</time>
      </trkpt>
      <trkpt lat="45.07568" lon="4.39192">
        <ele>1175.35</ele>
        <time>2024-04-04T13:36:24Z</time>
      </trkpt>
      <trkpt lat="45.07582" lon="4.39192">
        <ele>1172.47</ele>
        <time>2024-04-04T13:36:40Z</time>
      </trkpt>
      <trkpt lat="45.07591" lon="4.3919">
        <ele>1173.91</ele>
        <time>2024-04-04T13:36:44Z</time>
      </trkpt>
      <trkpt lat="45.07607" lon="4.39188">
        <ele>1173.91</ele>
        <time>2024-04-04T13:36:58Z</time>
      </trkpt>
      <trkpt lat="45.07615" lon="4.39194">
        <ele>1174.39</ele>
        <time>2024-04-04T13:37:06Z</time>
      </trkpt>
      <trkpt lat="45.07628" lon="4.39195">
        <ele>1176.31</ele>
        <time>2024-04-04T13:37:18Z</time>
      </trkpt>
      <trkpt lat="45.0763" lon="4.39197">
        <ele>1176.31</ele>
        <time>2024-04-04T13:37:21Z</time>
      </trkpt>
      <trkpt lat="45.07648" lon="4.39204">
        <ele>1177.27</ele>
        <time>2024-04-04T13:37:36Z</time>
      </trkpt>
      <trkpt lat="45.07665" lon="4.39219">
        <ele>1176.31</ele>
        <time>2024-04-04T13:37:51Z</time>
      </trkpt>
      <trkpt lat="45.07675" lon="4.39225">
        <ele>1176.31</ele>
        <time>2024-04-04T13:38:01Z</time>
      </trkpt>
      <trkpt lat="45.07687" lon="4.3923">
        <ele>1179.67</ele>
        <time>2024-04-04T13:38:16Z</time>
      </trkpt>
      <trkpt lat="45.07701" lon="4.39243">
        <ele>1180.64</ele>
        <time>2024-04-04T13:38:31Z</time>
      </trkpt>
      <trkpt lat="45.07718" lon="4.39257">
        <ele>1181.6</ele>
        <time>2024-04-04T13:38:44Z</time>
      </trkpt>
      <trkpt lat="45.0773" lon="4.39272">
        <ele>1183.04</ele>
        <time>2024-04-04T13:39:00Z</time>
      </trkpt>
      <trkpt lat="45.0774" lon="4.39273">
        <ele>1184</ele>
        <time>2024-04-04T13:39:12Z</time>
      </trkpt>
      <trkpt lat="45.07742" lon="4.39274">
        <ele>1183.04</ele>
        <time>2024-04-04T13:39:15Z</time>
      </trkpt>
      <trkpt lat="45.07746" lon="4.3928">
        <ele>1183.52</ele>
        <time>2024-04-04T13:39:22Z</time>
      </trkpt>
      <trkpt lat="45.0776" lon="4.39289">
        <ele>1183.52</ele>
        <time>2024-04-04T13:39:34Z</time>
      </trkpt>
      <trkpt lat="45.07769" lon="4.39294">
        <ele>1185.92</ele>
        <time>2024-04-04T13:39:45Z</time>
      </trkpt>
      <trkpt lat="45.07774" lon="4.39294">
        <ele>1185.92</ele>
        <time>2024-04-04T13:39:49Z</time>
      </trkpt>
      <trkpt lat="45.07781" lon="4.39294">
        <ele>1185.44</ele>
        <time>2024-04-04T13:39:54Z</time>
      </trkpt>
      <trkpt lat="45.07789" lon="4.39299">
        <ele>1184.96</ele>
        <time>2024-04-04T13:40:00Z</time>
      </trkpt>
      <trkpt lat="45.07804" lon="4.39305">
        <ele>1185.92</ele>
        <time>2024-04-04T13:40:10Z</time>
      </trkpt>
      <trkpt lat="45.07815" lon="4.39308">
        <ele>1185.92</ele>
        <time>2024-04-04T13:40:19Z</time>
      </trkpt>
      <trkpt lat="45.07827" lon="4.39314">
        <ele>1185.44</ele>
        <time>2024-04-04T13:40:30Z</time>
      </trkpt>
      <trkpt lat="45.07838" lon="4.39319">
        <ele>1184.96</ele>
        <time>2024-04-04T13:40:39Z</time>
      </trkpt>
      <trkpt lat="45.07848" lon="4.39324">
        <ele>1184.48</ele>
        <time>2024-04-04T13:40:47Z</time>
      </trkpt>
      <trkpt lat="45.07858" lon="4.39327">
        <ele>1184.96</ele>
        <time>2024-04-04T13:40:57Z</time>
      </trkpt>
      <trkpt lat="45.0786" lon="4.39328">
        <ele>1185.44</ele>
        <time>2024-04-04T13:41:02Z</time>
      </trkpt>
      <trkpt lat="45.07865" lon="4.39329">
        <ele>1186.4</ele>
        <time>2024-04-04T13:41:14Z</time>
      </trkpt>
      <trkpt lat="45.07866" lon="4.39331">
        <ele>1187.37</ele>
        <time>2024-04-04T13:41:25Z</time>
      </trkpt>
      <trkpt lat="45.07866" lon="4.39332">
        <ele>1186.88</ele>
        <time>2024-04-04T13:41:55Z</time>
      </trkpt>
      <trkpt lat="45.07867" lon="4.39332">
        <ele>1186.88</ele>
        <time>2024-04-04T13:42:14Z</time>
      </trkpt>
      <trkpt lat="45.07868" lon="4.39332">
        <ele>1187.37</ele>
        <time>2024-04-04T13:42:25Z</time>
      </trkpt>
      <trkpt lat="45.07868" lon="4.39332">
        <ele>1187.37</ele>
        <time>2024-04-04T13:42:42Z</time>
      </trkpt>
      <trkpt lat="45.07868" lon="4.39332">
        <ele>1187.37</ele>
        <time>2024-04-04T13:42:49Z</time>
      </trkpt>
      <trkpt lat="45.07867" lon="4.39332">
        <ele>1187.37</ele>
        <time>2024-04-04T13:42:57Z</time>
      </trkpt>
      <trkpt lat="45.07867" lon="4.39332">
        <ele>1188.33</ele>
        <time>2024-04-04T13:43:05Z</time>
      </trkpt>
      <trkpt lat="45.07867" lon="4.39332">
        <ele>1187.85</ele>
        <time>2024-04-04T13:43:17Z</time>
      </trkpt>
      <trkpt lat="45.07867" lon="4.39332">
        <ele>1188.33</ele>
        <time>2024-04-04T13:43:32Z</time>
      </trkpt>
      <trkpt lat="45.07867" lon="4.39331">
        <ele>1188.81</ele>
        <time>2024-04-04T13:43:43Z</time>
      </trkpt>
      <trkpt lat="45.07868" lon="4.39331">
        <ele>1188.33</ele>
        <time>2024-04-04T13:43:45Z</time>
      </trkpt>
      <trkpt lat="45.07869" lon="4.39333">
        <ele>1188.33</ele>
        <time>2024-04-04T13:43:48Z</time>
      </trkpt>
      <trkpt lat="45.07879" lon="4.3934">
        <ele>1189.29</ele>
        <time>2024-04-04T13:44:02Z</time>
      </trkpt>
      <trkpt lat="45.07887" lon="4.39346">
        <ele>1186.4</ele>
        <time>2024-04-04T13:44:11Z</time>
      </trkpt>
      <trkpt lat="45.07894" lon="4.39351">
        <ele>1185.44</ele>
        <time>2024-04-04T13:44:20Z</time>
      </trkpt>
      <trkpt lat="45.07898" lon="4.39353">
        <ele>1186.4</ele>
        <time>2024-04-04T13:44:29Z</time>
      </trkpt>
      <trkpt lat="45.079" lon="4.39352">
        <ele>1187.37</ele>
        <time>2024-04-04T13:44:41Z</time>
      </trkpt>
      <trkpt lat="45.079" lon="4.39351">
        <ele>1187.37</ele>
        <time>2024-04-04T13:44:43Z</time>
      </trkpt>
      <trkpt lat="45.07901" lon="4.39353">
        <ele>1187.85</ele>
        <time>2024-04-04T13:44:55Z</time>
      </trkpt>
      <trkpt lat="45.079" lon="4.39353">
        <ele>1187.85</ele>
        <time>2024-04-04T13:45:11Z</time>
      </trkpt>
      <trkpt lat="45.079" lon="4.39353">
        <ele>1187.85</ele>
        <time>2024-04-04T13:45:30Z</time>
      </trkpt>
      <trkpt lat="45.079" lon="4.39352">
        <ele>1187.85</ele>
        <time>2024-04-04T13:45:42Z</time>
      </trkpt>
      <trkpt lat="45.079" lon="4.39352">
        <ele>1187.85</ele>
        <time>2024-04-04T13:46:05Z</time>
      </trkpt>
      <trkpt lat="45.07901" lon="4.39352">
        <ele>1188.33</ele>
        <time>2024-04-04T13:46:16Z</time>
      </trkpt>
      <trkpt lat="45.07903" lon="4.39351">
        <ele>1188.81</ele>
        <time>2024-04-04T13:46:31Z</time>
      </trkpt>
      <trkpt lat="45.07903" lon="4.3935">
        <ele>1188.81</ele>
        <time>2024-04-04T13:46:37Z</time>
      </trkpt>
      <trkpt lat="45.0791" lon="4.39347">
        <ele>1189.29</ele>
        <time>2024-04-04T13:46:43Z</time>
      </trkpt>
      <trkpt lat="45.07919" lon="4.3933">
        <ele>1191.69</ele>
        <time>2024-04-04T13:46:55Z</time>
      </trkpt>
      <trkpt lat="45.07925" lon="4.3931">
        <ele>1192.17</ele>
        <time>2024-04-04T13:47:07Z</time>
      </trkpt>
      <trkpt lat="45.0793" lon="4.3929">
        <ele>1192.65</ele>
        <time>2024-04-04T13:47:18Z</time>
      </trkpt>
      <trkpt lat="45.07935" lon="4.39279">
        <ele>1192.65</ele>
        <time>2024-04-04T13:47:28Z</time>
      </trkpt>
      <trkpt lat="45.07948" lon="4.39271">
        <ele>1193.13</ele>
        <time>2024-04-04T13:47:38Z</time>
      </trkpt>
      <trkpt lat="45.07959" lon="4.39268">
        <ele>1193.61</ele>
        <time>2024-04-04T13:47:47Z</time>
      </trkpt>
      <trkpt lat="45.07972" lon="4.39267">
        <ele>1194.58</ele>
        <time>2024-04-04T13:47:56Z</time>
      </trkpt>
      <trkpt lat="45.07985" lon="4.39265">
        <ele>1195.06</ele>
        <time>2024-04-04T13:48:05Z</time>
      </trkpt>
      <trkpt lat="45.07986" lon="4.39266">
        <ele>1195.06</ele>
        <time>2024-04-04T13:48:07Z</time>
      </trkpt>
      <trkpt lat="45.08" lon="4.39262">
        <ele>1196.02</ele>
        <time>2024-04-04T13:48:19Z</time>
      </trkpt>
      <trkpt lat="45.08012" lon="4.39259">
        <ele>1196.98</ele>
        <time>2024-04-04T13:48:28Z</time>
      </trkpt>
      <trkpt lat="45.08013" lon="4.39259">
        <ele>1197.46</ele>
        <time>2024-04-04T13:48:30Z</time>
      </trkpt>
      <trkpt lat="45.08026" lon="4.39252">
        <ele>1197.46</ele>
        <time>2024-04-04T13:48:40Z</time>
      </trkpt>
      <trkpt lat="45.08037" lon="4.39244">
        <ele>1196.5</ele>
        <time>2024-04-04T13:48:50Z</time>
      </trkpt>
      <trkpt lat="45.0804" lon="4.39243">
        <ele>1196.02</ele>
        <time>2024-04-04T13:48:54Z</time>
      </trkpt>
      <trkpt lat="45.08051" lon="4.39235">
        <ele>1195.06</ele>
        <time>2024-04-04T13:49:04Z</time>
      </trkpt>
      <trkpt lat="45.08065" lon="4.39226">
        <ele>1195.06</ele>
        <time>2024-04-04T13:49:14Z</time>
      </trkpt>
      <trkpt lat="45.08075" lon="4.39216">
        <ele>1196.02</ele>
        <time>2024-04-04T13:49:24Z</time>
      </trkpt>
      <trkpt lat="45.08076" lon="4.39213">
        <ele>1196.02</ele>
        <time>2024-04-04T13:49:27Z</time>
      </trkpt>
      <trkpt lat="45.08076" lon="4.39205">
        <ele>1196.5</ele>
        <time>2024-04-04T13:49:31Z</time>
      </trkpt>
      <trkpt lat="45.08075" lon="4.3918">
        <ele>1197.94</ele>
        <time>2024-04-04T13:49:46Z</time>
      </trkpt>
      <trkpt lat="45.08073" lon="4.39156">
        <ele>1201.3</ele>
        <time>2024-04-04T13:49:59Z</time>
      </trkpt>
      <trkpt lat="45.08073" lon="4.3915">
        <ele>1202.27</ele>
        <time>2024-04-04T13:50:04Z</time>
      </trkpt>
      <trkpt lat="45.08072" lon="4.39129">
        <ele>1203.23</ele>
        <time>2024-04-04T13:50:15Z</time>
      </trkpt>
      <trkpt lat="45.08072" lon="4.3911">
        <ele>1203.23</ele>
        <time>2024-04-04T13:50:25Z</time>
      </trkpt>
      <trkpt lat="45.08073" lon="4.39091">
        <ele>1204.19</ele>
        <time>2024-04-04T13:50:35Z</time>
      </trkpt>
      <trkpt lat="45.08073" lon="4.3909">
        <ele>1204.19</ele>
        <time>2024-04-04T13:50:36Z</time>
      </trkpt>
      <trkpt lat="45.08071" lon="4.39066">
        <ele>1203.71</ele>
        <time>2024-04-04T13:50:48Z</time>
      </trkpt>
      <trkpt lat="45.0807" lon="4.39045">
        <ele>1204.19</ele>
        <time>2024-04-04T13:51:00Z</time>
      </trkpt>
      <trkpt lat="45.08068" lon="4.39029">
        <ele>1205.63</ele>
        <time>2024-04-04T13:51:09Z</time>
      </trkpt>
      <trkpt lat="45.08068" lon="4.39018">
        <ele>1206.11</ele>
        <time>2024-04-04T13:51:16Z</time>
      </trkpt>
      <trkpt lat="45.08068" lon="4.39015">
        <ele>1206.11</ele>
        <time>2024-04-04T13:51:18Z</time>
      </trkpt>
      <trkpt lat="45.08066" lon="4.3899">
        <ele>1207.07</ele>
        <time>2024-04-04T13:51:32Z</time>
      </trkpt>
      <trkpt lat="45.08064" lon="4.38972">
        <ele>1207.55</ele>
        <time>2024-04-04T13:51:44Z</time>
      </trkpt>
      <trkpt lat="45.08066" lon="4.38967">
        <ele>1209</ele>
        <time>2024-04-04T13:51:58Z</time>
      </trkpt>
      <trkpt lat="45.08064" lon="4.38969">
        <ele>1209.96</ele>
        <time>2024-04-04T13:52:18Z</time>
      </trkpt>
      <trkpt lat="45.08064" lon="4.38967">
        <ele>1209</ele>
        <time>2024-04-04T13:52:43Z</time>
      </trkpt>
      <trkpt lat="45.08065" lon="4.38966">
        <ele>1205.63</ele>
        <time>2024-04-04T13:53:04Z</time>
      </trkpt>
      <trkpt lat="45.08065" lon="4.38967">
        <ele>1206.11</ele>
        <time>2024-04-04T13:53:28Z</time>
      </trkpt>
      <trkpt lat="45.08065" lon="4.38967">
        <ele>1205.63</ele>
        <time>2024-04-04T13:53:56Z</time>
      </trkpt>
      <trkpt lat="45.08063" lon="4.38964">
        <ele>1205.15</ele>
        <time>2024-04-04T13:54:22Z</time>
      </trkpt>
      <trkpt lat="45.08061" lon="4.38959">
        <ele>1206.11</ele>
        <time>2024-04-04T13:54:44Z</time>
      </trkpt>
      <trkpt lat="45.0806" lon="4.38928">
        <ele>1205.15</ele>
        <time>2024-04-04T13:55:06Z</time>
      </trkpt>
      <trkpt lat="45.0805" lon="4.38889">
        <ele>1202.75</ele>
        <time>2024-04-04T13:55:30Z</time>
      </trkpt>
      <trkpt lat="45.08039" lon="4.38844">
        <ele>1203.71</ele>
        <time>2024-04-04T13:55:55Z</time>
      </trkpt>
      <trkpt lat="45.08034" lon="4.38835">
        <ele>1202.27</ele>
        <time>2024-04-04T13:55:58Z</time>
      </trkpt>
      <trkpt lat="45.08029" lon="4.38822">
        <ele>1202.75</ele>
        <time>2024-04-04T13:56:04Z</time>
      </trkpt>
      <trkpt lat="45.08023" lon="4.38801">
        <ele>1202.27</ele>
        <time>2024-04-04T13:56:17Z</time>
      </trkpt>
      <trkpt lat="45.08022" lon="4.38796">
        <ele>1201.79</ele>
        <time>2024-04-04T13:56:20Z</time>
      </trkpt>
      <trkpt lat="45.08021" lon="4.38792">
        <ele>1201.79</ele>
        <time>2024-04-04T13:56:23Z</time>
      </trkpt>
      <trkpt lat="45.08013" lon="4.38773">
        <ele>1203.71</ele>
        <time>2024-04-04T13:56:35Z</time>
      </trkpt>
      <trkpt lat="45.08001" lon="4.38758">
        <ele>1204.67</ele>
        <time>2024-04-04T13:56:44Z</time>
      </trkpt>
      <trkpt lat="45.07992" lon="4.38749">
        <ele>1203.23</ele>
        <time>2024-04-04T13:56:54Z</time>
      </trkpt>
      <trkpt lat="45.07988" lon="4.38745">
        <ele>1203.71</ele>
        <time>2024-04-04T13:56:59Z</time>
      </trkpt>
      <trkpt lat="45.07981" lon="4.3874">
        <ele>1204.19</ele>
        <time>2024-04-04T13:57:03Z</time>
      </trkpt>
      <trkpt lat="45.07965" lon="4.38728">
        <ele>1203.23</ele>
        <time>2024-04-04T13:57:15Z</time>
      </trkpt>
      <trkpt lat="45.07955" lon="4.3872">
        <ele>1202.27</ele>
        <time>2024-04-04T13:57:24Z</time>
      </trkpt>
      <trkpt lat="45.07946" lon="4.38712">
        <ele>1202.27</ele>
        <time>2024-04-04T13:57:32Z</time>
      </trkpt>
      <trkpt lat="45.07939" lon="4.38704">
        <ele>1200.82</ele>
        <time>2024-04-04T13:57:40Z</time>
      </trkpt>
      <trkpt lat="45.07936" lon="4.38701">
        <ele>1200.34</ele>
        <time>2024-04-04T13:57:42Z</time>
      </trkpt>
      <trkpt lat="45.07934" lon="4.38695">
        <ele>1200.82</ele>
        <time>2024-04-04T13:57:46Z</time>
      </trkpt>
      <trkpt lat="45.07941" lon="4.38682">
        <ele>1199.38</ele>
        <time>2024-04-04T13:57:57Z</time>
      </trkpt>
      <trkpt lat="45.07951" lon="4.38666">
        <ele>1198.42</ele>
        <time>2024-04-04T13:58:06Z</time>
      </trkpt>
      <trkpt lat="45.07961" lon="4.38651">
        <ele>1196.98</ele>
        <time>2024-04-04T13:58:18Z</time>
      </trkpt>
      <trkpt lat="45.07967" lon="4.38638">
        <ele>1194.58</ele>
        <time>2024-04-04T13:58:28Z</time>
      </trkpt>
      <trkpt lat="45.07976" lon="4.38627">
        <ele>1193.61</ele>
        <time>2024-04-04T13:58:37Z</time>
      </trkpt>
      <trkpt lat="45.07985" lon="4.38614">
        <ele>1191.69</ele>
        <time>2024-04-04T13:58:47Z</time>
      </trkpt>
      <trkpt lat="45.07991" lon="4.38608">
        <ele>1191.69</ele>
        <time>2024-04-04T13:58:51Z</time>
      </trkpt>
      <trkpt lat="45.07998" lon="4.38596">
        <ele>1191.69</ele>
        <time>2024-04-04T13:59:02Z</time>
      </trkpt>
      <trkpt lat="45.08007" lon="4.38579">
        <ele>1191.69</ele>
        <time>2024-04-04T13:59:12Z</time>
      </trkpt>
      <trkpt lat="45.08016" lon="4.38564">
        <ele>1191.69</ele>
        <time>2024-04-04T13:59:22Z</time>
      </trkpt>
      <trkpt lat="45.08023" lon="4.38552">
        <ele>1193.61</ele>
        <time>2024-04-04T13:59:29Z</time>
      </trkpt>
      <trkpt lat="45.08029" lon="4.38541">
        <ele>1193.61</ele>
        <time>2024-04-04T13:59:38Z</time>
      </trkpt>
      <trkpt lat="45.08036" lon="4.38528">
        <ele>1195.06</ele>
        <time>2024-04-04T13:59:47Z</time>
      </trkpt>
      <trkpt lat="45.08041" lon="4.38521">
        <ele>1196.98</ele>
        <time>2024-04-04T13:59:56Z</time>
      </trkpt>
      <trkpt lat="45.08046" lon="4.38515">
        <ele>1198.42</ele>
        <time>2024-04-04T14:00:02Z</time>
      </trkpt>
      <trkpt lat="45.0806" lon="4.38503">
        <ele>1197.46</ele>
        <time>2024-04-04T14:00:14Z</time>
      </trkpt>
      <trkpt lat="45.08069" lon="4.38489">
        <ele>1195.54</ele>
        <time>2024-04-04T14:00:24Z</time>
      </trkpt>
      <trkpt lat="45.08074" lon="4.38486">
        <ele>1195.06</ele>
        <time>2024-04-04T14:00:30Z</time>
      </trkpt>
      <trkpt lat="45.08077" lon="4.38486">
        <ele>1194.58</ele>
        <time>2024-04-04T14:00:40Z</time>
      </trkpt>
      <trkpt lat="45.08083" lon="4.38479">
        <ele>1194.09</ele>
        <time>2024-04-04T14:00:46Z</time>
      </trkpt>
      <trkpt lat="45.08093" lon="4.38478">
        <ele>1193.61</ele>
        <time>2024-04-04T14:00:54Z</time>
      </trkpt>
      <trkpt lat="45.08104" lon="4.38479">
        <ele>1196.5</ele>
        <time>2024-04-04T14:01:03Z</time>
      </trkpt>
      <trkpt lat="45.08116" lon="4.38476">
        <ele>1198.42</ele>
        <time>2024-04-04T14:01:15Z</time>
      </trkpt>
      <trkpt lat="45.08123" lon="4.38477">
        <ele>1198.42</ele>
        <time>2024-04-04T14:01:21Z</time>
      </trkpt>
      <trkpt lat="45.08126" lon="4.38475">
        <ele>1198.9</ele>
        <time>2024-04-04T14:01:24Z</time>
      </trkpt>
      <trkpt lat="45.08137" lon="4.38474">
        <ele>1198.42</ele>
        <time>2024-04-04T14:01:34Z</time>
      </trkpt>
      <trkpt lat="45.08153" lon="4.38474">
        <ele>1196.5</ele>
        <time>2024-04-04T14:01:43Z</time>
      </trkpt>
      <trkpt lat="45.08165" lon="4.38473">
        <ele>1196.02</ele>
        <time>2024-04-04T14:01:52Z</time>
      </trkpt>
      <trkpt lat="45.08167" lon="4.38472">
        <ele>1196.02</ele>
        <time>2024-04-04T14:01:55Z</time>
      </trkpt>
      <trkpt lat="45.08177" lon="4.38473">
        <ele>1196.02</ele>
        <time>2024-04-04T14:02:01Z</time>
      </trkpt>
      <trkpt lat="45.08194" lon="4.38474">
        <ele>1199.38</ele>
        <time>2024-04-04T14:02:12Z</time>
      </trkpt>
      <trkpt lat="45.08197" lon="4.38473">
        <ele>1200.82</ele>
        <time>2024-04-04T14:02:16Z</time>
      </trkpt>
      <trkpt lat="45.08212" lon="4.38468">
        <ele>1201.79</ele>
        <time>2024-04-04T14:02:27Z</time>
      </trkpt>
      <trkpt lat="45.08225" lon="4.38468">
        <ele>1201.3</ele>
        <time>2024-04-04T14:02:34Z</time>
      </trkpt>
      <trkpt lat="45.08236" lon="4.38466">
        <ele>1201.3</ele>
        <time>2024-04-04T14:02:41Z</time>
      </trkpt>
      <trkpt lat="45.08239" lon="4.38467">
        <ele>1201.79</ele>
        <time>2024-04-04T14:02:45Z</time>
      </trkpt>
      <trkpt lat="45.0825" lon="4.38465">
        <ele>1202.75</ele>
        <time>2024-04-04T14:02:56Z</time>
      </trkpt>
      <trkpt lat="45.08266" lon="4.38461">
        <ele>1202.75</ele>
        <time>2024-04-04T14:03:06Z</time>
      </trkpt>
      <trkpt lat="45.08287" lon="4.38453">
        <ele>1199.86</ele>
        <time>2024-04-04T14:03:21Z</time>
      </trkpt>
      <trkpt lat="45.083" lon="4.38449">
        <ele>1199.86</ele>
        <time>2024-04-04T14:03:31Z</time>
      </trkpt>
      <trkpt lat="45.08309" lon="4.38446">
        <ele>1199.38</ele>
        <time>2024-04-04T14:03:40Z</time>
      </trkpt>
      <trkpt lat="45.0832" lon="4.38442">
        <ele>1199.86</ele>
        <time>2024-04-04T14:03:49Z</time>
      </trkpt>
      <trkpt lat="45.08334" lon="4.38436">
        <ele>1200.34</ele>
        <time>2024-04-04T14:03:57Z</time>
      </trkpt>
      <trkpt lat="45.08347" lon="4.38432">
        <ele>1201.79</ele>
        <time>2024-04-04T14:04:06Z</time>
      </trkpt>
      <trkpt lat="45.08357" lon="4.38428">
        <ele>1203.23</ele>
        <time>2024-04-04T14:04:14Z</time>
      </trkpt>
      <trkpt lat="45.08369" lon="4.38426">
        <ele>1206.59</ele>
        <time>2024-04-04T14:04:22Z</time>
      </trkpt>
      <trkpt lat="45.08382" lon="4.38421">
        <ele>1207.07</ele>
        <time>2024-04-04T14:04:32Z</time>
      </trkpt>
      <trkpt lat="45.08385" lon="4.3842">
        <ele>1206.59</ele>
        <time>2024-04-04T14:04:37Z</time>
      </trkpt>
      <trkpt lat="45.08403" lon="4.38412">
        <ele>1206.59</ele>
        <time>2024-04-04T14:04:49Z</time>
      </trkpt>
      <trkpt lat="45.08413" lon="4.38406">
        <ele>1206.11</ele>
        <time>2024-04-04T14:04:58Z</time>
      </trkpt>
      <trkpt lat="45.08422" lon="4.38399">
        <ele>1203.71</ele>
        <time>2024-04-04T14:05:07Z</time>
      </trkpt>
      <trkpt lat="45.08434" lon="4.38394">
        <ele>1202.27</ele>
        <time>2024-04-04T14:05:16Z</time>
      </trkpt>
      <trkpt lat="45.08446" lon="4.38387">
        <ele>1201.79</ele>
        <time>2024-04-04T14:05:25Z</time>
      </trkpt>
      <trkpt lat="45.08459" lon="4.38381">
        <ele>1200.34</ele>
        <time>2024-04-04T14:05:32Z</time>
      </trkpt>
      <trkpt lat="45.08466" lon="4.38379">
        <ele>1201.3</ele>
        <time>2024-04-04T14:05:40Z</time>
      </trkpt>
      <trkpt lat="45.08475" lon="4.38371">
        <ele>1199.86</ele>
        <time>2024-04-04T14:05:49Z</time>
      </trkpt>
      <trkpt lat="45.08486" lon="4.3836">
        <ele>1196.5</ele>
        <time>2024-04-04T14:05:57Z</time>
      </trkpt>
      <trkpt lat="45.08487" lon="4.3836">
        <ele>1196.5</ele>
        <time>2024-04-04T14:05:58Z</time>
      </trkpt>
      <trkpt lat="45.08506" lon="4.3836">
        <ele>1193.61</ele>
        <time>2024-04-04T14:06:10Z</time>
      </trkpt>
      <trkpt lat="45.0851" lon="4.3836">
        <ele>1192.17</ele>
        <time>2024-04-04T14:06:14Z</time>
      </trkpt>
      <trkpt lat="45.08525" lon="4.38364">
        <ele>1190.25</ele>
        <time>2024-04-04T14:06:25Z</time>
      </trkpt>
      <trkpt lat="45.08537" lon="4.38362">
        <ele>1189.29</ele>
        <time>2024-04-04T14:06:35Z</time>
      </trkpt>
      <trkpt lat="45.0855" lon="4.38362">
        <ele>1189.77</ele>
        <time>2024-04-04T14:06:45Z</time>
      </trkpt>
      <trkpt lat="45.08552" lon="4.38362">
        <ele>1189.77</ele>
        <time>2024-04-04T14:06:46Z</time>
      </trkpt>
      <trkpt lat="45.08565" lon="4.38366">
        <ele>1191.69</ele>
        <time>2024-04-04T14:06:56Z</time>
      </trkpt>
      <trkpt lat="45.08577" lon="4.38374">
        <ele>1195.54</ele>
        <time>2024-04-04T14:07:07Z</time>
      </trkpt>
      <trkpt lat="45.08583" lon="4.38378">
        <ele>1197.94</ele>
        <time>2024-04-04T14:07:13Z</time>
      </trkpt>
      <trkpt lat="45.08585" lon="4.38379">
        <ele>1198.9</ele>
        <time>2024-04-04T14:07:17Z</time>
      </trkpt>
      <trkpt lat="45.08599" lon="4.38382">
        <ele>1201.79</ele>
        <time>2024-04-04T14:07:27Z</time>
      </trkpt>
      <trkpt lat="45.08613" lon="4.38384">
        <ele>1203.23</ele>
        <time>2024-04-04T14:07:37Z</time>
      </trkpt>
      <trkpt lat="45.08627" lon="4.38393">
        <ele>1206.11</ele>
        <time>2024-04-04T14:07:49Z</time>
      </trkpt>
      <trkpt lat="45.0864" lon="4.38396">
        <ele>1205.63</ele>
        <time>2024-04-04T14:07:58Z</time>
      </trkpt>
      <trkpt lat="45.08649" lon="4.38402">
        <ele>1205.63</ele>
        <time>2024-04-04T14:08:08Z</time>
      </trkpt>
      <trkpt lat="45.08661" lon="4.38403">
        <ele>1204.67</ele>
        <time>2024-04-04T14:08:17Z</time>
      </trkpt>
      <trkpt lat="45.08671" lon="4.38406">
        <ele>1205.15</ele>
        <time>2024-04-04T14:08:26Z</time>
      </trkpt>
      <trkpt lat="45.08681" lon="4.3841">
        <ele>1206.11</ele>
        <time>2024-04-04T14:08:36Z</time>
      </trkpt>
      <trkpt lat="45.08697" lon="4.38413">
        <ele>1203.23</ele>
        <time>2024-04-04T14:08:47Z</time>
      </trkpt>
      <trkpt lat="45.08708" lon="4.38419">
        <ele>1203.23</ele>
        <time>2024-04-04T14:08:56Z</time>
      </trkpt>
      <trkpt lat="45.08722" lon="4.38425">
        <ele>1203.23</ele>
        <time>2024-04-04T14:09:06Z</time>
      </trkpt>
      <trkpt lat="45.08736" lon="4.38429">
        <ele>1202.75</ele>
        <time>2024-04-04T14:09:16Z</time>
      </trkpt>
      <trkpt lat="45.08752" lon="4.38437">
        <ele>1202.27</ele>
        <time>2024-04-04T14:09:29Z</time>
      </trkpt>
      <trkpt lat="45.08757" lon="4.3844">
        <ele>1202.75</ele>
        <time>2024-04-04T14:09:35Z</time>
      </trkpt>
      <trkpt lat="45.08777" lon="4.38449">
        <ele>1201.79</ele>
        <time>2024-04-04T14:09:49Z</time>
      </trkpt>
      <trkpt lat="45.08779" lon="4.3845">
        <ele>1202.27</ele>
        <time>2024-04-04T14:09:52Z</time>
      </trkpt>
      <trkpt lat="45.08797" lon="4.38464">
        <ele>1204.67</ele>
        <time>2024-04-04T14:10:06Z</time>
      </trkpt>
      <trkpt lat="45.08812" lon="4.38475">
        <ele>1204.67</ele>
        <time>2024-04-04T14:10:19Z</time>
      </trkpt>
      <trkpt lat="45.08826" lon="4.38484">
        <ele>1208.51</ele>
        <time>2024-04-04T14:10:31Z</time>
      </trkpt>
      <trkpt lat="45.08828" lon="4.38485">
        <ele>1209</ele>
        <time>2024-04-04T14:10:34Z</time>
      </trkpt>
      <trkpt lat="45.08843" lon="4.38493">
        <ele>1212.36</ele>
        <time>2024-04-04T14:10:46Z</time>
      </trkpt>
      <trkpt lat="45.08859" lon="4.38507">
        <ele>1211.88</ele>
        <time>2024-04-04T14:10:57Z</time>
      </trkpt>
      <trkpt lat="45.0887" lon="4.38515">
        <ele>1211.4</ele>
        <time>2024-04-04T14:11:08Z</time>
      </trkpt>
      <trkpt lat="45.08874" lon="4.38518">
        <ele>1211.4</ele>
        <time>2024-04-04T14:11:11Z</time>
      </trkpt>
      <trkpt lat="45.08887" lon="4.38537">
        <ele>1208.03</ele>
        <time>2024-04-04T14:11:24Z</time>
      </trkpt>
      <trkpt lat="45.08907" lon="4.38572">
        <ele>1204.67</ele>
        <time>2024-04-04T14:11:39Z</time>
      </trkpt>
      <trkpt lat="45.08915" lon="4.38589">
        <ele>1203.71</ele>
        <time>2024-04-04T14:11:53Z</time>
      </trkpt>
      <trkpt lat="45.08925" lon="4.38611">
        <ele>1203.71</ele>
        <time>2024-04-04T14:12:05Z</time>
      </trkpt>
      <trkpt lat="45.08928" lon="4.38623">
        <ele>1204.67</ele>
        <time>2024-04-04T14:12:10Z</time>
      </trkpt>
      <trkpt lat="45.08938" lon="4.38644">
        <ele>1206.11</ele>
        <time>2024-04-04T14:12:22Z</time>
      </trkpt>
      <trkpt lat="45.08941" lon="4.38659">
        <ele>1206.59</ele>
        <time>2024-04-04T14:12:31Z</time>
      </trkpt>
      <trkpt lat="45.08945" lon="4.38673">
        <ele>1205.63</ele>
        <time>2024-04-04T14:12:40Z</time>
      </trkpt>
      <trkpt lat="45.08949" lon="4.38685">
        <ele>1204.19</ele>
        <time>2024-04-04T14:12:48Z</time>
      </trkpt>
      <trkpt lat="45.08956" lon="4.38704">
        <ele>1203.71</ele>
        <time>2024-04-04T14:12:58Z</time>
      </trkpt>
      <trkpt lat="45.08968" lon="4.38729">
        <ele>1203.71</ele>
        <time>2024-04-04T14:13:10Z</time>
      </trkpt>
      <trkpt lat="45.08972" lon="4.38751">
        <ele>1202.75</ele>
        <time>2024-04-04T14:13:23Z</time>
      </trkpt>
      <trkpt lat="45.08977" lon="4.38767">
        <ele>1201.79</ele>
        <time>2024-04-04T14:13:32Z</time>
      </trkpt>
      <trkpt lat="45.08983" lon="4.38791">
        <ele>1202.27</ele>
        <time>2024-04-04T14:13:44Z</time>
      </trkpt>
      <trkpt lat="45.08986" lon="4.3881">
        <ele>1203.23</ele>
        <time>2024-04-04T14:13:56Z</time>
      </trkpt>
      <trkpt lat="45.08993" lon="4.38835">
        <ele>1207.07</ele>
        <time>2024-04-04T14:14:07Z</time>
      </trkpt>
      <trkpt lat="45.08997" lon="4.3885">
        <ele>1207.55</ele>
        <time>2024-04-04T14:14:16Z</time>
      </trkpt>
      <trkpt lat="45.09001" lon="4.38873">
        <ele>1208.03</ele>
        <time>2024-04-04T14:14:28Z</time>
      </trkpt>
      <trkpt lat="45.09004" lon="4.38891">
        <ele>1206.59</ele>
        <time>2024-04-04T14:14:38Z</time>
      </trkpt>
      <trkpt lat="45.09008" lon="4.38906">
        <ele>1206.59</ele>
        <time>2024-04-04T14:14:48Z</time>
      </trkpt>
      <trkpt lat="45.09012" lon="4.38919">
        <ele>1206.59</ele>
        <time>2024-04-04T14:14:54Z</time>
      </trkpt>
      <trkpt lat="45.09016" lon="4.38932">
        <ele>1206.11</ele>
        <time>2024-04-04T14:15:04Z</time>
      </trkpt>
      <trkpt lat="45.0902" lon="4.38955">
        <ele>1204.67</ele>
        <time>2024-04-04T14:15:16Z</time>
      </trkpt>
      <trkpt lat="45.09024" lon="4.38971">
        <ele>1203.71</ele>
        <time>2024-04-04T14:15:26Z</time>
      </trkpt>
      <trkpt lat="45.0903" lon="4.38989">
        <ele>1203.71</ele>
        <time>2024-04-04T14:15:36Z</time>
      </trkpt>
      <trkpt lat="45.09032" lon="4.3899">
        <ele>1203.71</ele>
        <time>2024-04-04T14:15:39Z</time>
      </trkpt>
      <trkpt lat="45.09037" lon="4.39015">
        <ele>1202.75</ele>
        <time>2024-04-04T14:15:48Z</time>
      </trkpt>
      <trkpt lat="45.09045" lon="4.39038">
        <ele>1201.79</ele>
        <time>2024-04-04T14:16:01Z</time>
      </trkpt>
      <trkpt lat="45.09053" lon="4.39052">
        <ele>1200.34</ele>
        <time>2024-04-04T14:16:12Z</time>
      </trkpt>
      <trkpt lat="45.0906" lon="4.39068">
        <ele>1196.98</ele>
        <time>2024-04-04T14:16:24Z</time>
      </trkpt>
      <trkpt lat="45.09063" lon="4.39073">
        <ele>1196.02</ele>
        <time>2024-04-04T14:16:28Z</time>
      </trkpt>
      <trkpt lat="45.09068" lon="4.39081">
        <ele>1194.09</ele>
        <time>2024-04-04T14:16:34Z</time>
      </trkpt>
      <trkpt lat="45.09074" lon="4.3909">
        <ele>1192.65</ele>
        <time>2024-04-04T14:16:39Z</time>
      </trkpt>
      <trkpt lat="45.09077" lon="4.39094">
        <ele>1191.21</ele>
        <time>2024-04-04T14:16:42Z</time>
      </trkpt>
      <trkpt lat="45.09077" lon="4.39098">
        <ele>1191.21</ele>
        <time>2024-04-04T14:16:45Z</time>
      </trkpt>
      <trkpt lat="45.09086" lon="4.39116">
        <ele>1190.73</ele>
        <time>2024-04-04T14:16:55Z</time>
      </trkpt>
      <trkpt lat="45.09095" lon="4.3913">
        <ele>1191.69</ele>
        <time>2024-04-04T14:17:05Z</time>
      </trkpt>
      <trkpt lat="45.09106" lon="4.39149">
        <ele>1190.25</ele>
        <time>2024-04-04T14:17:17Z</time>
      </trkpt>
      <trkpt lat="45.09111" lon="4.39156">
        <ele>1190.73</ele>
        <time>2024-04-04T14:17:23Z</time>
      </trkpt>
      <trkpt lat="45.09118" lon="4.39172">
        <ele>1192.17</ele>
        <time>2024-04-04T14:17:32Z</time>
      </trkpt>
      <trkpt lat="45.09126" lon="4.39194">
        <ele>1195.06</ele>
        <time>2024-04-04T14:17:44Z</time>
      </trkpt>
      <trkpt lat="45.09136" lon="4.39211">
        <ele>1194.58</ele>
        <time>2024-04-04T14:17:54Z</time>
      </trkpt>
      <trkpt lat="45.09146" lon="4.39227">
        <ele>1195.06</ele>
        <time>2024-04-04T14:18:05Z</time>
      </trkpt>
      <trkpt lat="45.09153" lon="4.39243">
        <ele>1196.02</ele>
        <time>2024-04-04T14:18:15Z</time>
      </trkpt>
      <trkpt lat="45.09163" lon="4.39261">
        <ele>1194.58</ele>
        <time>2024-04-04T14:18:26Z</time>
      </trkpt>
      <trkpt lat="45.09174" lon="4.39281">
        <ele>1193.61</ele>
        <time>2024-04-04T14:18:39Z</time>
      </trkpt>
      <trkpt lat="45.09175" lon="4.39282">
        <ele>1193.13</ele>
        <time>2024-04-04T14:18:41Z</time>
      </trkpt>
      <trkpt lat="45.09179" lon="4.39289">
        <ele>1192.17</ele>
        <time>2024-04-04T14:18:45Z</time>
      </trkpt>
      <trkpt lat="45.09187" lon="4.39304">
        <ele>1190.73</ele>
        <time>2024-04-04T14:18:56Z</time>
      </trkpt>
      <trkpt lat="45.09199" lon="4.39323">
        <ele>1189.29</ele>
        <time>2024-04-04T14:19:08Z</time>
      </trkpt>
      <trkpt lat="45.09207" lon="4.39341">
        <ele>1189.29</ele>
        <time>2024-04-04T14:19:20Z</time>
      </trkpt>
      <trkpt lat="45.09208" lon="4.39344">
        <ele>1189.77</ele>
        <time>2024-04-04T14:19:22Z</time>
      </trkpt>
      <trkpt lat="45.0922" lon="4.39368">
        <ele>1189.77</ele>
        <time>2024-04-04T14:19:35Z</time>
      </trkpt>
      <trkpt lat="45.09225" lon="4.39375">
        <ele>1189.29</ele>
        <time>2024-04-04T14:19:42Z</time>
      </trkpt>
      <trkpt lat="45.09232" lon="4.39389">
        <ele>1187.85</ele>
        <time>2024-04-04T14:19:52Z</time>
      </trkpt>
      <trkpt lat="45.09239" lon="4.39403">
        <ele>1186.4</ele>
        <time>2024-04-04T14:20:02Z</time>
      </trkpt>
      <trkpt lat="45.09249" lon="4.39423">
        <ele>1183.52</ele>
        <time>2024-04-04T14:20:14Z</time>
      </trkpt>
      <trkpt lat="45.09257" lon="4.39434">
        <ele>1181.6</ele>
        <time>2024-04-04T14:20:24Z</time>
      </trkpt>
      <trkpt lat="45.09267" lon="4.39451">
        <ele>1179.19</ele>
        <time>2024-04-04T14:20:36Z</time>
      </trkpt>
      <trkpt lat="45.09278" lon="4.39469">
        <ele>1176.31</ele>
        <time>2024-04-04T14:20:49Z</time>
      </trkpt>
      <trkpt lat="45.09287" lon="4.39493">
        <ele>1175.35</ele>
        <time>2024-04-04T14:21:02Z</time>
      </trkpt>
      <trkpt lat="45.09297" lon="4.39512">
        <ele>1173.91</ele>
        <time>2024-04-04T14:21:14Z</time>
      </trkpt>
      <trkpt lat="45.09304" lon="4.39532">
        <ele>1174.39</ele>
        <time>2024-04-04T14:21:26Z</time>
      </trkpt>
      <trkpt lat="45.09312" lon="4.39544">
        <ele>1175.35</ele>
        <time>2024-04-04T14:21:36Z</time>
      </trkpt>
      <trkpt lat="45.09313" lon="4.39545">
        <ele>1175.35</ele>
        <time>2024-04-04T14:21:37Z</time>
      </trkpt>
      <trkpt lat="45.09318" lon="4.39553">
        <ele>1175.35</ele>
        <time>2024-04-04T14:21:43Z</time>
      </trkpt>
      <trkpt lat="45.09329" lon="4.39569">
        <ele>1175.83</ele>
        <time>2024-04-04T14:21:56Z</time>
      </trkpt>
      <trkpt lat="45.09339" lon="4.39584">
        <ele>1176.79</ele>
        <time>2024-04-04T14:22:08Z</time>
      </trkpt>
      <trkpt lat="45.0935" lon="4.39605">
        <ele>1178.23</ele>
        <time>2024-04-04T14:22:20Z</time>
      </trkpt>
      <trkpt lat="45.0936" lon="4.39625">
        <ele>1180.16</ele>
        <time>2024-04-04T14:22:31Z</time>
      </trkpt>
      <trkpt lat="45.09371" lon="4.39648">
        <ele>1181.12</ele>
        <time>2024-04-04T14:22:44Z</time>
      </trkpt>
      <trkpt lat="45.09376" lon="4.39657">
        <ele>1181.6</ele>
        <time>2024-04-04T14:22:51Z</time>
      </trkpt>
      <trkpt lat="45.09383" lon="4.39672">
        <ele>1181.12</ele>
        <time>2024-04-04T14:23:02Z</time>
      </trkpt>
      <trkpt lat="45.09392" lon="4.39686">
        <ele>1176.31</ele>
        <time>2024-04-04T14:23:12Z</time>
      </trkpt>
      <trkpt lat="45.09397" lon="4.39705">
        <ele>1174.39</ele>
        <time>2024-04-04T14:23:22Z</time>
      </trkpt>
      <trkpt lat="45.09404" lon="4.39719">
        <ele>1173.91</ele>
        <time>2024-04-04T14:23:36Z</time>
      </trkpt>
      <trkpt lat="45.09409" lon="4.39733">
        <ele>1173.91</ele>
        <time>2024-04-04T14:23:45Z</time>
      </trkpt>
      <trkpt lat="45.09418" lon="4.39742">
        <ele>1175.83</ele>
        <time>2024-04-04T14:23:50Z</time>
      </trkpt>
      <trkpt lat="45.09429" lon="4.39753">
        <ele>1176.79</ele>
        <time>2024-04-04T14:24:01Z</time>
      </trkpt>
      <trkpt lat="45.09434" lon="4.39759">
        <ele>1176.79</ele>
        <time>2024-04-04T14:24:06Z</time>
      </trkpt>
      <trkpt lat="45.09443" lon="4.3978">
        <ele>1174.39</ele>
        <time>2024-04-04T14:24:19Z</time>
      </trkpt>
      <trkpt lat="45.09455" lon="4.398">
        <ele>1173.91</ele>
        <time>2024-04-04T14:24:32Z</time>
      </trkpt>
      <trkpt lat="45.09463" lon="4.39816">
        <ele>1173.43</ele>
        <time>2024-04-04T14:24:44Z</time>
      </trkpt>
      <trkpt lat="45.09473" lon="4.39832">
        <ele>1172.95</ele>
        <time>2024-04-04T14:24:56Z</time>
      </trkpt>
      <trkpt lat="45.09481" lon="4.39852">
        <ele>1173.43</ele>
        <time>2024-04-04T14:25:08Z</time>
      </trkpt>
      <trkpt lat="45.09482" lon="4.39854">
        <ele>1173.43</ele>
        <time>2024-04-04T14:25:22Z</time>
      </trkpt>
      <trkpt lat="45.09483" lon="4.39858">
        <ele>1174.39</ele>
        <time>2024-04-04T14:25:43Z</time>
      </trkpt>
      <trkpt lat="45.09489" lon="4.39866">
        <ele>1175.35</ele>
        <time>2024-04-04T14:26:00Z</time>
      </trkpt>
      <trkpt lat="45.09491" lon="4.39868">
        <ele>1174.39</ele>
        <time>2024-04-04T14:26:19Z</time>
      </trkpt>
      <trkpt lat="45.09506" lon="4.39896">
        <ele>1171.5</ele>
        <time>2024-04-04T14:26:38Z</time>
      </trkpt>
      <trkpt lat="45.09514" lon="4.39903">
        <ele>1170.06</ele>
        <time>2024-04-04T14:26:44Z</time>
      </trkpt>
      <trkpt lat="45.09517" lon="4.3991">
        <ele>1170.06</ele>
        <time>2024-04-04T14:26:48Z</time>
      </trkpt>
      <trkpt lat="45.09519" lon="4.3992">
        <ele>1169.1</ele>
        <time>2024-04-04T14:26:55Z</time>
      </trkpt>
      <trkpt lat="45.09526" lon="4.39928">
        <ele>1166.22</ele>
        <time>2024-04-04T14:27:06Z</time>
      </trkpt>
      <trkpt lat="45.09529" lon="4.39932">
        <ele>1166.22</ele>
        <time>2024-04-04T14:27:09Z</time>
      </trkpt>
      <trkpt lat="45.09535" lon="4.39945">
        <ele>1163.81</ele>
        <time>2024-04-04T14:27:18Z</time>
      </trkpt>
      <trkpt lat="45.09536" lon="4.39962">
        <ele>1165.74</ele>
        <time>2024-04-04T14:27:28Z</time>
      </trkpt>
      <trkpt lat="45.09533" lon="4.39981">
        <ele>1166.7</ele>
        <time>2024-04-04T14:27:37Z</time>
      </trkpt>
      <trkpt lat="45.09526" lon="4.40002">
        <ele>1168.14</ele>
        <time>2024-04-04T14:27:50Z</time>
      </trkpt>
      <trkpt lat="45.09521" lon="4.40024">
        <ele>1169.58</ele>
        <time>2024-04-04T14:28:02Z</time>
      </trkpt>
      <trkpt lat="45.09518" lon="4.40036">
        <ele>1170.54</ele>
        <time>2024-04-04T14:28:12Z</time>
      </trkpt>
      <trkpt lat="45.09516" lon="4.40051">
        <ele>1170.06</ele>
        <time>2024-04-04T14:28:21Z</time>
      </trkpt>
      <trkpt lat="45.09515" lon="4.40051">
        <ele>1169.58</ele>
        <time>2024-04-04T14:28:33Z</time>
      </trkpt>
      <trkpt lat="45.09516" lon="4.40052">
        <ele>1169.58</ele>
        <time>2024-04-04T14:28:45Z</time>
      </trkpt>
      <trkpt lat="45.09516" lon="4.40052">
        <ele>1169.58</ele>
        <time>2024-04-04T14:29:04Z</time>
      </trkpt>
      <trkpt lat="45.09515" lon="4.40055">
        <ele>1168.14</ele>
        <time>2024-04-04T14:29:15Z</time>
      </trkpt>
      <trkpt lat="45.09517" lon="4.40053">
        <ele>1169.1</ele>
        <time>2024-04-04T14:29:27Z</time>
      </trkpt>
      <trkpt lat="45.09514" lon="4.40057">
        <ele>1169.58</ele>
        <time>2024-04-04T14:29:38Z</time>
      </trkpt>
      <trkpt lat="45.09514" lon="4.40057">
        <ele>1169.58</ele>
        <time>2024-04-04T14:29:39Z</time>
      </trkpt>
      <trkpt lat="45.09514" lon="4.40061">
        <ele>1169.58</ele>
        <time>2024-04-04T14:29:41Z</time>
      </trkpt>
      <trkpt lat="45.09511" lon="4.40076">
        <ele>1169.1</ele>
        <time>2024-04-04T14:29:49Z</time>
      </trkpt>
      <trkpt lat="45.09509" lon="4.40084">
        <ele>1167.18</ele>
        <time>2024-04-04T14:29:54Z</time>
      </trkpt>
      <trkpt lat="45.09503" lon="4.40111">
        <ele>1164.29</ele>
        <time>2024-04-04T14:30:06Z</time>
      </trkpt>
      <trkpt lat="45.095" lon="4.40133">
        <ele>1162.85</ele>
        <time>2024-04-04T14:30:19Z</time>
      </trkpt>
      <trkpt lat="45.09496" lon="4.40165">
        <ele>1163.33</ele>
        <time>2024-04-04T14:30:30Z</time>
      </trkpt>
      <trkpt lat="45.09495" lon="4.40167">
        <ele>1162.85</ele>
        <time>2024-04-04T14:30:32Z</time>
      </trkpt>
      <trkpt lat="45.09494" lon="4.4017">
        <ele>1162.37</ele>
        <time>2024-04-04T14:30:36Z</time>
      </trkpt>
      <trkpt lat="45.09491" lon="4.40191">
        <ele>1162.37</ele>
        <time>2024-04-04T14:30:47Z</time>
      </trkpt>
      <trkpt lat="45.09488" lon="4.40206">
        <ele>1161.41</ele>
        <time>2024-04-04T14:30:56Z</time>
      </trkpt>
      <trkpt lat="45.09485" lon="4.4022">
        <ele>1160.93</ele>
        <time>2024-04-04T14:31:04Z</time>
      </trkpt>
      <trkpt lat="45.09482" lon="4.40237">
        <ele>1160.45</ele>
        <time>2024-04-04T14:31:14Z</time>
      </trkpt>
      <trkpt lat="45.0948" lon="4.40252">
        <ele>1161.89</ele>
        <time>2024-04-04T14:31:21Z</time>
      </trkpt>
      <trkpt lat="45.09481" lon="4.40277">
        <ele>1161.89</ele>
        <time>2024-04-04T14:31:36Z</time>
      </trkpt>
      <trkpt lat="45.09481" lon="4.40296">
        <ele>1160.45</ele>
        <time>2024-04-04T14:31:45Z</time>
      </trkpt>
      <trkpt lat="45.09482" lon="4.40299">
        <ele>1160.93</ele>
        <time>2024-04-04T14:31:53Z</time>
      </trkpt>
      <trkpt lat="45.09482" lon="4.40315">
        <ele>1159.97</ele>
        <time>2024-04-04T14:32:03Z</time>
      </trkpt>
      <trkpt lat="45.09482" lon="4.40334">
        <ele>1156.12</ele>
        <time>2024-04-04T14:32:15Z</time>
      </trkpt>
      <trkpt lat="45.09481" lon="4.40352">
        <ele>1153.24</ele>
        <time>2024-04-04T14:32:27Z</time>
      </trkpt>
      <trkpt lat="45.09476" lon="4.40377">
        <ele>1151.8</ele>
        <time>2024-04-04T14:32:37Z</time>
      </trkpt>
      <trkpt lat="45.09474" lon="4.40403">
        <ele>1151.8</ele>
        <time>2024-04-04T14:32:49Z</time>
      </trkpt>
      <trkpt lat="45.09472" lon="4.4043">
        <ele>1151.8</ele>
        <time>2024-04-04T14:33:01Z</time>
      </trkpt>
      <trkpt lat="45.09469" lon="4.40456">
        <ele>1151.8</ele>
        <time>2024-04-04T14:33:13Z</time>
      </trkpt>
      <trkpt lat="45.09465" lon="4.40477">
        <ele>1150.35</ele>
        <time>2024-04-04T14:33:23Z</time>
      </trkpt>
      <trkpt lat="45.09462" lon="4.40488">
        <ele>1149.87</ele>
        <time>2024-04-04T14:33:32Z</time>
      </trkpt>
      <trkpt lat="45.09458" lon="4.40502">
        <ele>1149.39</ele>
        <time>2024-04-04T14:33:40Z</time>
      </trkpt>
      <trkpt lat="45.09451" lon="4.40533">
        <ele>1146.99</ele>
        <time>2024-04-04T14:33:53Z</time>
      </trkpt>
      <trkpt lat="45.09445" lon="4.40555">
        <ele>1142.66</ele>
        <time>2024-04-04T14:34:07Z</time>
      </trkpt>
      <trkpt lat="45.09443" lon="4.40576">
        <ele>1142.18</ele>
        <time>2024-04-04T14:34:17Z</time>
      </trkpt>
      <trkpt lat="45.09444" lon="4.40596">
        <ele>1140.74</ele>
        <time>2024-04-04T14:34:28Z</time>
      </trkpt>
      <trkpt lat="45.09444" lon="4.40597">
        <ele>1140.26</ele>
        <time>2024-04-04T14:34:30Z</time>
      </trkpt>
      <trkpt lat="45.09444" lon="4.40616">
        <ele>1138.82</ele>
        <time>2024-04-04T14:34:40Z</time>
      </trkpt>
      <trkpt lat="45.09446" lon="4.40633">
        <ele>1138.34</ele>
        <time>2024-04-04T14:34:48Z</time>
      </trkpt>
      <trkpt lat="45.09451" lon="4.40652">
        <ele>1135.45</ele>
        <time>2024-04-04T14:34:58Z</time>
      </trkpt>
      <trkpt lat="45.09454" lon="4.40661">
        <ele>1134.01</ele>
        <time>2024-04-04T14:35:04Z</time>
      </trkpt>
      <trkpt lat="45.09456" lon="4.40671">
        <ele>1133.05</ele>
        <time>2024-04-04T14:35:08Z</time>
      </trkpt>
      <trkpt lat="45.09458" lon="4.40678">
        <ele>1133.05</ele>
        <time>2024-04-04T14:35:14Z</time>
      </trkpt>
      <trkpt lat="45.09463" lon="4.40696">
        <ele>1133.53</ele>
        <time>2024-04-04T14:35:22Z</time>
      </trkpt>
      <trkpt lat="45.09468" lon="4.40711">
        <ele>1134.97</ele>
        <time>2024-04-04T14:35:32Z</time>
      </trkpt>
      <trkpt lat="45.09472" lon="4.40728">
        <ele>1134.01</ele>
        <time>2024-04-04T14:35:43Z</time>
      </trkpt>
      <trkpt lat="45.09472" lon="4.40731">
        <ele>1134.01</ele>
        <time>2024-04-04T14:35:46Z</time>
      </trkpt>
      <trkpt lat="45.09473" lon="4.40737">
        <ele>1134.49</ele>
        <time>2024-04-04T14:35:50Z</time>
      </trkpt>
      <trkpt lat="45.09472" lon="4.40743">
        <ele>1134.49</ele>
        <time>2024-04-04T14:35:56Z</time>
      </trkpt>
      <trkpt lat="45.0947" lon="4.40746">
        <ele>1134.49</ele>
        <time>2024-04-04T14:36:00Z</time>
      </trkpt>
      <trkpt lat="45.09473" lon="4.40757">
        <ele>1134.49</ele>
        <time>2024-04-04T14:36:07Z</time>
      </trkpt>
      <trkpt lat="45.09478" lon="4.40762">
        <ele>1134.49</ele>
        <time>2024-04-04T14:36:11Z</time>
      </trkpt>
      <trkpt lat="45.09481" lon="4.40766">
        <ele>1134.97</ele>
        <time>2024-04-04T14:36:19Z</time>
      </trkpt>
      <trkpt lat="45.09484" lon="4.4077">
        <ele>1134.97</ele>
        <time>2024-04-04T14:36:23Z</time>
      </trkpt>
      <trkpt lat="45.09489" lon="4.40774">
        <ele>1134.97</ele>
        <time>2024-04-04T14:36:27Z</time>
      </trkpt>
      <trkpt lat="45.095" lon="4.40794">
        <ele>1134.49</ele>
        <time>2024-04-04T14:36:42Z</time>
      </trkpt>
      <trkpt lat="45.09498" lon="4.40798">
        <ele>1133.53</ele>
        <time>2024-04-04T14:36:46Z</time>
      </trkpt>
      <trkpt lat="45.09507" lon="4.40812">
        <ele>1134.01</ele>
        <time>2024-04-04T14:37:00Z</time>
      </trkpt>
      <trkpt lat="45.09522" lon="4.40823">
        <ele>1133.53</ele>
        <time>2024-04-04T14:37:14Z</time>
      </trkpt>
      <trkpt lat="45.09535" lon="4.40831">
        <ele>1133.05</ele>
        <time>2024-04-04T14:37:26Z</time>
      </trkpt>
      <trkpt lat="45.09549" lon="4.40836">
        <ele>1133.05</ele>
        <time>2024-04-04T14:37:36Z</time>
      </trkpt>
      <trkpt lat="45.09563" lon="4.4084">
        <ele>1133.53</ele>
        <time>2024-04-04T14:37:47Z</time>
      </trkpt>
      <trkpt lat="45.09582" lon="4.40846">
        <ele>1132.09</ele>
        <time>2024-04-04T14:38:00Z</time>
      </trkpt>
      <trkpt lat="45.09595" lon="4.40856">
        <ele>1131.13</ele>
        <time>2024-04-04T14:38:11Z</time>
      </trkpt>
      <trkpt lat="45.09607" lon="4.40861">
        <ele>1129.69</ele>
        <time>2024-04-04T14:38:21Z</time>
      </trkpt>
      <trkpt lat="45.09625" lon="4.40871">
        <ele>1128.73</ele>
        <time>2024-04-04T14:38:33Z</time>
      </trkpt>
      <trkpt lat="45.09638" lon="4.40878">
        <ele>1128.73</ele>
        <time>2024-04-04T14:38:43Z</time>
      </trkpt>
      <trkpt lat="45.09644" lon="4.40881">
        <ele>1128.73</ele>
        <time>2024-04-04T14:38:47Z</time>
      </trkpt>
      <trkpt lat="45.09655" lon="4.4089">
        <ele>1127.76</ele>
        <time>2024-04-04T14:38:58Z</time>
      </trkpt>
      <trkpt lat="45.09661" lon="4.40902">
        <ele>1128.24</ele>
        <time>2024-04-04T14:39:10Z</time>
      </trkpt>
      <trkpt lat="45.09662" lon="4.40904">
        <ele>1127.76</ele>
        <time>2024-04-04T14:39:12Z</time>
      </trkpt>
      <trkpt lat="45.09663" lon="4.40923">
        <ele>1126.32</ele>
        <time>2024-04-04T14:39:23Z</time>
      </trkpt>
      <trkpt lat="45.09665" lon="4.40937">
        <ele>1126.32</ele>
        <time>2024-04-04T14:39:32Z</time>
      </trkpt>
      <trkpt lat="45.09669" lon="4.40956">
        <ele>1127.76</ele>
        <time>2024-04-04T14:39:42Z</time>
      </trkpt>
      <trkpt lat="45.09673" lon="4.40969">
        <ele>1129.21</ele>
        <time>2024-04-04T14:39:52Z</time>
      </trkpt>
      <trkpt lat="45.09678" lon="4.40985">
        <ele>1130.65</ele>
        <time>2024-04-04T14:40:01Z</time>
      </trkpt>
      <trkpt lat="45.09687" lon="4.41003">
        <ele>1133.53</ele>
        <time>2024-04-04T14:40:13Z</time>
      </trkpt>
      <trkpt lat="45.09694" lon="4.41017">
        <ele>1133.53</ele>
        <time>2024-04-04T14:40:24Z</time>
      </trkpt>
      <trkpt lat="45.09702" lon="4.41033">
        <ele>1134.97</ele>
        <time>2024-04-04T14:40:34Z</time>
      </trkpt>
      <trkpt lat="45.09707" lon="4.41041">
        <ele>1136.42</ele>
        <time>2024-04-04T14:40:40Z</time>
      </trkpt>
      <trkpt lat="45.09716" lon="4.41057">
        <ele>1138.34</ele>
        <time>2024-04-04T14:40:52Z</time>
      </trkpt>
      <trkpt lat="45.0972" lon="4.41065">
        <ele>1139.3</ele>
        <time>2024-04-04T14:40:57Z</time>
      </trkpt>
      <trkpt lat="45.09724" lon="4.41072">
        <ele>1139.3</ele>
        <time>2024-04-04T14:41:02Z</time>
      </trkpt>
      <trkpt lat="45.09731" lon="4.41091">
        <ele>1139.3</ele>
        <time>2024-04-04T14:41:13Z</time>
      </trkpt>
      <trkpt lat="45.09739" lon="4.41111">
        <ele>1138.82</ele>
        <time>2024-04-04T14:41:24Z</time>
      </trkpt>
      <trkpt lat="45.09746" lon="4.41129">
        <ele>1139.3</ele>
        <time>2024-04-04T14:41:35Z</time>
      </trkpt>
      <trkpt lat="45.09756" lon="4.4115">
        <ele>1140.26</ele>
        <time>2024-04-04T14:41:47Z</time>
      </trkpt>
      <trkpt lat="45.09762" lon="4.41165">
        <ele>1141.7</ele>
        <time>2024-04-04T14:41:56Z</time>
      </trkpt>
      <trkpt lat="45.0977" lon="4.41181">
        <ele>1143.14</ele>
        <time>2024-04-04T14:42:07Z</time>
      </trkpt>
      <trkpt lat="45.09778" lon="4.41196">
        <ele>1144.11</ele>
        <time>2024-04-04T14:42:17Z</time>
      </trkpt>
      <trkpt lat="45.09785" lon="4.41213">
        <ele>1144.11</ele>
        <time>2024-04-04T14:42:27Z</time>
      </trkpt>
      <trkpt lat="45.09789" lon="4.41227">
        <ele>1144.11</ele>
        <time>2024-04-04T14:42:36Z</time>
      </trkpt>
      <trkpt lat="45.09794" lon="4.41243">
        <ele>1144.11</ele>
        <time>2024-04-04T14:42:45Z</time>
      </trkpt>
      <trkpt lat="45.09799" lon="4.41256">
        <ele>1144.11</ele>
        <time>2024-04-04T14:42:56Z</time>
      </trkpt>
      <trkpt lat="45.09798" lon="4.41277">
        <ele>1145.07</ele>
        <time>2024-04-04T14:43:06Z</time>
      </trkpt>
      <trkpt lat="45.09792" lon="4.41296">
        <ele>1144.59</ele>
        <time>2024-04-04T14:43:16Z</time>
      </trkpt>
      <trkpt lat="45.0979" lon="4.41297">
        <ele>1144.59</ele>
        <time>2024-04-04T14:43:18Z</time>
      </trkpt>
      <trkpt lat="45.09783" lon="4.41314">
        <ele>1141.7</ele>
        <time>2024-04-04T14:43:29Z</time>
      </trkpt>
      <trkpt lat="45.09777" lon="4.41328">
        <ele>1142.18</ele>
        <time>2024-04-04T14:43:38Z</time>
      </trkpt>
      <trkpt lat="45.09767" lon="4.41344">
        <ele>1142.66</ele>
        <time>2024-04-04T14:43:49Z</time>
      </trkpt>
      <trkpt lat="45.09756" lon="4.41358">
        <ele>1143.14</ele>
        <time>2024-04-04T14:44:00Z</time>
      </trkpt>
      <trkpt lat="45.09743" lon="4.41365">
        <ele>1142.18</ele>
        <time>2024-04-04T14:44:11Z</time>
      </trkpt>
      <trkpt lat="45.09729" lon="4.41376">
        <ele>1141.7</ele>
        <time>2024-04-04T14:44:22Z</time>
      </trkpt>
      <trkpt lat="45.09719" lon="4.41392">
        <ele>1140.74</ele>
        <time>2024-04-04T14:44:33Z</time>
      </trkpt>
      <trkpt lat="45.09711" lon="4.41405">
        <ele>1141.7</ele>
        <time>2024-04-04T14:44:44Z</time>
      </trkpt>
      <trkpt lat="45.097" lon="4.41418">
        <ele>1144.11</ele>
        <time>2024-04-04T14:44:54Z</time>
      </trkpt>
      <trkpt lat="45.09692" lon="4.41427">
        <ele>1145.07</ele>
        <time>2024-04-04T14:45:01Z</time>
      </trkpt>
      <trkpt lat="45.09686" lon="4.41432">
        <ele>1145.55</ele>
        <time>2024-04-04T14:45:05Z</time>
      </trkpt>
      <trkpt lat="45.09681" lon="4.41451">
        <ele>1145.55</ele>
        <time>2024-04-04T14:45:16Z</time>
      </trkpt>
      <trkpt lat="45.09679" lon="4.41467">
        <ele>1147.47</ele>
        <time>2024-04-04T14:45:28Z</time>
      </trkpt>
      <trkpt lat="45.09678" lon="4.41473">
        <ele>1147.95</ele>
        <time>2024-04-04T14:45:31Z</time>
      </trkpt>
      <trkpt lat="45.09673" lon="4.41487">
        <ele>1149.87</ele>
        <time>2024-04-04T14:45:41Z</time>
      </trkpt>
      <trkpt lat="45.09671" lon="4.41508">
        <ele>1151.8</ele>
        <time>2024-04-04T14:45:53Z</time>
      </trkpt>
      <trkpt lat="45.09669" lon="4.41512">
        <ele>1153.24</ele>
        <time>2024-04-04T14:45:56Z</time>
      </trkpt>
      <trkpt lat="45.09667" lon="4.41531">
        <ele>1156.6</ele>
        <time>2024-04-04T14:46:08Z</time>
      </trkpt>
      <trkpt lat="45.09666" lon="4.41534">
        <ele>1157.56</ele>
        <time>2024-04-04T14:46:11Z</time>
      </trkpt>
      <trkpt lat="45.09665" lon="4.41554">
        <ele>1160.93</ele>
        <time>2024-04-04T14:46:24Z</time>
      </trkpt>
      <trkpt lat="45.09665" lon="4.4156">
        <ele>1162.37</ele>
        <time>2024-04-04T14:46:31Z</time>
      </trkpt>
      <trkpt lat="45.09666" lon="4.4157">
        <ele>1163.81</ele>
        <time>2024-04-04T14:46:37Z</time>
      </trkpt>
      <trkpt lat="45.09667" lon="4.41599">
        <ele>1166.22</ele>
        <time>2024-04-04T14:46:50Z</time>
      </trkpt>
      <trkpt lat="45.09663" lon="4.41609">
        <ele>1168.62</ele>
        <time>2024-04-04T14:46:55Z</time>
      </trkpt>
      <trkpt lat="45.09656" lon="4.41628">
        <ele>1167.18</ele>
        <time>2024-04-04T14:47:10Z</time>
      </trkpt>
      <trkpt lat="45.09648" lon="4.41642">
        <ele>1165.26</ele>
        <time>2024-04-04T14:47:20Z</time>
      </trkpt>
      <trkpt lat="45.09644" lon="4.41649">
        <ele>1164.77</ele>
        <time>2024-04-04T14:47:25Z</time>
      </trkpt>
      <trkpt lat="45.09633" lon="4.41667">
        <ele>1163.81</ele>
        <time>2024-04-04T14:47:39Z</time>
      </trkpt>
      <trkpt lat="45.09626" lon="4.41683">
        <ele>1165.74</ele>
        <time>2024-04-04T14:47:51Z</time>
      </trkpt>
      <trkpt lat="45.09627" lon="4.41697">
        <ele>1167.18</ele>
        <time>2024-04-04T14:47:59Z</time>
      </trkpt>
      <trkpt lat="45.09625" lon="4.41724">
        <ele>1169.1</ele>
        <time>2024-04-04T14:48:12Z</time>
      </trkpt>
      <trkpt lat="45.09629" lon="4.41742">
        <ele>1171.98</ele>
        <time>2024-04-04T14:48:24Z</time>
      </trkpt>
      <trkpt lat="45.09633" lon="4.4176">
        <ele>1176.31</ele>
        <time>2024-04-04T14:48:37Z</time>
      </trkpt>
      <trkpt lat="45.09635" lon="4.41774">
        <ele>1178.71</ele>
        <time>2024-04-04T14:48:48Z</time>
      </trkpt>
      <trkpt lat="45.09635" lon="4.41776">
        <ele>1179.67</ele>
        <time>2024-04-04T14:48:50Z</time>
      </trkpt>
      <trkpt lat="45.09636" lon="4.41786">
        <ele>1181.6</ele>
        <time>2024-04-04T14:48:57Z</time>
      </trkpt>
      <trkpt lat="45.09636" lon="4.41804">
        <ele>1181.12</ele>
        <time>2024-04-04T14:49:08Z</time>
      </trkpt>
      <trkpt lat="45.09638" lon="4.41814">
        <ele>1180.64</ele>
        <time>2024-04-04T14:49:13Z</time>
      </trkpt>
      <trkpt lat="45.09643" lon="4.41836">
        <ele>1180.64</ele>
        <time>2024-04-04T14:49:23Z</time>
      </trkpt>
      <trkpt lat="45.09643" lon="4.41837">
        <ele>1180.64</ele>
        <time>2024-04-04T14:49:25Z</time>
      </trkpt>
      <trkpt lat="45.09643" lon="4.41858">
        <ele>1181.12</ele>
        <time>2024-04-04T14:49:36Z</time>
      </trkpt>
      <trkpt lat="45.09644" lon="4.41874">
        <ele>1182.08</ele>
        <time>2024-04-04T14:49:46Z</time>
      </trkpt>
      <trkpt lat="45.09647" lon="4.41891">
        <ele>1184.48</ele>
        <time>2024-04-04T14:49:55Z</time>
      </trkpt>
      <trkpt lat="45.09646" lon="4.41899">
        <ele>1186.4</ele>
        <time>2024-04-04T14:50:01Z</time>
      </trkpt>
      <trkpt lat="45.09644" lon="4.41918">
        <ele>1187.37</ele>
        <time>2024-04-04T14:50:11Z</time>
      </trkpt>
      <trkpt lat="45.09644" lon="4.41925">
        <ele>1188.33</ele>
        <time>2024-04-04T14:50:25Z</time>
      </trkpt>
      <trkpt lat="45.09644" lon="4.41926">
        <ele>1188.81</ele>
        <time>2024-04-04T14:50:37Z</time>
      </trkpt>
      <trkpt lat="45.09645" lon="4.41927">
        <ele>1188.33</ele>
        <time>2024-04-04T14:50:52Z</time>
      </trkpt>
      <trkpt lat="45.09647" lon="4.41927">
        <ele>1187.37</ele>
        <time>2024-04-04T14:51:06Z</time>
      </trkpt>
      <trkpt lat="45.09651" lon="4.41923">
        <ele>1186.88</ele>
        <time>2024-04-04T14:51:19Z</time>
      </trkpt>
      <trkpt lat="45.09656" lon="4.41918">
        <ele>1186.88</ele>
        <time>2024-04-04T14:51:25Z</time>
      </trkpt>
      <trkpt lat="45.09675" lon="4.41906">
        <ele>1182.08</ele>
        <time>2024-04-04T14:51:39Z</time>
      </trkpt>
      <trkpt lat="45.09678" lon="4.41897">
        <ele>1181.12</ele>
        <time>2024-04-04T14:51:44Z</time>
      </trkpt>
      <trkpt lat="45.09685" lon="4.41877">
        <ele>1178.23</ele>
        <time>2024-04-04T14:51:59Z</time>
      </trkpt>
      <trkpt lat="45.09686" lon="4.41874">
        <ele>1178.23</ele>
        <time>2024-04-04T14:52:01Z</time>
      </trkpt>
      <trkpt lat="45.09685" lon="4.41869">
        <ele>1177.75</ele>
        <time>2024-04-04T14:52:03Z</time>
      </trkpt>
      <trkpt lat="45.09692" lon="4.41845">
        <ele>1178.71</ele>
        <time>2024-04-04T14:52:18Z</time>
      </trkpt>
      <trkpt lat="45.09698" lon="4.41832">
        <ele>1178.23</ele>
        <time>2024-04-04T14:52:29Z</time>
      </trkpt>
      <trkpt lat="45.09707" lon="4.41812">
        <ele>1175.35</ele>
        <time>2024-04-04T14:52:39Z</time>
      </trkpt>
      <trkpt lat="45.09714" lon="4.41796">
        <ele>1171.5</ele>
        <time>2024-04-04T14:52:50Z</time>
      </trkpt>
      <trkpt lat="45.0972" lon="4.41771">
        <ele>1169.1</ele>
        <time>2024-04-04T14:53:01Z</time>
      </trkpt>
      <trkpt lat="45.09725" lon="4.41747">
        <ele>1169.1</ele>
        <time>2024-04-04T14:53:13Z</time>
      </trkpt>
      <trkpt lat="45.09728" lon="4.41723">
        <ele>1167.18</ele>
        <time>2024-04-04T14:53:30Z</time>
      </trkpt>
      <trkpt lat="45.09737" lon="4.41696">
        <ele>1163.33</ele>
        <time>2024-04-04T14:53:43Z</time>
      </trkpt>
      <trkpt lat="45.09749" lon="4.41672">
        <ele>1163.33</ele>
        <time>2024-04-04T14:53:57Z</time>
      </trkpt>
      <trkpt lat="45.09755" lon="4.41656">
        <ele>1164.29</ele>
        <time>2024-04-04T14:54:08Z</time>
      </trkpt>
      <trkpt lat="45.09768" lon="4.41634">
        <ele>1165.74</ele>
        <time>2024-04-04T14:54:21Z</time>
      </trkpt>
      <trkpt lat="45.09776" lon="4.41619">
        <ele>1166.7</ele>
        <time>2024-04-04T14:54:30Z</time>
      </trkpt>
      <trkpt lat="45.09784" lon="4.41608">
        <ele>1165.74</ele>
        <time>2024-04-04T14:54:39Z</time>
      </trkpt>
      <trkpt lat="45.09792" lon="4.41596">
        <ele>1165.26</ele>
        <time>2024-04-04T14:54:49Z</time>
      </trkpt>
      <trkpt lat="45.098" lon="4.41584">
        <ele>1165.74</ele>
        <time>2024-04-04T14:54:57Z</time>
      </trkpt>
      <trkpt lat="45.09812" lon="4.41566">
        <ele>1164.77</ele>
        <time>2024-04-04T14:55:10Z</time>
      </trkpt>
      <trkpt lat="45.0982" lon="4.41555">
        <ele>1164.77</ele>
        <time>2024-04-04T14:55:20Z</time>
      </trkpt>
      <trkpt lat="45.09833" lon="4.4154">
        <ele>1164.29</ele>
        <time>2024-04-04T14:55:30Z</time>
      </trkpt>
      <trkpt lat="45.09836" lon="4.41535">
        <ele>1164.77</ele>
        <time>2024-04-04T14:55:39Z</time>
      </trkpt>
      <trkpt lat="45.09834" lon="4.41537">
        <ele>1164.29</ele>
        <time>2024-04-04T14:55:44Z</time>
      </trkpt>
      <trkpt lat="45.09827" lon="4.41545">
        <ele>1165.26</ele>
        <time>2024-04-04T14:55:50Z</time>
      </trkpt>
      <trkpt lat="45.09822" lon="4.41551">
        <ele>1165.74</ele>
        <time>2024-04-04T14:55:57Z</time>
      </trkpt>
      <trkpt lat="45.09823" lon="4.4156">
        <ele>1166.22</ele>
        <time>2024-04-04T14:56:03Z</time>
      </trkpt>
      <trkpt lat="45.09832" lon="4.4157">
        <ele>1162.85</ele>
        <time>2024-04-04T14:56:13Z</time>
      </trkpt>
      <trkpt lat="45.09836" lon="4.41574">
        <ele>1161.41</ele>
        <time>2024-04-04T14:56:17Z</time>
      </trkpt>
      <trkpt lat="45.09845" lon="4.41587">
        <ele>1161.41</ele>
        <time>2024-04-04T14:56:28Z</time>
      </trkpt>
      <trkpt lat="45.09848" lon="4.4159">
        <ele>1161.41</ele>
        <time>2024-04-04T14:56:30Z</time>
      </trkpt>
      <trkpt lat="45.09858" lon="4.41601">
        <ele>1162.37</ele>
        <time>2024-04-04T14:56:39Z</time>
      </trkpt>
      <trkpt lat="45.09866" lon="4.41611">
        <ele>1163.81</ele>
        <time>2024-04-04T14:56:48Z</time>
      </trkpt>
      <trkpt lat="45.09869" lon="4.41613">
        <ele>1163.81</ele>
        <time>2024-04-04T14:56:52Z</time>
      </trkpt>
      <trkpt lat="45.0988" lon="4.41624">
        <ele>1163.81</ele>
        <time>2024-04-04T14:57:02Z</time>
      </trkpt>
      <trkpt lat="45.09893" lon="4.41639">
        <ele>1163.33</ele>
        <time>2024-04-04T14:57:13Z</time>
      </trkpt>
      <trkpt lat="45.099" lon="4.41652">
        <ele>1165.26</ele>
        <time>2024-04-04T14:57:22Z</time>
      </trkpt>
      <trkpt lat="45.09911" lon="4.41665">
        <ele>1165.74</ele>
        <time>2024-04-04T14:57:33Z</time>
      </trkpt>
      <trkpt lat="45.0992" lon="4.41676">
        <ele>1164.77</ele>
        <time>2024-04-04T14:57:43Z</time>
      </trkpt>
      <trkpt lat="45.0992" lon="4.41678">
        <ele>1164.77</ele>
        <time>2024-04-04T14:57:45Z</time>
      </trkpt>
      <trkpt lat="45.09929" lon="4.41696">
        <ele>1164.77</ele>
        <time>2024-04-04T14:57:57Z</time>
      </trkpt>
      <trkpt lat="45.09938" lon="4.41719">
        <ele>1159.97</ele>
        <time>2024-04-04T14:58:11Z</time>
      </trkpt>
      <trkpt lat="45.0994" lon="4.41723">
        <ele>1159.49</ele>
        <time>2024-04-04T14:58:16Z</time>
      </trkpt>
      <trkpt lat="45.09945" lon="4.41735">
        <ele>1159.01</ele>
        <time>2024-04-04T14:58:24Z</time>
      </trkpt>
      <trkpt lat="45.0995" lon="4.41748">
        <ele>1158.05</ele>
        <time>2024-04-04T14:58:33Z</time>
      </trkpt>
      <trkpt lat="45.09952" lon="4.41756">
        <ele>1157.56</ele>
        <time>2024-04-04T14:58:37Z</time>
      </trkpt>
      <trkpt lat="45.09957" lon="4.41776">
        <ele>1157.08</ele>
        <time>2024-04-04T14:58:50Z</time>
      </trkpt>
      <trkpt lat="45.09963" lon="4.41797">
        <ele>1157.08</ele>
        <time>2024-04-04T14:59:02Z</time>
      </trkpt>
      <trkpt lat="45.09972" lon="4.4182">
        <ele>1152.28</ele>
        <time>2024-04-04T14:59:15Z</time>
      </trkpt>
      <trkpt lat="45.0998" lon="4.41844">
        <ele>1147.95</ele>
        <time>2024-04-04T14:59:29Z</time>
      </trkpt>
      <trkpt lat="45.09982" lon="4.4186">
        <ele>1146.51</ele>
        <time>2024-04-04T14:59:39Z</time>
      </trkpt>
      <trkpt lat="45.09983" lon="4.41864">
        <ele>1146.03</ele>
        <time>2024-04-04T14:59:43Z</time>
      </trkpt>
      <trkpt lat="45.09989" lon="4.41871">
        <ele>1144.11</ele>
        <time>2024-04-04T14:59:51Z</time>
      </trkpt>
      <trkpt lat="45.10003" lon="4.41886">
        <ele>1145.55</ele>
        <time>2024-04-04T15:00:04Z</time>
      </trkpt>
      <trkpt lat="45.10016" lon="4.41901">
        <ele>1146.51</ele>
        <time>2024-04-04T15:00:15Z</time>
      </trkpt>
      <trkpt lat="45.10017" lon="4.41902">
        <ele>1146.51</ele>
        <time>2024-04-04T15:00:18Z</time>
      </trkpt>
      <trkpt lat="45.10025" lon="4.41904">
        <ele>1146.99</ele>
        <time>2024-04-04T15:00:22Z</time>
      </trkpt>
      <trkpt lat="45.1004" lon="4.41908">
        <ele>1147.47</ele>
        <time>2024-04-04T15:00:32Z</time>
      </trkpt>
      <trkpt lat="45.10047" lon="4.41912">
        <ele>1148.43</ele>
        <time>2024-04-04T15:00:38Z</time>
      </trkpt>
      <trkpt lat="45.1005" lon="4.41911">
        <ele>1147.95</ele>
        <time>2024-04-04T15:00:40Z</time>
      </trkpt>
      <trkpt lat="45.10064" lon="4.41913">
        <ele>1148.43</ele>
        <time>2024-04-04T15:00:50Z</time>
      </trkpt>
      <trkpt lat="45.10076" lon="4.41914">
        <ele>1147.47</ele>
        <time>2024-04-04T15:00:59Z</time>
      </trkpt>
      <trkpt lat="45.10086" lon="4.41918">
        <ele>1146.51</ele>
        <time>2024-04-04T15:01:07Z</time>
      </trkpt>
      <trkpt lat="45.10092" lon="4.41921">
        <ele>1146.03</ele>
        <time>2024-04-04T15:01:11Z</time>
      </trkpt>
      <trkpt lat="45.10106" lon="4.41924">
        <ele>1144.11</ele>
        <time>2024-04-04T15:01:22Z</time>
      </trkpt>
      <trkpt lat="45.10109" lon="4.41924">
        <ele>1144.11</ele>
        <time>2024-04-04T15:01:24Z</time>
      </trkpt>
      <trkpt lat="45.10124" lon="4.41929">
        <ele>1142.18</ele>
        <time>2024-04-04T15:01:36Z</time>
      </trkpt>
      <trkpt lat="45.1014" lon="4.41932">
        <ele>1140.74</ele>
        <time>2024-04-04T15:01:47Z</time>
      </trkpt>
      <trkpt lat="45.10154" lon="4.41936">
        <ele>1140.74</ele>
        <time>2024-04-04T15:01:57Z</time>
      </trkpt>
      <trkpt lat="45.10167" lon="4.41938">
        <ele>1141.22</ele>
        <time>2024-04-04T15:02:07Z</time>
      </trkpt>
      <trkpt lat="45.1018" lon="4.41941">
        <ele>1140.74</ele>
        <time>2024-04-04T15:02:16Z</time>
      </trkpt>
      <trkpt lat="45.1018" lon="4.41941">
        <ele>1141.22</ele>
        <time>2024-04-04T15:02:18Z</time>
      </trkpt>
      <trkpt lat="45.10195" lon="4.41942">
        <ele>1140.74</ele>
        <time>2024-04-04T15:02:26Z</time>
      </trkpt>
      <trkpt lat="45.10209" lon="4.41943">
        <ele>1139.3</ele>
        <time>2024-04-04T15:02:36Z</time>
      </trkpt>
      <trkpt lat="45.10221" lon="4.41942">
        <ele>1138.34</ele>
        <time>2024-04-04T15:02:47Z</time>
      </trkpt>
      <trkpt lat="45.10231" lon="4.41942">
        <ele>1138.82</ele>
        <time>2024-04-04T15:02:56Z</time>
      </trkpt>
      <trkpt lat="45.10248" lon="4.41941">
        <ele>1137.86</ele>
        <time>2024-04-04T15:03:04Z</time>
      </trkpt>
      <trkpt lat="45.10266" lon="4.41944">
        <ele>1136.42</ele>
        <time>2024-04-04T15:03:15Z</time>
      </trkpt>
      <trkpt lat="45.10274" lon="4.41944">
        <ele>1135.45</ele>
        <time>2024-04-04T15:03:25Z</time>
      </trkpt>
      <trkpt lat="45.10294" lon="4.41945">
        <ele>1133.05</ele>
        <time>2024-04-04T15:03:36Z</time>
      </trkpt>
      <trkpt lat="45.10305" lon="4.41946">
        <ele>1132.09</ele>
        <time>2024-04-04T15:03:46Z</time>
      </trkpt>
      <trkpt lat="45.10323" lon="4.41949">
        <ele>1130.17</ele>
        <time>2024-04-04T15:03:57Z</time>
      </trkpt>
      <trkpt lat="45.10327" lon="4.41949">
        <ele>1130.17</ele>
        <time>2024-04-04T15:04:11Z</time>
      </trkpt>
      <trkpt lat="45.10339" lon="4.41952">
        <ele>1128.24</ele>
        <time>2024-04-04T15:04:23Z</time>
      </trkpt>
      <trkpt lat="45.1036" lon="4.41953">
        <ele>1126.8</ele>
        <time>2024-04-04T15:04:33Z</time>
      </trkpt>
      <trkpt lat="45.10375" lon="4.41953">
        <ele>1124.4</ele>
        <time>2024-04-04T15:04:44Z</time>
      </trkpt>
      <trkpt lat="45.10388" lon="4.41954">
        <ele>1124.88</ele>
        <time>2024-04-04T15:04:55Z</time>
      </trkpt>
      <trkpt lat="45.10406" lon="4.41954">
        <ele>1122.96</ele>
        <time>2024-04-04T15:05:06Z</time>
      </trkpt>
      <trkpt lat="45.10417" lon="4.41954">
        <ele>1122.48</ele>
        <time>2024-04-04T15:05:14Z</time>
      </trkpt>
      <trkpt lat="45.10429" lon="4.41954">
        <ele>1120.55</ele>
        <time>2024-04-04T15:05:25Z</time>
      </trkpt>
      <trkpt lat="45.10447" lon="4.41956">
        <ele>1120.55</ele>
        <time>2024-04-04T15:05:36Z</time>
      </trkpt>
      <trkpt lat="45.10463" lon="4.41959">
        <ele>1119.59</ele>
        <time>2024-04-04T15:05:46Z</time>
      </trkpt>
      <trkpt lat="45.10474" lon="4.41961">
        <ele>1119.59</ele>
        <time>2024-04-04T15:05:56Z</time>
      </trkpt>
      <trkpt lat="45.10486" lon="4.41968">
        <ele>1119.59</ele>
        <time>2024-04-04T15:06:07Z</time>
      </trkpt>
      <trkpt lat="45.105" lon="4.41975">
        <ele>1119.59</ele>
        <time>2024-04-04T15:06:15Z</time>
      </trkpt>
      <trkpt lat="45.10508" lon="4.4198">
        <ele>1120.07</ele>
        <time>2024-04-04T15:06:25Z</time>
      </trkpt>
      <trkpt lat="45.10524" lon="4.41988">
        <ele>1120.07</ele>
        <time>2024-04-04T15:06:36Z</time>
      </trkpt>
      <trkpt lat="45.10541" lon="4.42001">
        <ele>1121.03</ele>
        <time>2024-04-04T15:06:46Z</time>
      </trkpt>
      <trkpt lat="45.10555" lon="4.42013">
        <ele>1122</ele>
        <time>2024-04-04T15:06:58Z</time>
      </trkpt>
      <trkpt lat="45.10568" lon="4.42023">
        <ele>1122</ele>
        <time>2024-04-04T15:07:08Z</time>
      </trkpt>
      <trkpt lat="45.10576" lon="4.42032">
        <ele>1122</ele>
        <time>2024-04-04T15:07:18Z</time>
      </trkpt>
      <trkpt lat="45.10592" lon="4.42059">
        <ele>1121.03</ele>
        <time>2024-04-04T15:07:32Z</time>
      </trkpt>
      <trkpt lat="45.10612" lon="4.42078">
        <ele>1117.67</ele>
        <time>2024-04-04T15:07:50Z</time>
      </trkpt>
      <trkpt lat="45.1062" lon="4.42083">
        <ele>1115.75</ele>
        <time>2024-04-04T15:07:56Z</time>
      </trkpt>
      <trkpt lat="45.10635" lon="4.42092">
        <ele>1110.46</ele>
        <time>2024-04-04T15:08:07Z</time>
      </trkpt>
      <trkpt lat="45.10643" lon="4.42094">
        <ele>1108.54</ele>
        <time>2024-04-04T15:08:12Z</time>
      </trkpt>
      <trkpt lat="45.10659" lon="4.42104">
        <ele>1107.1</ele>
        <time>2024-04-04T15:08:25Z</time>
      </trkpt>
      <trkpt lat="45.10668" lon="4.42119">
        <ele>1105.65</ele>
        <time>2024-04-04T15:08:35Z</time>
      </trkpt>
      <trkpt lat="45.10676" lon="4.42134">
        <ele>1105.17</ele>
        <time>2024-04-04T15:08:45Z</time>
      </trkpt>
      <trkpt lat="45.10689" lon="4.42145">
        <ele>1107.1</ele>
        <time>2024-04-04T15:08:57Z</time>
      </trkpt>
      <trkpt lat="45.10691" lon="4.42147">
        <ele>1107.58</ele>
        <time>2024-04-04T15:09:00Z</time>
      </trkpt>
      <trkpt lat="45.10699" lon="4.42152">
        <ele>1107.58</ele>
        <time>2024-04-04T15:09:06Z</time>
      </trkpt>
      <trkpt lat="45.10714" lon="4.4216">
        <ele>1107.1</ele>
        <time>2024-04-04T15:09:16Z</time>
      </trkpt>
      <trkpt lat="45.10714" lon="4.42162">
        <ele>1107.1</ele>
        <time>2024-04-04T15:09:18Z</time>
      </trkpt>
      <trkpt lat="45.1072" lon="4.42168">
        <ele>1106.61</ele>
        <time>2024-04-04T15:09:22Z</time>
      </trkpt>
      <trkpt lat="45.10731" lon="4.42182">
        <ele>1106.61</ele>
        <time>2024-04-04T15:09:35Z</time>
      </trkpt>
      <trkpt lat="45.10744" lon="4.42192">
        <ele>1106.61</ele>
        <time>2024-04-04T15:09:46Z</time>
      </trkpt>
      <trkpt lat="45.10749" lon="4.42195">
        <ele>1107.1</ele>
        <time>2024-04-04T15:09:49Z</time>
      </trkpt>
      <trkpt lat="45.10764" lon="4.4221">
        <ele>1108.54</ele>
        <time>2024-04-04T15:10:03Z</time>
      </trkpt>
      <trkpt lat="45.10776" lon="4.42225">
        <ele>1107.1</ele>
        <time>2024-04-04T15:10:15Z</time>
      </trkpt>
      <trkpt lat="45.10785" lon="4.42238">
        <ele>1106.13</ele>
        <time>2024-04-04T15:10:24Z</time>
      </trkpt>
      <trkpt lat="45.10791" lon="4.42243">
        <ele>1105.65</ele>
        <time>2024-04-04T15:10:28Z</time>
      </trkpt>
      <trkpt lat="45.10804" lon="4.42256">
        <ele>1102.77</ele>
        <time>2024-04-04T15:10:40Z</time>
      </trkpt>
      <trkpt lat="45.10812" lon="4.42261">
        <ele>1099.4</ele>
        <time>2024-04-04T15:10:50Z</time>
      </trkpt>
      <trkpt lat="45.10828" lon="4.42268">
        <ele>1094.6</ele>
        <time>2024-04-04T15:11:01Z</time>
      </trkpt>
      <trkpt lat="45.10839" lon="4.42278">
        <ele>1092.2</ele>
        <time>2024-04-04T15:11:10Z</time>
      </trkpt>
      <trkpt lat="45.10847" lon="4.42286">
        <ele>1090.75</ele>
        <time>2024-04-04T15:11:17Z</time>
      </trkpt>
      <trkpt lat="45.10855" lon="4.42295">
        <ele>1090.75</ele>
        <time>2024-04-04T15:11:23Z</time>
      </trkpt>
      <trkpt lat="45.10858" lon="4.42302">
        <ele>1090.27</ele>
        <time>2024-04-04T15:11:28Z</time>
      </trkpt>
      <trkpt lat="45.10864" lon="4.42307">
        <ele>1090.27</ele>
        <time>2024-04-04T15:11:32Z</time>
      </trkpt>
      <trkpt lat="45.10874" lon="4.42317">
        <ele>1088.83</ele>
        <time>2024-04-04T15:11:42Z</time>
      </trkpt>
      <trkpt lat="45.1088" lon="4.42329">
        <ele>1086.43</ele>
        <time>2024-04-04T15:11:51Z</time>
      </trkpt>
      <trkpt lat="45.10886" lon="4.42344">
        <ele>1085.95</ele>
        <time>2024-04-04T15:11:58Z</time>
      </trkpt>
      <trkpt lat="45.10897" lon="4.42364">
        <ele>1083.54</ele>
        <time>2024-04-04T15:12:11Z</time>
      </trkpt>
      <trkpt lat="45.10907" lon="4.42381">
        <ele>1077.78</ele>
        <time>2024-04-04T15:12:23Z</time>
      </trkpt>
      <trkpt lat="45.10917" lon="4.42402">
        <ele>1069.12</ele>
        <time>2024-04-04T15:12:34Z</time>
      </trkpt>
      <trkpt lat="45.10925" lon="4.42418">
        <ele>1062.87</ele>
        <time>2024-04-04T15:12:45Z</time>
      </trkpt>
      <trkpt lat="45.10938" lon="4.42433">
        <ele>1059.03</ele>
        <time>2024-04-04T15:12:57Z</time>
      </trkpt>
      <trkpt lat="45.1095" lon="4.42443">
        <ele>1057.11</ele>
        <time>2024-04-04T15:13:09Z</time>
      </trkpt>
      <trkpt lat="45.10957" lon="4.42446">
        <ele>1057.11</ele>
        <time>2024-04-04T15:13:12Z</time>
      </trkpt>
      <trkpt lat="45.10969" lon="4.42454">
        <ele>1054.22</ele>
        <time>2024-04-04T15:13:23Z</time>
      </trkpt>
      <trkpt lat="45.10979" lon="4.42468">
        <ele>1050.38</ele>
        <time>2024-04-04T15:13:34Z</time>
      </trkpt>
      <trkpt lat="45.10981" lon="4.42475">
        <ele>1048.94</ele>
        <time>2024-04-04T15:13:41Z</time>
      </trkpt>
      <trkpt lat="45.10978" lon="4.42488">
        <ele>1046.53</ele>
        <time>2024-04-04T15:13:50Z</time>
      </trkpt>
      <trkpt lat="45.10971" lon="4.42505">
        <ele>1043.65</ele>
        <time>2024-04-04T15:13:57Z</time>
      </trkpt>
      <trkpt lat="45.10965" lon="4.42518">
        <ele>1042.69</ele>
        <time>2024-04-04T15:14:08Z</time>
      </trkpt>
      <trkpt lat="45.10957" lon="4.42529">
        <ele>1042.21</ele>
        <time>2024-04-04T15:14:15Z</time>
      </trkpt>
      <trkpt lat="45.10955" lon="4.4253">
        <ele>1041.25</ele>
        <time>2024-04-04T15:14:19Z</time>
      </trkpt>
      <trkpt lat="45.10947" lon="4.42551">
        <ele>1037.88</ele>
        <time>2024-04-04T15:14:27Z</time>
      </trkpt>
      <trkpt lat="45.10942" lon="4.42559">
        <ele>1036.92</ele>
        <time>2024-04-04T15:14:37Z</time>
      </trkpt>
      <trkpt lat="45.10933" lon="4.42577">
        <ele>1035.96</ele>
        <time>2024-04-04T15:14:46Z</time>
      </trkpt>
      <trkpt lat="45.10933" lon="4.42578">
        <ele>1035.96</ele>
        <time>2024-04-04T15:14:47Z</time>
      </trkpt>
      <trkpt lat="45.10934" lon="4.42581">
        <ele>1035.96</ele>
        <time>2024-04-04T15:14:49Z</time>
      </trkpt>
      <trkpt lat="45.10944" lon="4.42584">
        <ele>1036.44</ele>
        <time>2024-04-04T15:15:00Z</time>
      </trkpt>
      <trkpt lat="45.10958" lon="4.42581">
        <ele>1035.96</ele>
        <time>2024-04-04T15:15:09Z</time>
      </trkpt>
      <trkpt lat="45.10961" lon="4.4258">
        <ele>1035.96</ele>
        <time>2024-04-04T15:15:12Z</time>
      </trkpt>
      <trkpt lat="45.10963" lon="4.42579">
        <ele>1035.48</ele>
        <time>2024-04-04T15:15:14Z</time>
      </trkpt>
      <trkpt lat="45.10974" lon="4.42571">
        <ele>1035.48</ele>
        <time>2024-04-04T15:15:23Z</time>
      </trkpt>
      <trkpt lat="45.1098" lon="4.42568">
        <ele>1035.96</ele>
        <time>2024-04-04T15:15:31Z</time>
      </trkpt>
      <trkpt lat="45.10989" lon="4.42563">
        <ele>1035.96</ele>
        <time>2024-04-04T15:15:38Z</time>
      </trkpt>
      <trkpt lat="45.10999" lon="4.42553">
        <ele>1035</ele>
        <time>2024-04-04T15:15:45Z</time>
      </trkpt>
      <trkpt lat="45.11009" lon="4.42552">
        <ele>1033.07</ele>
        <time>2024-04-04T15:16:04Z</time>
      </trkpt>
      <trkpt lat="45.11016" lon="4.42547">
        <ele>1031.15</ele>
        <time>2024-04-04T15:16:28Z</time>
      </trkpt>
      <trkpt lat="45.11032" lon="4.42546">
        <ele>1028.75</ele>
        <time>2024-04-04T15:16:50Z</time>
      </trkpt>
      <trkpt lat="45.11037" lon="4.42545">
        <ele>1028.27</ele>
        <time>2024-04-04T15:17:13Z</time>
      </trkpt>
      <trkpt lat="45.11052" lon="4.42533">
        <ele>1028.27</ele>
        <time>2024-04-04T15:17:31Z</time>
      </trkpt>
      <trkpt lat="45.11076" lon="4.42515">
        <ele>1025.38</ele>
        <time>2024-04-04T15:17:48Z</time>
      </trkpt>
      <trkpt lat="45.11096" lon="4.42487">
        <ele>1022.5</ele>
        <time>2024-04-04T15:18:05Z</time>
      </trkpt>
      <trkpt lat="45.11106" lon="4.42482">
        <ele>1024.42</ele>
        <time>2024-04-04T15:18:22Z</time>
      </trkpt>
      <trkpt lat="45.1111" lon="4.42478">
        <ele>1022.02</ele>
        <time>2024-04-04T15:18:37Z</time>
      </trkpt>
      <trkpt lat="45.1111" lon="4.42483">
        <ele>1022.02</ele>
        <time>2024-04-04T15:18:40Z</time>
      </trkpt>
      <trkpt lat="45.1111" lon="4.42511">
        <ele>1022.02</ele>
        <time>2024-04-04T15:18:56Z</time>
      </trkpt>
      <trkpt lat="45.11106" lon="4.42538">
        <ele>1025.86</ele>
        <time>2024-04-04T15:19:13Z</time>
      </trkpt>
      <trkpt lat="45.11099" lon="4.42555">
        <ele>1025.86</ele>
        <time>2024-04-04T15:19:27Z</time>
      </trkpt>
      <trkpt lat="45.11096" lon="4.4256">
        <ele>1026.34</ele>
        <time>2024-04-04T15:19:30Z</time>
      </trkpt>
      <trkpt lat="45.11087" lon="4.42587">
        <ele>1029.71</ele>
        <time>2024-04-04T15:19:47Z</time>
      </trkpt>
      <trkpt lat="45.11077" lon="4.42612">
        <ele>1033.55</ele>
        <time>2024-04-04T15:20:03Z</time>
      </trkpt>
      <trkpt lat="45.11071" lon="4.42636">
        <ele>1035.96</ele>
        <time>2024-04-04T15:20:18Z</time>
      </trkpt>
      <trkpt lat="45.11068" lon="4.42669">
        <ele>1040.28</ele>
        <time>2024-04-04T15:20:37Z</time>
      </trkpt>
      <trkpt lat="45.11071" lon="4.42699">
        <ele>1042.21</ele>
        <time>2024-04-04T15:20:53Z</time>
      </trkpt>
      <trkpt lat="45.11074" lon="4.42725">
        <ele>1044.61</ele>
        <time>2024-04-04T15:21:09Z</time>
      </trkpt>
      <trkpt lat="45.11078" lon="4.42728">
        <ele>1042.69</ele>
        <time>2024-04-04T15:21:22Z</time>
      </trkpt>
      <trkpt lat="45.11078" lon="4.4273">
        <ele>1042.69</ele>
        <time>2024-04-04T15:21:38Z</time>
      </trkpt>
      <trkpt lat="45.11078" lon="4.4273">
        <ele>1042.69</ele>
        <time>2024-04-04T15:21:58Z</time>
      </trkpt>
      <trkpt lat="45.1108" lon="4.42721">
        <ele>1043.17</ele>
        <time>2024-04-04T15:22:12Z</time>
      </trkpt>
      <trkpt lat="45.1108" lon="4.42727">
        <ele>1042.69</ele>
        <time>2024-04-04T15:22:32Z</time>
      </trkpt>
      <trkpt lat="45.1108" lon="4.4273">
        <ele>1043.17</ele>
        <time>2024-04-04T15:22:34Z</time>
      </trkpt>
      <trkpt lat="45.11076" lon="4.42757">
        <ele>1043.65</ele>
        <time>2024-04-04T15:22:50Z</time>
      </trkpt>
      <trkpt lat="45.11078" lon="4.4278">
        <ele>1045.57</ele>
        <time>2024-04-04T15:23:02Z</time>
      </trkpt>
      <trkpt lat="45.11085" lon="4.42808">
        <ele>1048.94</ele>
        <time>2024-04-04T15:23:19Z</time>
      </trkpt>
      <trkpt lat="45.11094" lon="4.42829">
        <ele>1052.3</ele>
        <time>2024-04-04T15:23:34Z</time>
      </trkpt>
      <trkpt lat="45.11107" lon="4.42847">
        <ele>1053.26</ele>
        <time>2024-04-04T15:23:51Z</time>
      </trkpt>
      <trkpt lat="45.11117" lon="4.42865">
        <ele>1054.7</ele>
        <time>2024-04-04T15:24:04Z</time>
      </trkpt>
      <trkpt lat="45.11122" lon="4.42875">
        <ele>1056.15</ele>
        <time>2024-04-04T15:24:13Z</time>
      </trkpt>
      <trkpt lat="45.11136" lon="4.42905">
        <ele>1057.59</ele>
        <time>2024-04-04T15:24:31Z</time>
      </trkpt>
      <trkpt lat="45.11147" lon="4.42929">
        <ele>1058.55</ele>
        <time>2024-04-04T15:24:45Z</time>
      </trkpt>
      <trkpt lat="45.11156" lon="4.42952">
        <ele>1059.99</ele>
        <time>2024-04-04T15:24:58Z</time>
      </trkpt>
      <trkpt lat="45.11165" lon="4.42978">
        <ele>1059.99</ele>
        <time>2024-04-04T15:25:14Z</time>
      </trkpt>
      <trkpt lat="45.11175" lon="4.43006">
        <ele>1059.51</ele>
        <time>2024-04-04T15:25:31Z</time>
      </trkpt>
      <trkpt lat="45.11185" lon="4.43032">
        <ele>1059.51</ele>
        <time>2024-04-04T15:25:46Z</time>
      </trkpt>
      <trkpt lat="45.11191" lon="4.4305">
        <ele>1058.55</ele>
        <time>2024-04-04T15:25:56Z</time>
      </trkpt>
      <trkpt lat="45.11199" lon="4.43081">
        <ele>1059.99</ele>
        <time>2024-04-04T15:26:13Z</time>
      </trkpt>
      <trkpt lat="45.11207" lon="4.4311">
        <ele>1061.91</ele>
        <time>2024-04-04T15:26:29Z</time>
      </trkpt>
      <trkpt lat="45.11215" lon="4.43134">
        <ele>1063.84</ele>
        <time>2024-04-04T15:26:44Z</time>
      </trkpt>
      <trkpt lat="45.11219" lon="4.43139">
        <ele>1063.84</ele>
        <time>2024-04-04T15:26:49Z</time>
      </trkpt>
      <trkpt lat="45.11232" lon="4.43143">
        <ele>1063.36</ele>
        <time>2024-04-04T15:27:01Z</time>
      </trkpt>
      <trkpt lat="45.11235" lon="4.43147">
        <ele>1062.87</ele>
        <time>2024-04-04T15:27:04Z</time>
      </trkpt>
      <trkpt lat="45.11236" lon="4.43151">
        <ele>1062.87</ele>
        <time>2024-04-04T15:27:06Z</time>
      </trkpt>
      <trkpt lat="45.11239" lon="4.43157">
        <ele>1062.39</ele>
        <time>2024-04-04T15:27:11Z</time>
      </trkpt>
      <trkpt lat="45.11245" lon="4.4318">
        <ele>1061.91</ele>
        <time>2024-04-04T15:27:23Z</time>
      </trkpt>
      <trkpt lat="45.11257" lon="4.4319">
        <ele>1061.91</ele>
        <time>2024-04-04T15:27:40Z</time>
      </trkpt>
      <trkpt lat="45.11261" lon="4.43183">
        <ele>1061.91</ele>
        <time>2024-04-04T15:27:46Z</time>
      </trkpt>
      <trkpt lat="45.11274" lon="4.43169">
        <ele>1064.32</ele>
        <time>2024-04-04T15:27:59Z</time>
      </trkpt>
      <trkpt lat="45.11283" lon="4.43164">
        <ele>1066.24</ele>
        <time>2024-04-04T15:28:08Z</time>
      </trkpt>
      <trkpt lat="45.11293" lon="4.43159">
        <ele>1067.68</ele>
        <time>2024-04-04T15:28:17Z</time>
      </trkpt>
      <trkpt lat="45.11303" lon="4.43151">
        <ele>1067.68</ele>
        <time>2024-04-04T15:28:26Z</time>
      </trkpt>
      <trkpt lat="45.11304" lon="4.43149">
        <ele>1067.68</ele>
        <time>2024-04-04T15:28:29Z</time>
      </trkpt>
      <trkpt lat="45.11316" lon="4.43136">
        <ele>1068.64</ele>
        <time>2024-04-04T15:28:39Z</time>
      </trkpt>
      <trkpt lat="45.11321" lon="4.43128">
        <ele>1069.12</ele>
        <time>2024-04-04T15:28:48Z</time>
      </trkpt>
      <trkpt lat="45.11329" lon="4.43117">
        <ele>1070.08</ele>
        <time>2024-04-04T15:28:57Z</time>
      </trkpt>
      <trkpt lat="45.11338" lon="4.43104">
        <ele>1071.53</ele>
        <time>2024-04-04T15:29:05Z</time>
      </trkpt>
      <trkpt lat="45.11345" lon="4.43095">
        <ele>1071.05</ele>
        <time>2024-04-04T15:29:13Z</time>
      </trkpt>
      <trkpt lat="45.11356" lon="4.43078">
        <ele>1071.05</ele>
        <time>2024-04-04T15:29:23Z</time>
      </trkpt>
      <trkpt lat="45.11365" lon="4.43061">
        <ele>1071.05</ele>
        <time>2024-04-04T15:29:33Z</time>
      </trkpt>
      <trkpt lat="45.11374" lon="4.43044">
        <ele>1071.53</ele>
        <time>2024-04-04T15:29:44Z</time>
      </trkpt>
      <trkpt lat="45.11382" lon="4.43024">
        <ele>1071.53</ele>
        <time>2024-04-04T15:29:55Z</time>
      </trkpt>
      <trkpt lat="45.1139" lon="4.43007">
        <ele>1071.53</ele>
        <time>2024-04-04T15:30:05Z</time>
      </trkpt>
      <trkpt lat="45.11398" lon="4.4299">
        <ele>1071.53</ele>
        <time>2024-04-04T15:30:15Z</time>
      </trkpt>
      <trkpt lat="45.11403" lon="4.42974">
        <ele>1072.97</ele>
        <time>2024-04-04T15:30:25Z</time>
      </trkpt>
      <trkpt lat="45.11409" lon="4.42955">
        <ele>1072.97</ele>
        <time>2024-04-04T15:30:37Z</time>
      </trkpt>
      <trkpt lat="45.11409" lon="4.4295">
        <ele>1073.45</ele>
        <time>2024-04-04T15:30:44Z</time>
      </trkpt>
      <trkpt lat="45.11418" lon="4.42923">
        <ele>1073.93</ele>
        <time>2024-04-04T15:30:58Z</time>
      </trkpt>
      <trkpt lat="45.1142" lon="4.42915">
        <ele>1072.97</ele>
        <time>2024-04-04T15:31:04Z</time>
      </trkpt>
      <trkpt lat="45.11424" lon="4.42899">
        <ele>1072.97</ele>
        <time>2024-04-04T15:31:12Z</time>
      </trkpt>
      <trkpt lat="45.11431" lon="4.42874">
        <ele>1072.01</ele>
        <time>2024-04-04T15:31:24Z</time>
      </trkpt>
      <trkpt lat="45.1143" lon="4.42871">
        <ele>1071.53</ele>
        <time>2024-04-04T15:31:28Z</time>
      </trkpt>
      <trkpt lat="45.11436" lon="4.42862">
        <ele>1071.53</ele>
        <time>2024-04-04T15:31:32Z</time>
      </trkpt>
      <trkpt lat="45.11445" lon="4.42845">
        <ele>1072.01</ele>
        <time>2024-04-04T15:31:42Z</time>
      </trkpt>
      <trkpt lat="45.11447" lon="4.42843">
        <ele>1072.49</ele>
        <time>2024-04-04T15:31:44Z</time>
      </trkpt>
      <trkpt lat="45.11455" lon="4.42829">
        <ele>1073.93</ele>
        <time>2024-04-04T15:31:54Z</time>
      </trkpt>
      <trkpt lat="45.11463" lon="4.42816">
        <ele>1074.41</ele>
        <time>2024-04-04T15:32:04Z</time>
      </trkpt>
      <trkpt lat="45.11464" lon="4.42813">
        <ele>1074.89</ele>
        <time>2024-04-04T15:32:07Z</time>
      </trkpt>
      <trkpt lat="45.11473" lon="4.42803">
        <ele>1075.85</ele>
        <time>2024-04-04T15:32:17Z</time>
      </trkpt>
      <trkpt lat="45.11475" lon="4.42802">
        <ele>1075.85</ele>
        <time>2024-04-04T15:32:19Z</time>
      </trkpt>
      <trkpt lat="45.11489" lon="4.42793">
        <ele>1078.26</ele>
        <time>2024-04-04T15:32:29Z</time>
      </trkpt>
      <trkpt lat="45.11498" lon="4.4279">
        <ele>1080.66</ele>
        <time>2024-04-04T15:32:38Z</time>
      </trkpt>
      <trkpt lat="45.11508" lon="4.42786">
        <ele>1081.14</ele>
        <time>2024-04-04T15:32:48Z</time>
      </trkpt>
      <trkpt lat="45.11514" lon="4.42784">
        <ele>1082.1</ele>
        <time>2024-04-04T15:32:53Z</time>
      </trkpt>
      <trkpt lat="45.11527" lon="4.42776">
        <ele>1082.58</ele>
        <time>2024-04-04T15:33:03Z</time>
      </trkpt>
      <trkpt lat="45.11529" lon="4.42776">
        <ele>1082.58</ele>
        <time>2024-04-04T15:33:06Z</time>
      </trkpt>
      <trkpt lat="45.11537" lon="4.4277">
        <ele>1082.1</ele>
        <time>2024-04-04T15:33:13Z</time>
      </trkpt>
      <trkpt lat="45.11549" lon="4.42762">
        <ele>1083.06</ele>
        <time>2024-04-04T15:33:23Z</time>
      </trkpt>
      <trkpt lat="45.11559" lon="4.42755">
        <ele>1083.54</ele>
        <time>2024-04-04T15:33:34Z</time>
      </trkpt>
      <trkpt lat="45.1157" lon="4.42749">
        <ele>1083.54</ele>
        <time>2024-04-04T15:33:42Z</time>
      </trkpt>
      <trkpt lat="45.11578" lon="4.42741">
        <ele>1084.02</ele>
        <time>2024-04-04T15:33:51Z</time>
      </trkpt>
      <trkpt lat="45.11579" lon="4.42741">
        <ele>1084.02</ele>
        <time>2024-04-04T15:33:53Z</time>
      </trkpt>
      <trkpt lat="45.11594" lon="4.42728">
        <ele>1084.5</ele>
        <time>2024-04-04T15:34:05Z</time>
      </trkpt>
      <trkpt lat="45.11604" lon="4.42721">
        <ele>1083.54</ele>
        <time>2024-04-04T15:34:14Z</time>
      </trkpt>
      <trkpt lat="45.11617" lon="4.42713">
        <ele>1082.1</ele>
        <time>2024-04-04T15:34:24Z</time>
      </trkpt>
      <trkpt lat="45.11626" lon="4.42707">
        <ele>1082.1</ele>
        <time>2024-04-04T15:34:29Z</time>
      </trkpt>
      <trkpt lat="45.1163" lon="4.42707">
        <ele>1082.1</ele>
        <time>2024-04-04T15:34:33Z</time>
      </trkpt>
      <trkpt lat="45.11636" lon="4.42704">
        <ele>1082.58</ele>
        <time>2024-04-04T15:34:37Z</time>
      </trkpt>
      <trkpt lat="45.1165" lon="4.42696">
        <ele>1082.58</ele>
        <time>2024-04-04T15:34:48Z</time>
      </trkpt>
      <trkpt lat="45.11664" lon="4.4269">
        <ele>1082.58</ele>
        <time>2024-04-04T15:34:59Z</time>
      </trkpt>
      <trkpt lat="45.11677" lon="4.42684">
        <ele>1084.02</ele>
        <time>2024-04-04T15:35:10Z</time>
      </trkpt>
      <trkpt lat="45.1169" lon="4.42679">
        <ele>1085.95</ele>
        <time>2024-04-04T15:35:21Z</time>
      </trkpt>
      <trkpt lat="45.11704" lon="4.42674">
        <ele>1087.87</ele>
        <time>2024-04-04T15:35:33Z</time>
      </trkpt>
      <trkpt lat="45.11704" lon="4.42673">
        <ele>1088.35</ele>
        <time>2024-04-04T15:35:34Z</time>
      </trkpt>
      <trkpt lat="45.11717" lon="4.42668">
        <ele>1090.27</ele>
        <time>2024-04-04T15:35:43Z</time>
      </trkpt>
      <trkpt lat="45.11728" lon="4.42661">
        <ele>1092.68</ele>
        <time>2024-04-04T15:35:54Z</time>
      </trkpt>
      <trkpt lat="45.11742" lon="4.42655">
        <ele>1094.12</ele>
        <time>2024-04-04T15:36:04Z</time>
      </trkpt>
      <trkpt lat="45.11758" lon="4.42647">
        <ele>1095.56</ele>
        <time>2024-04-04T15:36:16Z</time>
      </trkpt>
      <trkpt lat="45.1177" lon="4.42641">
        <ele>1095.56</ele>
        <time>2024-04-04T15:36:25Z</time>
      </trkpt>
      <trkpt lat="45.11781" lon="4.42632">
        <ele>1095.08</ele>
        <time>2024-04-04T15:36:34Z</time>
      </trkpt>
      <trkpt lat="45.11791" lon="4.4262">
        <ele>1094.12</ele>
        <time>2024-04-04T15:36:43Z</time>
      </trkpt>
      <trkpt lat="45.11795" lon="4.42614">
        <ele>1094.12</ele>
        <time>2024-04-04T15:36:49Z</time>
      </trkpt>
      <trkpt lat="45.11802" lon="4.42596">
        <ele>1094.6</ele>
        <time>2024-04-04T15:37:00Z</time>
      </trkpt>
      <trkpt lat="45.11808" lon="4.4258">
        <ele>1095.08</ele>
        <time>2024-04-04T15:37:09Z</time>
      </trkpt>
      <trkpt lat="45.11814" lon="4.42562">
        <ele>1096.04</ele>
        <time>2024-04-04T15:37:19Z</time>
      </trkpt>
      <trkpt lat="45.1182" lon="4.42548">
        <ele>1096.52</ele>
        <time>2024-04-04T15:37:29Z</time>
      </trkpt>
      <trkpt lat="45.11826" lon="4.42535">
        <ele>1097.48</ele>
        <time>2024-04-04T15:37:38Z</time>
      </trkpt>
      <trkpt lat="45.11832" lon="4.4252">
        <ele>1097.96</ele>
        <time>2024-04-04T15:37:48Z</time>
      </trkpt>
      <trkpt lat="45.11839" lon="4.42505">
        <ele>1098.92</ele>
        <time>2024-04-04T15:37:57Z</time>
      </trkpt>
      <trkpt lat="45.11847" lon="4.42487">
        <ele>1100.85</ele>
        <time>2024-04-04T15:38:07Z</time>
      </trkpt>
      <trkpt lat="45.11855" lon="4.42473">
        <ele>1103.25</ele>
        <time>2024-04-04T15:38:17Z</time>
      </trkpt>
      <trkpt lat="45.11865" lon="4.42456">
        <ele>1105.65</ele>
        <time>2024-04-04T15:38:29Z</time>
      </trkpt>
      <trkpt lat="45.11874" lon="4.42444">
        <ele>1108.06</ele>
        <time>2024-04-04T15:38:38Z</time>
      </trkpt>
      <trkpt lat="45.11881" lon="4.42435">
        <ele>1108.54</ele>
        <time>2024-04-04T15:38:46Z</time>
      </trkpt>
      <trkpt lat="45.11889" lon="4.42426">
        <ele>1109.98</ele>
        <time>2024-04-04T15:38:56Z</time>
      </trkpt>
      <trkpt lat="45.11899" lon="4.42412">
        <ele>1110.94</ele>
        <time>2024-04-04T15:39:06Z</time>
      </trkpt>
      <trkpt lat="45.11908" lon="4.424">
        <ele>1111.9</ele>
        <time>2024-04-04T15:39:15Z</time>
      </trkpt>
      <trkpt lat="45.11917" lon="4.42389">
        <ele>1112.86</ele>
        <time>2024-04-04T15:39:25Z</time>
      </trkpt>
      <trkpt lat="45.11917" lon="4.42389">
        <ele>1112.86</ele>
        <time>2024-04-04T15:39:27Z</time>
      </trkpt>
      <trkpt lat="45.11927" lon="4.42374">
        <ele>1114.31</ele>
        <time>2024-04-04T15:39:37Z</time>
      </trkpt>
      <trkpt lat="45.11936" lon="4.42357">
        <ele>1114.79</ele>
        <time>2024-04-04T15:39:45Z</time>
      </trkpt>
      <trkpt lat="45.11946" lon="4.42346">
        <ele>1115.75</ele>
        <time>2024-04-04T15:39:55Z</time>
      </trkpt>
      <trkpt lat="45.11953" lon="4.42336">
        <ele>1116.71</ele>
        <time>2024-04-04T15:40:03Z</time>
      </trkpt>
      <trkpt lat="45.11963" lon="4.42329">
        <ele>1117.19</ele>
        <time>2024-04-04T15:40:12Z</time>
      </trkpt>
      <trkpt lat="45.11974" lon="4.42323">
        <ele>1117.67</ele>
        <time>2024-04-04T15:40:21Z</time>
      </trkpt>
      <trkpt lat="45.11984" lon="4.42316">
        <ele>1118.63</ele>
        <time>2024-04-04T15:40:29Z</time>
      </trkpt>
      <trkpt lat="45.11994" lon="4.42309">
        <ele>1120.07</ele>
        <time>2024-04-04T15:40:35Z</time>
      </trkpt>
      <trkpt lat="45.12003" lon="4.42303">
        <ele>1120.55</ele>
        <time>2024-04-04T15:40:44Z</time>
      </trkpt>
      <trkpt lat="45.12014" lon="4.42293">
        <ele>1122.48</ele>
        <time>2024-04-04T15:40:54Z</time>
      </trkpt>
      <trkpt lat="45.12019" lon="4.42288">
        <ele>1122.48</ele>
        <time>2024-04-04T15:40:59Z</time>
      </trkpt>
      <trkpt lat="45.12028" lon="4.42277">
        <ele>1122.96</ele>
        <time>2024-04-04T15:41:09Z</time>
      </trkpt>
      <trkpt lat="45.12034" lon="4.42269">
        <ele>1121.52</ele>
        <time>2024-04-04T15:41:17Z</time>
      </trkpt>
      <trkpt lat="45.12039" lon="4.42263">
        <ele>1122</ele>
        <time>2024-04-04T15:41:26Z</time>
      </trkpt>
      <trkpt lat="45.12048" lon="4.42255">
        <ele>1122.48</ele>
        <time>2024-04-04T15:41:34Z</time>
      </trkpt>
      <trkpt lat="45.12052" lon="4.42252">
        <ele>1123.44</ele>
        <time>2024-04-04T15:41:41Z</time>
      </trkpt>
      <trkpt lat="45.1206" lon="4.42241">
        <ele>1123.92</ele>
        <time>2024-04-04T15:41:52Z</time>
      </trkpt>
      <trkpt lat="45.12067" lon="4.42236">
        <ele>1123.44</ele>
        <time>2024-04-04T15:42:00Z</time>
      </trkpt>
      <trkpt lat="45.12073" lon="4.42229">
        <ele>1122.96</ele>
        <time>2024-04-04T15:42:07Z</time>
      </trkpt>
      <trkpt lat="45.12084" lon="4.42225">
        <ele>1122.48</ele>
        <time>2024-04-04T15:42:15Z</time>
      </trkpt>
      <trkpt lat="45.12096" lon="4.42217">
        <ele>1122.96</ele>
        <time>2024-04-04T15:42:26Z</time>
      </trkpt>
      <trkpt lat="45.12107" lon="4.42212">
        <ele>1123.44</ele>
        <time>2024-04-04T15:42:36Z</time>
      </trkpt>
      <trkpt lat="45.12128" lon="4.42196">
        <ele>1125.36</ele>
        <time>2024-04-04T15:42:52Z</time>
      </trkpt>
      <trkpt lat="45.12145" lon="4.42191">
        <ele>1123.92</ele>
        <time>2024-04-04T15:43:04Z</time>
      </trkpt>
      <trkpt lat="45.12154" lon="4.42187">
        <ele>1123.44</ele>
        <time>2024-04-04T15:43:09Z</time>
      </trkpt>
      <trkpt lat="45.12165" lon="4.42179">
        <ele>1121.03</ele>
        <time>2024-04-04T15:43:20Z</time>
      </trkpt>
      <trkpt lat="45.12167" lon="4.42178">
        <ele>1121.03</ele>
        <time>2024-04-04T15:43:24Z</time>
      </trkpt>
      <trkpt lat="45.12177" lon="4.42174">
        <ele>1119.59</ele>
        <time>2024-04-04T15:43:33Z</time>
      </trkpt>
      <trkpt lat="45.1218" lon="4.42174">
        <ele>1119.11</ele>
        <time>2024-04-04T15:43:35Z</time>
      </trkpt>
      <trkpt lat="45.12199" lon="4.42169">
        <ele>1120.07</ele>
        <time>2024-04-04T15:43:48Z</time>
      </trkpt>
      <trkpt lat="45.12202" lon="4.42168">
        <ele>1120.55</ele>
        <time>2024-04-04T15:43:53Z</time>
      </trkpt>
      <trkpt lat="45.12216" lon="4.42161">
        <ele>1121.03</ele>
        <time>2024-04-04T15:44:04Z</time>
      </trkpt>
      <trkpt lat="45.12232" lon="4.4215">
        <ele>1121.52</ele>
        <time>2024-04-04T15:44:15Z</time>
      </trkpt>
      <trkpt lat="45.12251" lon="4.42145">
        <ele>1119.59</ele>
        <time>2024-04-04T15:44:30Z</time>
      </trkpt>
      <trkpt lat="45.12266" lon="4.42142">
        <ele>1116.23</ele>
        <time>2024-04-04T15:44:41Z</time>
      </trkpt>
      <trkpt lat="45.12275" lon="4.42141">
        <ele>1114.79</ele>
        <time>2024-04-04T15:44:48Z</time>
      </trkpt>
      <trkpt lat="45.12285" lon="4.42135">
        <ele>1114.31</ele>
        <time>2024-04-04T15:44:59Z</time>
      </trkpt>
      <trkpt lat="45.1229" lon="4.42134">
        <ele>1114.31</ele>
        <time>2024-04-04T15:45:04Z</time>
      </trkpt>
      <trkpt lat="45.12303" lon="4.42127">
        <ele>1112.38</ele>
        <time>2024-04-04T15:45:15Z</time>
      </trkpt>
      <trkpt lat="45.12306" lon="4.42126">
        <ele>1111.42</ele>
        <time>2024-04-04T15:45:18Z</time>
      </trkpt>
      <trkpt lat="45.12316" lon="4.42119">
        <ele>1109.02</ele>
        <time>2024-04-04T15:45:27Z</time>
      </trkpt>
      <trkpt lat="45.12331" lon="4.42105">
        <ele>1106.13</ele>
        <time>2024-04-04T15:45:38Z</time>
      </trkpt>
      <trkpt lat="45.12332" lon="4.42105">
        <ele>1105.65</ele>
        <time>2024-04-04T15:45:39Z</time>
      </trkpt>
      <trkpt lat="45.12346" lon="4.42094">
        <ele>1103.73</ele>
        <time>2024-04-04T15:45:50Z</time>
      </trkpt>
      <trkpt lat="45.12352" lon="4.42085">
        <ele>1103.25</ele>
        <time>2024-04-04T15:45:55Z</time>
      </trkpt>
      <trkpt lat="45.12362" lon="4.42071">
        <ele>1103.25</ele>
        <time>2024-04-04T15:46:06Z</time>
      </trkpt>
      <trkpt lat="45.12364" lon="4.42069">
        <ele>1103.25</ele>
        <time>2024-04-04T15:46:07Z</time>
      </trkpt>
      <trkpt lat="45.12366" lon="4.42065">
        <ele>1103.25</ele>
        <time>2024-04-04T15:46:12Z</time>
      </trkpt>
      <trkpt lat="45.12368" lon="4.42056">
        <ele>1103.73</ele>
        <time>2024-04-04T15:46:16Z</time>
      </trkpt>
      <trkpt lat="45.12373" lon="4.42051">
        <ele>1103.73</ele>
        <time>2024-04-04T15:46:20Z</time>
      </trkpt>
      <trkpt lat="45.12381" lon="4.42048">
        <ele>1103.25</ele>
        <time>2024-04-04T15:46:27Z</time>
      </trkpt>
      <trkpt lat="45.12389" lon="4.42041">
        <ele>1101.81</ele>
        <time>2024-04-04T15:46:37Z</time>
      </trkpt>
      <trkpt lat="45.1239" lon="4.42039">
        <ele>1101.81</ele>
        <time>2024-04-04T15:46:38Z</time>
      </trkpt>
      <trkpt lat="45.12396" lon="4.42032">
        <ele>1100.85</ele>
        <time>2024-04-04T15:46:41Z</time>
      </trkpt>
      <trkpt lat="45.12402" lon="4.42031">
        <ele>1099.89</ele>
        <time>2024-04-04T15:46:45Z</time>
      </trkpt>
      <trkpt lat="45.12403" lon="4.4203">
        <ele>1099.4</ele>
        <time>2024-04-04T15:46:48Z</time>
      </trkpt>
      <trkpt lat="45.12405" lon="4.42025">
        <ele>1098.44</ele>
        <time>2024-04-04T15:46:51Z</time>
      </trkpt>
      <trkpt lat="45.12407" lon="4.42026">
        <ele>1097.96</ele>
        <time>2024-04-04T15:46:55Z</time>
      </trkpt>
      <trkpt lat="45.12423" lon="4.42032">
        <ele>1097</ele>
        <time>2024-04-04T15:47:08Z</time>
      </trkpt>
      <trkpt lat="45.12448" lon="4.42043">
        <ele>1096.04</ele>
        <time>2024-04-04T15:47:26Z</time>
      </trkpt>
      <trkpt lat="45.12459" lon="4.42045">
        <ele>1097</ele>
        <time>2024-04-04T15:47:41Z</time>
      </trkpt>
      <trkpt lat="45.12485" lon="4.42032">
        <ele>1095.56</ele>
        <time>2024-04-04T15:48:01Z</time>
      </trkpt>
      <trkpt lat="45.12488" lon="4.42031">
        <ele>1095.08</ele>
        <time>2024-04-04T15:48:04Z</time>
      </trkpt>
      <trkpt lat="45.12491" lon="4.4203">
        <ele>1096.04</ele>
        <time>2024-04-04T15:48:07Z</time>
      </trkpt>
      <trkpt lat="45.12512" lon="4.42021">
        <ele>1097</ele>
        <time>2024-04-04T15:48:23Z</time>
      </trkpt>
      <trkpt lat="45.12535" lon="4.42015">
        <ele>1099.89</ele>
        <time>2024-04-04T15:48:44Z</time>
      </trkpt>
      <trkpt lat="45.12562" lon="4.41983">
        <ele>1097.96</ele>
        <time>2024-04-04T15:49:05Z</time>
      </trkpt>
      <trkpt lat="45.12559" lon="4.41972">
        <ele>1097.48</ele>
        <time>2024-04-04T15:49:13Z</time>
      </trkpt>
      <trkpt lat="45.12553" lon="4.41973">
        <ele>1099.4</ele>
        <time>2024-04-04T15:49:18Z</time>
      </trkpt>
      <trkpt lat="45.1255" lon="4.4198">
        <ele>1100.85</ele>
        <time>2024-04-04T15:49:31Z</time>
      </trkpt>
      <trkpt lat="45.12546" lon="4.41981">
        <ele>1100.85</ele>
        <time>2024-04-04T15:49:50Z</time>
      </trkpt>
      <trkpt lat="45.12533" lon="4.41979">
        <ele>1102.29</ele>
        <time>2024-04-04T15:50:15Z</time>
      </trkpt>
      <trkpt lat="45.12503" lon="4.41974">
        <ele>1104.21</ele>
        <time>2024-04-04T15:50:39Z</time>
      </trkpt>
      <trkpt lat="45.12471" lon="4.41973">
        <ele>1105.17</ele>
        <time>2024-04-04T15:51:03Z</time>
      </trkpt>
      <trkpt lat="45.1245" lon="4.41965">
        <ele>1103.73</ele>
        <time>2024-04-04T15:51:23Z</time>
      </trkpt>
      <trkpt lat="45.12432" lon="4.4195">
        <ele>1103.73</ele>
        <time>2024-04-04T15:51:45Z</time>
      </trkpt>
      <trkpt lat="45.12412" lon="4.41929">
        <ele>1110.46</ele>
        <time>2024-04-04T15:52:07Z</time>
      </trkpt>
      <trkpt lat="45.124" lon="4.41896">
        <ele>1118.63</ele>
        <time>2024-04-04T15:52:30Z</time>
      </trkpt>
      <trkpt lat="45.12386" lon="4.41861">
        <ele>1120.07</ele>
        <time>2024-04-04T15:52:53Z</time>
      </trkpt>
      <trkpt lat="45.12385" lon="4.4186">
        <ele>1119.59</ele>
        <time>2024-04-04T15:52:54Z</time>
      </trkpt>
      <trkpt lat="45.12369" lon="4.41832">
        <ele>1119.59</ele>
        <time>2024-04-04T15:53:15Z</time>
      </trkpt>
      <trkpt lat="45.12352" lon="4.418">
        <ele>1119.59</ele>
        <time>2024-04-04T15:53:37Z</time>
      </trkpt>
      <trkpt lat="45.12341" lon="4.41768">
        <ele>1119.11</ele>
        <time>2024-04-04T15:53:58Z</time>
      </trkpt>
      <trkpt lat="45.12335" lon="4.41755">
        <ele>1119.59</ele>
        <time>2024-04-04T15:54:07Z</time>
      </trkpt>
      <trkpt lat="45.12308" lon="4.41724">
        <ele>1119.59</ele>
        <time>2024-04-04T15:54:32Z</time>
      </trkpt>
      <trkpt lat="45.12291" lon="4.41703">
        <ele>1121.03</ele>
        <time>2024-04-04T15:54:54Z</time>
      </trkpt>
      <trkpt lat="45.12288" lon="4.41702">
        <ele>1121.03</ele>
        <time>2024-04-04T15:54:56Z</time>
      </trkpt>
      <trkpt lat="45.12276" lon="4.4169">
        <ele>1124.88</ele>
        <time>2024-04-04T15:55:14Z</time>
      </trkpt>
      <trkpt lat="45.12268" lon="4.41675">
        <ele>1124.88</ele>
        <time>2024-04-04T15:55:30Z</time>
      </trkpt>
      <trkpt lat="45.12269" lon="4.41667">
        <ele>1125.36</ele>
        <time>2024-04-04T15:55:49Z</time>
      </trkpt>
      <trkpt lat="45.12265" lon="4.41663">
        <ele>1126.32</ele>
        <time>2024-04-04T15:56:05Z</time>
      </trkpt>
      <trkpt lat="45.12262" lon="4.4165">
        <ele>1127.28</ele>
        <time>2024-04-04T15:56:32Z</time>
      </trkpt>
      <trkpt lat="45.12259" lon="4.4165">
        <ele>1127.76</ele>
        <time>2024-04-04T15:57:00Z</time>
      </trkpt>
      <trkpt lat="45.12257" lon="4.41655">
        <ele>1128.24</ele>
        <time>2024-04-04T15:57:24Z</time>
      </trkpt>
      <trkpt lat="45.12261" lon="4.41648">
        <ele>1126.8</ele>
        <time>2024-04-04T15:57:41Z</time>
      </trkpt>
      <trkpt lat="45.1226" lon="4.41635">
        <ele>1126.32</ele>
        <time>2024-04-04T15:57:53Z</time>
      </trkpt>
      <trkpt lat="45.12252" lon="4.41605">
        <ele>1124.88</ele>
        <time>2024-04-04T15:58:12Z</time>
      </trkpt>
      <trkpt lat="45.12243" lon="4.41567">
        <ele>1123.44</ele>
        <time>2024-04-04T15:58:31Z</time>
      </trkpt>
      <trkpt lat="45.12232" lon="4.41527">
        <ele>1123.44</ele>
        <time>2024-04-04T15:58:56Z</time>
      </trkpt>
      <trkpt lat="45.12223" lon="4.41478">
        <ele>1119.59</ele>
        <time>2024-04-04T15:59:20Z</time>
      </trkpt>
      <trkpt lat="45.12212" lon="4.41436">
        <ele>1116.71</ele>
        <time>2024-04-04T15:59:44Z</time>
      </trkpt>
      <trkpt lat="45.12192" lon="4.41403">
        <ele>1116.71</ele>
        <time>2024-04-04T16:00:05Z</time>
      </trkpt>
      <trkpt lat="45.12169" lon="4.41384">
        <ele>1119.11</ele>
        <time>2024-04-04T16:00:25Z</time>
      </trkpt>
      <trkpt lat="45.12142" lon="4.41364">
        <ele>1117.67</ele>
        <time>2024-04-04T16:00:47Z</time>
      </trkpt>
      <trkpt lat="45.12137" lon="4.41358">
        <ele>1117.19</ele>
        <time>2024-04-04T16:00:53Z</time>
      </trkpt>
      <trkpt lat="45.12133" lon="4.41355">
        <ele>1117.19</ele>
        <time>2024-04-04T16:00:56Z</time>
      </trkpt>
      <trkpt lat="45.12117" lon="4.41343">
        <ele>1116.71</ele>
        <time>2024-04-04T16:01:07Z</time>
      </trkpt>
      <trkpt lat="45.12111" lon="4.41336">
        <ele>1117.19</ele>
        <time>2024-04-04T16:01:16Z</time>
      </trkpt>
      <trkpt lat="45.12102" lon="4.41326">
        <ele>1117.67</ele>
        <time>2024-04-04T16:01:26Z</time>
      </trkpt>
      <trkpt lat="45.121" lon="4.41318">
        <ele>1118.63</ele>
        <time>2024-04-04T16:01:32Z</time>
      </trkpt>
      <trkpt lat="45.12088" lon="4.41299">
        <ele>1121.52</ele>
        <time>2024-04-04T16:01:47Z</time>
      </trkpt>
      <trkpt lat="45.12085" lon="4.41291">
        <ele>1122.48</ele>
        <time>2024-04-04T16:01:54Z</time>
      </trkpt>
      <trkpt lat="45.12087" lon="4.41274">
        <ele>1122.96</ele>
        <time>2024-04-04T16:02:03Z</time>
      </trkpt>
      <trkpt lat="45.12079" lon="4.41269">
        <ele>1121.52</ele>
        <time>2024-04-04T16:02:14Z</time>
      </trkpt>
      <trkpt lat="45.12076" lon="4.41267">
        <ele>1121.52</ele>
        <time>2024-04-04T16:02:19Z</time>
      </trkpt>
      <trkpt lat="45.1207" lon="4.41268">
        <ele>1122</ele>
        <time>2024-04-04T16:02:29Z</time>
      </trkpt>
      <trkpt lat="45.12061" lon="4.41266">
        <ele>1122.48</ele>
        <time>2024-04-04T16:02:38Z</time>
      </trkpt>
      <trkpt lat="45.1206" lon="4.41265">
        <ele>1121.03</ele>
        <time>2024-04-04T16:02:55Z</time>
      </trkpt>
    </trkseg>
  </trk>
</gpx>